GFSGL_925_spd_000.txt.gz
Wind_Speed
25 18 15 11 10 16 20 16 11 6 1 9 3 4 9 11 15 20 22 23 23 24 25 28 30 30 30 29 29 31 29 24 14 21 23 22 22 23 27 29 29 27 24
31 23 19 14 15 17 16 12 9 9 7 5 4 8 13 17 17 19 21 24 27 29 30 30 32 29 28 28 26 28 26 24 22 15 20 22 21 16 16 20 23 25 28
26 25 18 16 18 17 14 10 8 3 5 6 10 14 18 19 23 24 25 27 27 28 28 27 24 21 21 20 17 18 20 21 24 17 13 16 19 21 21 23 23 25 28
24 16 13 11 14 9 9 7 3 6 7 9 14 17 18 20 22 22 21 20 19 17 16 19 21 22 24 25 25 24 21 21 21 21 21 18 18 18 20 18 22 27 32
17 6 7 9 6 5 5 5 16 11 12 12 14 14 16 16 19 17 14 12 16 22 26 28 29 28 25 25 24 26 25 26 27 27 26 25 25 22 20 20 17 20 26
13 4 5 4 4 2 11 9 14 15 10 10 12 14 18 18 15 9 15 22 27 29 29 27 28 29 31 33 31 30 28 27 25 23 22 20 23 20 20 22 20 12 7
3 3 6 7 7 8 9 12 14 9 9 12 16 17 16 10 11 19 21 25 26 26 27 27 27 26 26 28 30 30 30 31 32 30 27 26 25 21 20 21 21 18 18
9 8 8 7 8 10 8 8 9 12 15 16 15 13 12 15 15 22 24 26 27 28 28 29 28 29 30 28 28 27 27 30 30 29 30 31 31 27 26 27 26 27 28
14 13 14 15 14 11 13 12 14 15 15 16 14 12 11 18 23 22 23 24 27 27 27 26 26 27 29 29 30 28 30 30 30 30 33 34 31 29 28 27 22 19 12
10 9 8 8 9 10 12 13 13 16 15 14 8 14 20 24 24 21 21 22 22 25 26 26 27 29 31 32 31 29 28 28 27 27 26 26 30 33 34 34 26 19 15
11 10 10 11 13 13 12 14 15 16 9 14 17 21 22 20 23 21 21 23 24 26 26 26 26 27 28 30 29 27 28 30 27 26 24 25 25 27 27 29 32 28 19
10 10 12 13 13 11 14 15 14 9 13 18 20 22 23 23 22 21 21 23 25 28 27 26 27 26 26 23 25 29 27 29 27 25 23 22 23 24 25 25 28 29 31
11 12 13 12 12 14 14 13 8 14 16 17 19 21 23 23 25 23 23 25 25 26 20 21 21 20 19 16 15 15 17 20 21 20 21 22 21 23 25 25 25 25 26
13 13 12 13 12 12 12 10 11 17 16 17 20 18 18 21 21 25 27 22 24 14 18 20 17 18 16 15 16 15 14 16 19 21 22 24 21 19 21 25 24 22 20
12 13 13 9 10 12 13 9 14 15 13 17 19 15 17 20 22 24 21 22 17 13 14 19 20 21 19 19 20 19 19 16 14 15 16 16 16 17 19 20 19 17 16
14 14 11 10 12 13 12 14 12 10 13 13 13 14 21 18 20 19 19 14 14 13 14 12 16 17 17 17 19 20 19 20 18 10 6 11 13 15 15 17 19 14 12
15 15 15 14 9 12 13 13 15 11 14 13 12 15 17 18 17 17 17 11 12 13 13 15 16 17 18 18 18 18 18 22 18 13 3 3 11 13 13 14 12 12 8
14 16 17 8 9 11 9 9 10 12 15 16 14 15 16 16 17 17 17 12 16 17 17 15 15 18 17 18 20 19 21 23 24 21 14 10 4 5 6 10 12 10 10
11 7 6 7 10 9 8 10 8 10 12 12 15 16 17 14 15 16 16 17 14 14 16 16 18 18 20 19 20 22 22 22 21 21 20 15 12 6 7 5 6 7 10
10 4 6 11 11 7 7 8 7 8 10 9 11 13 15 15 16 18 18 18 17 16 17 16 17 17 19 19 20 21 22 23 22 21 19 18 15 11 9 7 8 8 7
9 5 8 11 10 7 6 6 5 7 8 8 9 11 11 12 13 14 16 17 17 16 16 16 17 18 18 19 19 20 20 21 20 18 19 17 16 15 12 11 11 10 11
7 4 7 7 7 8 6 6 5 6 7 7 7 9 10 11 12 13 14 14 14 15 15 15 16 17 18 18 19 19 19 19 18 17 15 15 15 14 12 13 13 13 13
6 5 7 6 7 6 6 6 5 4 5 5 6 8 9 10 10 11 12 14 14 15 15 16 17 17 17 18 18 18 19 17 14 12 13 13 14 14 13 13 12 13 13
5 6 7 6 6 5 5 4 4 2 3 5 5 7 7 8 9 10 11 11 11 13 14 15 15 16 16 17 18 17 15 15 15 13 11 12 13 13 14 14 12 12 12
4 8 6 6 5 4 3 3 4 2 1 4 4 4 6 7 8 9 9 10 12 13 14 15 15 15 16 16 16 16 14 12 13 14 14 13 13 13 14 14 12 11 11
6 7 8 6 5 4 4 4 3 2 1 2 2 4 3 5 7 8 8 10 11 12 13 14 15 15 17 17 16 14 14 14 14 12 12 13 14 15 15 15 15 12 9

GFSGL_925_spd_003.txt.gz
Wind_Speed
20 28 31 35 28 16 15 14 17 8 3 5 7 6 2 8 11 14 15 15 17 19 21 23 25 24 25 26 25 25 24 21 13 20 22 23 22 22 24 22 22 22 19
26 30 33 36 23 14 15 12 9 6 5 2 3 3 5 10 12 13 16 18 19 21 22 22 24 25 25 25 25 25 26 26 20 12 11 15 16 15 17 22 24 25 26
29 34 32 30 14 14 10 9 5 1 3 3 7 10 12 11 13 14 16 17 18 18 19 19 19 17 19 19 18 19 20 22 22 18 13 13 18 19 20 20 20 23 29
27 25 24 15 7 7 5 5 7 9 10 11 12 13 12 12 13 13 15 16 13 12 15 18 21 23 25 27 27 27 27 25 22 20 19 17 18 21 22 23 23 24 25
23 18 12 5 4 6 8 8 13 15 10 15 18 15 13 14 17 15 11 9 15 21 26 29 30 29 26 26 26 26 26 25 24 23 24 23 22 19 21 25 26 26 28
11 7 6 4 6 9 10 14 11 14 19 17 14 15 16 15 11 5 12 17 22 26 28 27 28 26 27 26 26 27 27 27 25 21 20 17 18 18 22 24 24 20 10
7 7 10 12 10 13 15 17 17 15 12 13 14 13 12 7 9 14 18 23 26 28 26 25 25 23 24 27 28 27 28 28 30 28 24 23 22 20 20 18 21 20 19
11 10 11 11 11 14 14 13 12 11 12 12 12 12 11 11 15 20 23 25 25 25 26 25 26 28 26 25 26 26 27 26 26 28 26 29 29 28 26 25 26 26 28
15 16 16 16 14 13 13 15 13 14 13 13 9 9 13 19 22 22 21 23 25 26 27 25 24 26 28 27 29 28 27 28 26 27 29 29 28 28 26 24 22 19 11
10 13 12 13 13 14 14 13 14 14 11 7 13 17 20 22 22 21 20 22 20 20 21 23 25 26 27 27 28 27 26 26 24 25 26 28 29 31 30 32 25 19 16
9 11 13 14 14 12 13 15 14 10 11 17 19 20 20 21 22 23 20 20 22 23 23 25 24 24 25 27 26 27 27 29 23 22 23 22 24 26 28 28 31 29 17
11 12 13 13 12 14 14 13 10 12 18 18 19 23 25 22 22 25 21 20 22 24 26 23 24 24 23 23 22 21 21 21 25 21 20 20 22 22 24 26 28 29 30
11 13 13 12 13 12 12 13 11 16 18 18 19 21 24 24 28 26 24 23 22 25 19 16 19 19 19 18 16 17 17 16 15 16 18 20 22 24 22 23 25 25 27
11 12 14 13 12 10 15 13 13 16 18 17 20 20 18 24 25 26 23 23 24 15 15 15 19 18 16 16 18 16 15 14 15 18 18 22 20 19 20 23 20 24 20
11 13 13 11 10 13 14 13 14 15 14 19 20 19 19 20 23 24 23 23 17 14 12 14 18 21 19 19 21 21 20 19 17 17 15 12 14 15 17 18 19 17 15
12 14 14 14 13 12 14 15 10 14 14 15 15 16 21 20 22 21 20 17 13 10 12 13 16 17 16 17 18 20 20 21 21 18 13 8 8 10 13 14 15 14 13
11 13 16 16 9 10 14 14 14 15 14 15 15 15 17 19 19 19 18 13 12 12 14 15 14 17 17 17 19 19 18 22 21 18 15 13 12 10 11 13 13 12 9
9 11 8 7 10 12 14 10 12 12 16 18 16 15 17 17 17 18 18 12 17 17 16 14 15 17 18 18 20 20 23 23 23 22 19 17 15 11 8 4 3 2 4
8 7 7 9 11 12 9 10 11 11 13 14 16 18 18 16 14 16 17 18 15 15 17 16 17 18 19 20 20 22 23 23 23 23 22 19 16 13 14 11 8 7 5
9 6 5 9 11 8 9 10 10 10 12 11 13 15 18 16 18 18 19 19 18 17 18 17 18 19 20 20 21 21 22 25 25 24 22 20 17 14 11 9 8 8 7
10 7 6 9 8 8 10 9 9 9 9 9 10 12 12 11 13 14 16 17 17 17 17 17 18 20 21 21 21 22 22 22 23 21 19 18 16 15 12 11 10 9 10
7 5 7 8 8 10 9 9 8 8 7 8 9 10 10 9 10 12 14 15 15 15 15 16 17 18 19 20 20 21 22 21 21 19 17 16 16 14 12 12 11 10 10
4 5 7 9 8 9 9 9 8 7 6 7 7 8 8 8 9 10 11 12 13 14 14 14 15 17 17 18 18 18 19 20 18 16 16 15 16 15 14 13 11 11 10
4 5 9 10 10 9 9 8 7 7 5 5 6 5 6 6 7 8 10 11 12 12 13 14 15 15 16 16 17 17 16 16 16 16 14 14 15 14 13 14 13 12 11
3 7 9 10 10 9 8 7 7 6 5 5 5 4 4 5 5 7 8 9 11 12 13 14 15 15 15 15 15 15 15 14 15 15 15 15 16 16 15 13 12 11 11
5 8 9 11 12 10 9 8 7 7 6 5 5 3 4 4 4 5 6 8 10 11 11 12 13 13 14 16 15 14 13 14 14 13 12 13 15 16 15 15 13 12 11

GFSGL_925_spd_006.txt.gz
Wind_Speed
19 25 32 35 34 35 23 14 12 7 0 3 6 11 14 11 10 8 10 11 11 12 12 16 17 16 18 18 18 19 21 21 11 19 18 19 22 21 21 22 22 21 20
22 29 31 30 30 22 7 4 3 3 5 8 11 9 13 14 12 12 12 12 13 15 16 17 19 19 19 18 17 18 20 22 21 16 15 12 16 15 14 16 20 24 26
24 24 24 26 21 11 7 7 7 8 6 9 9 15 15 14 13 13 14 13 13 15 16 15 15 15 18 19 22 24 25 24 24 20 18 18 21 21 24 24 23 24 23
21 18 18 17 10 9 10 10 14 13 12 13 13 20 17 14 12 13 14 13 12 13 15 18 22 24 26 27 26 25 24 23 22 21 22 20 21 22 24 22 23 26 31
13 13 12 10 11 11 15 17 20 23 22 20 19 21 18 16 18 17 14 12 15 20 25 28 29 27 24 25 25 24 22 20 20 20 20 20 19 17 20 22 25 26 27
11 12 13 14 13 12 15 15 16 19 21 24 21 18 16 16 13 8 11 16 20 25 26 26 28 25 25 23 22 23 23 22 21 20 20 19 20 18 21 23 22 18 10
10 13 17 18 17 17 16 15 15 15 14 14 16 16 14 11 10 13 17 22 26 26 25 25 24 22 22 24 24 23 24 25 27 26 23 22 22 21 21 20 23 21 22
6 7 12 15 16 14 14 15 15 13 15 16 15 13 13 16 19 22 23 24 25 25 25 25 24 26 23 22 24 24 24 26 27 28 28 30 29 27 28 27 25 24 24
10 11 13 12 13 15 16 14 13 14 15 13 11 15 19 22 23 22 21 24 25 25 23 21 22 22 25 23 25 25 25 25 26 26 29 31 30 27 26 24 21 19 13
11 11 11 13 14 14 13 14 15 13 9 14 19 20 20 22 24 21 21 24 22 21 24 22 23 23 23 23 26 24 24 23 22 25 26 27 28 31 32 31 23 18 16
11 11 13 14 13 12 14 13 13 11 15 19 20 20 21 23 23 23 23 22 21 22 21 23 24 18 22 24 22 23 22 25 24 23 23 23 22 24 27 29 29 27 21
9 11 12 13 13 12 11 12 14 13 18 21 22 24 26 25 23 26 22 21 21 23 23 24 15 19 21 20 19 18 20 20 20 18 18 18 20 22 24 26 28 29 29
9 10 11 13 12 10 10 14 15 16 19 21 18 20 23 21 28 27 25 21 23 25 21 16 14 19 19 18 16 17 14 13 14 14 15 18 20 23 23 24 25 26 26
10 10 11 12 11 10 12 13 14 17 19 17 19 19 20 22 23 28 23 26 24 17 15 13 15 17 18 18 19 19 17 15 14 14 15 19 22 19 18 19 18 21 17
12 10 10 12 13 14 14 13 15 13 15 18 21 22 22 19 24 26 24 24 20 15 10 14 18 20 20 20 20 21 21 21 17 17 15 13 10 8 12 13 14 14 13
13 11 11 14 14 12 12 16 13 14 15 15 16 18 20 20 22 22 22 19 15 12 12 13 13 16 17 17 18 20 21 23 22 19 16 14 12 8 6 8 10 12 10
10 9 10 10 11 14 15 17 17 19 15 17 17 17 17 20 20 20 20 15 13 14 13 14 14 16 18 18 18 17 19 23 21 20 17 17 17 12 5 7 8 9 10
7 8 9 9 11 14 15 13 15 16 18 22 20 18 18 18 17 18 19 15 18 19 16 14 15 17 17 17 20 21 22 25 25 23 21 19 17 17 13 10 6 1 2
8 11 7 8 11 13 12 13 14 14 15 18 20 22 22 18 15 15 17 19 15 14 16 16 18 18 19 20 22 23 23 23 24 24 22 20 18 13 12 13 10 8 6
8 9 6 8 12 12 13 13 14 14 15 16 17 18 21 21 20 20 19 18 18 17 17 17 18 19 20 21 23 24 24 24 25 25 22 20 17 15 14 11 12 10 10
10 8 6 10 10 11 13 13 14 14 14 14 14 15 15 14 15 15 17 17 17 17 17 17 17 19 21 22 22 23 24 24 23 23 22 20 18 17 14 12 12 11 10
9 6 8 10 10 11 12 13 13 13 12 13 14 14 14 13 12 13 14 15 15 15 15 15 16 17 19 20 21 21 22 23 24 23 21 19 17 15 14 14 13 12 11
7 5 7 9 11 11 11 12 12 12 12 11 12 12 12 12 11 11 13 14 14 14 15 15 16 17 17 18 19 19 19 20 21 20 18 17 16 16 15 16 15 14 13
8 6 8 9 11 11 11 11 11 11 11 10 11 10 10 10 10 11 12 13 13 14 14 15 16 17 17 17 17 18 18 18 17 17 17 16 17 15 15 14 14 13 12
11 8 10 11 12 12 11 11 11 10 10 10 10 10 9 9 9 10 11 12 13 13 14 15 15 16 17 17 18 17 16 16 16 15 15 15 16 16 17 15 14 12 11
8 9 10 10 13 13 11 11 10 10 10 9 10 9 8 9 7 7 10 11 13 14 13 14 14 14 15 17 18 17 17 16 16 15 14 14 15 16 16 16 15 16 14

GFSGL_925_spd_009.txt.gz
Wind_Speed
14 20 23 23 23 23 18 15 7 2 4 3 5 7 10 8 9 11 7 5 5 5 6 7 10 10 10 10 13 16 17 18 14 25 22 21 23 22 22 21 22 23 22
19 19 16 17 19 15 11 8 7 7 6 6 7 11 13 14 14 10 9 8 9 9 11 11 13 13 12 12 12 14 15 17 19 21 24 23 23 23 20 19 20 21 20
17 14 13 16 14 9 9 10 11 11 9 11 12 12 14 15 16 14 13 12 12 11 10 9 10 10 12 14 16 19 20 22 23 25 26 26 25 25 27 27 26 27 27
11 8 8 10 9 10 11 12 12 14 13 15 15 15 15 15 14 16 13 11 10 10 11 12 14 15 17 19 20 21 22 23 23 24 25 26 26 26 27 27 27 27 29
8 8 9 9 8 12 11 13 13 13 14 14 14 13 12 12 10 11 9 9 12 15 18 19 19 19 21 22 23 23 22 23 23 22 23 24 23 21 22 24 26 25 27
6 5 5 7 10 13 14 15 14 14 14 14 15 15 15 11 12 10 13 15 18 20 22 23 23 22 20 19 19 20 22 24 24 23 23 22 24 23 23 23 23 22 13
3 6 8 11 12 11 12 14 15 14 13 14 13 12 11 11 15 17 18 19 21 21 21 22 22 21 20 19 19 20 21 23 25 26 27 27 27 24 23 22 22 23 23
6 8 10 11 11 12 14 14 13 13 14 13 11 11 14 16 19 19 19 19 19 20 21 21 21 21 19 18 19 21 22 23 23 25 28 29 28 27 26 26 25 25 25
9 10 10 10 12 12 12 13 13 13 12 11 13 15 16 17 18 19 18 19 20 21 20 18 18 21 20 21 22 24 25 26 24 26 29 31 33 32 29 24 23 22 17
9 10 10 11 11 11 12 12 11 11 11 13 15 15 16 17 19 18 18 19 20 19 19 19 19 20 20 19 19 22 24 23 23 18 19 23 26 30 32 33 28 22 19
12 11 11 10 11 10 11 10 11 13 11 15 16 16 15 16 17 19 19 18 18 20 20 21 19 18 14 19 19 19 20 21 21 20 20 21 20 20 21 22 27 28 23
13 11 9 10 11 11 11 11 12 12 13 15 16 17 17 17 17 21 19 19 19 21 21 18 15 12 15 16 14 14 18 17 15 16 16 17 17 18 19 20 22 23 23
11 9 8 10 11 11 11 12 13 13 13 16 18 20 20 21 19 20 22 19 21 21 18 13 12 14 13 12 12 13 12 10 11 12 12 14 14 17 16 17 19 19 21
10 8 7 8 11 12 11 11 11 13 14 16 18 19 21 21 20 22 22 22 20 13 14 8 10 11 11 11 12 12 11 11 11 10 11 13 12 11 11 12 13 13 15
10 8 7 7 9 11 9 9 10 9 11 16 17 18 19 20 22 23 22 22 15 14 8 7 9 12 13 15 15 13 12 13 12 11 11 11 9 7 5 5 8 10 12
9 6 5 7 7 8 10 11 9 10 12 12 13 14 16 17 20 19 20 17 14 10 7 9 10 11 14 15 16 15 15 15 15 14 12 12 10 8 4 2 5 7 8
6 6 6 7 6 8 11 11 12 12 12 13 14 14 15 17 17 17 19 13 13 11 10 10 11 12 13 13 14 15 15 16 15 14 14 13 12 10 6 2 3 4 6
6 6 8 5 6 9 9 10 9 11 13 14 15 15 16 16 15 16 17 13 12 14 11 11 12 12 12 13 14 15 15 16 16 16 15 14 13 10 10 8 6 2 1
8 7 7 5 8 10 9 9 8 10 12 12 14 14 16 15 13 14 15 13 11 13 13 12 12 12 12 13 14 14 14 15 16 16 15 15 14 12 10 9 6 6 3
8 8 6 6 8 8 9 9 10 11 11 12 13 14 16 15 15 15 14 13 12 12 12 13 13 13 13 13 14 14 15 16 16 16 16 15 13 11 10 9 9 6 6
8 7 5 6 8 8 8 9 9 9 10 10 11 11 13 12 12 12 12 12 12 11 12 12 12 12 13 13 13 14 14 15 15 15 15 14 13 12 10 9 8 7 6
8 6 6 7 9 8 8 8 8 8 9 9 10 10 12 10 10 10 11 11 11 10 10 11 10 11 12 12 13 13 13 14 15 15 15 13 12 12 11 9 9 8 7
6 5 5 7 9 9 8 8 8 8 8 8 8 9 9 10 9 9 10 10 11 11 13 12 11 12 13 14 15 15 14 14 14 16 14 13 12 12 11 10 10 10 9
10 10 7 7 9 10 8 7 8 9 9 7 7 7 7 7 8 8 9 10 10 11 13 13 13 14 16 16 16 16 15 15 14 14 15 13 12 11 10 9 9 9 9
8 7 6 7 8 9 11 7 8 8 8 7 7 6 6 5 5 6 7 10 11 12 12 12 13 13 14 15 16 16 15 14 14 13 13 13 13 13 12 10 9 8 9
6 6 7 7 8 10 10 8 8 8 8 7 7 7 6 6 6 6 7 7 8 10 12 11 11 12 13 13 14 14 15 15 15 14 13 13 13 13 10 10 10 9 10

GFSGL_925_spd_012.txt.gz
Wind_Speed
10 13 15 15 14 15 15 14 13 11 9 7 6 7 8 11 11 9 12 11 9 9 10 12 13 13 15 15 15 16 18 20 15 24 23 22 21 22 21 21 21 21 22
15 17 15 13 14 15 14 13 12 11 9 8 9 10 14 13 13 11 11 12 12 13 14 15 16 16 14 15 16 17 18 19 21 21 25 24 25 23 23 24 23 22 22
17 17 14 14 15 14 14 14 14 13 13 13 12 13 12 14 16 14 14 16 16 17 16 16 15 14 15 16 17 19 20 22 23 24 26 26 26 25 26 26 26 26 26
16 16 17 15 12 13 13 13 14 14 15 15 16 17 16 15 15 14 15 17 17 17 16 16 16 17 18 19 19 21 23 23 23 23 25 26 25 25 26 26 26 26 28
14 16 14 9 10 12 15 16 16 16 16 16 15 14 14 14 11 12 15 17 18 19 19 20 20 19 19 22 23 23 23 24 23 23 23 24 23 23 24 25 26 25 26
15 12 8 10 12 14 14 16 17 17 16 15 15 15 15 14 12 14 16 19 22 23 23 22 22 22 22 19 20 22 23 24 24 22 21 21 25 24 22 22 22 21 13
14 10 9 12 13 14 16 17 16 16 15 16 16 14 14 15 16 20 18 20 21 22 22 22 22 22 21 21 20 19 20 22 24 25 26 27 27 25 24 24 22 22 23
15 12 11 12 12 15 16 15 16 16 16 16 15 16 17 17 16 17 20 20 20 21 21 22 23 23 21 18 20 21 21 23 23 25 27 28 28 26 25 26 26 27 27
15 13 12 11 12 14 14 15 16 16 16 16 16 18 19 19 17 18 19 21 21 22 22 21 19 21 21 19 20 22 23 25 24 25 30 32 31 31 30 25 23 21 18
14 13 12 11 11 13 14 15 15 16 17 16 17 18 19 19 17 18 19 21 20 20 20 20 19 21 22 20 19 19 24 25 23 21 22 23 25 29 30 31 29 24 21
12 11 12 11 11 12 14 15 16 17 17 13 15 17 16 15 20 17 19 19 19 21 21 21 19 14 11 13 16 20 21 19 21 22 21 20 20 22 22 23 26 27 26
15 15 12 10 10 12 14 16 17 18 16 14 16 16 17 16 19 17 19 21 20 22 22 20 12 18 16 16 15 13 16 17 17 16 16 16 17 17 18 19 20 22 24
14 14 12 10 11 12 14 17 17 16 14 14 17 18 20 20 19 17 21 21 21 21 18 17 15 15 13 12 9 12 12 10 11 13 13 13 13 14 15 15 17 18 19
16 13 12 11 11 14 14 14 14 13 11 15 17 18 19 20 18 20 22 22 21 16 17 12 10 12 11 9 9 8 8 9 11 12 12 13 13 12 12 11 12 12 15
13 12 10 9 10 12 12 11 11 10 9 13 15 17 18 18 19 21 21 22 17 17 14 9 9 10 11 11 11 10 10 11 11 11 11 12 11 10 8 7 7 8 10
10 8 7 8 8 9 11 12 8 7 9 8 9 11 15 15 17 18 19 17 15 13 8 9 10 11 12 14 14 14 12 12 13 13 12 11 11 11 10 4 5 7 8
7 6 6 6 7 8 10 11 12 10 8 8 9 11 13 15 15 16 18 14 12 11 10 11 11 12 13 13 14 13 14 14 12 12 12 12 13 12 11 7 4 4 5
7 7 6 6 5 8 9 9 10 11 13 12 10 10 13 14 13 15 16 11 11 12 11 12 13 13 13 14 15 14 14 14 13 13 12 13 13 12 11 11 10 9 5
7 6 6 4 5 8 7 9 9 11 12 12 12 11 12 12 10 11 13 12 11 11 12 12 12 13 13 14 14 15 14 15 15 14 13 13 13 12 10 10 10 8 9
6 5 3 4 7 7 7 8 10 10 11 11 11 11 13 12 11 12 12 12 11 11 12 12 12 12 13 13 14 14 15 15 15 15 15 14 13 11 11 10 10 10 9
6 5 4 5 6 7 7 7 9 9 9 9 9 8 9 9 10 9 10 11 11 11 11 11 11 11 12 13 13 13 14 15 15 15 15 14 13 12 11 10 9 9 8
6 5 5 5 6 7 7 7 7 8 8 8 8 7 6 7 7 7 8 9 9 9 10 10 11 11 11 12 13 13 13 14 14 15 14 13 13 12 11 10 10 9 9
6 5 6 5 5 7 7 7 7 7 8 7 7 7 6 6 5 5 6 7 8 8 9 8 9 10 11 11 11 11 12 13 13 14 14 13 13 12 11 10 10 10 10
8 8 7 6 5 8 8 8 8 6 6 7 7 6 5 4 4 4 4 5 6 7 7 7 7 9 10 11 11 11 12 13 12 11 12 12 12 11 10 10 9 10 9
7 6 6 7 6 8 9 9 8 7 7 7 6 6 5 4 4 4 4 4 5 6 6 6 6 8 8 10 11 12 12 13 13 12 10 10 10 10 10 9 10 9 10
6 7 7 7 8 7 9 8 8 8 7 7 6 6 5 5 4 4 4 4 5 5 5 5 6 7 8 8 11 12 12 12 12 12 10 9 10 10 9 9 10 9 9

GFSGL_925_spd_015.txt.gz
Wind_Speed
15 17 18 18 17 17 19 19 18 19 18 17 14 13 10 14 16 16 16 17 12 13 13 14 16 17 18 19 18 18 18 18 13 20 21 20 19 21 23 21 19 20 22
17 19 21 19 18 20 17 16 16 18 19 18 15 13 19 18 14 13 15 14 14 17 18 19 20 20 20 19 19 19 20 22 22 19 22 22 23 23 23 22 23 23 23
20 21 20 20 18 17 15 14 15 17 19 19 18 17 17 17 20 19 17 16 18 19 20 22 22 21 21 20 20 21 21 22 23 23 22 23 24 23 23 23 23 23 25
20 19 20 18 15 13 14 15 17 19 21 21 21 21 19 20 20 18 14 19 21 22 22 22 22 22 22 22 21 20 21 22 23 24 24 24 24 24 24 22 22 23 23
20 20 20 16 14 15 16 17 18 19 20 19 19 19 19 20 15 10 15 20 22 24 25 25 25 23 20 22 24 25 23 22 23 22 22 23 21 20 19 19 20 19 20
20 21 19 14 13 15 16 17 18 19 19 18 19 20 19 20 15 14 16 20 24 25 25 25 25 24 23 20 17 20 23 22 23 24 24 22 24 23 23 21 20 18 11
22 21 17 14 14 16 17 17 18 18 19 19 20 19 19 20 14 18 21 21 24 25 25 26 26 25 22 23 22 10 16 20 24 25 25 26 24 23 24 24 24 22 21
25 20 16 15 16 17 17 17 17 19 19 20 20 18 19 21 18 18 18 24 23 25 25 25 26 26 24 20 20 20 21 21 22 24 27 29 26 26 25 26 24 24 24
25 21 14 16 18 16 16 16 18 19 19 20 18 18 22 22 22 17 21 22 23 24 24 23 22 24 24 21 21 22 23 23 21 22 27 31 33 34 34 28 23 20 15
25 19 16 17 16 14 14 17 17 20 20 18 16 19 19 22 18 19 17 21 22 23 22 22 23 24 24 24 18 18 18 21 23 22 21 22 23 24 26 29 27 23 21
24 16 16 15 15 13 14 17 19 21 19 12 14 17 20 18 20 19 14 17 22 24 24 23 22 9 15 15 15 18 21 20 20 21 22 22 20 20 21 22 29 29 24
21 15 13 12 11 14 15 18 18 20 16 15 16 18 19 19 18 16 15 20 23 24 24 24 19 23 19 19 16 15 16 17 17 18 17 17 15 16 16 17 19 22 26
22 15 13 11 12 14 15 17 18 16 13 14 17 19 20 20 20 18 20 23 23 24 22 20 22 13 17 15 11 14 13 13 11 13 13 13 12 13 14 14 15 17 20
18 17 14 13 9 14 14 16 13 13 12 15 18 19 20 20 21 20 24 24 23 20 21 19 14 13 14 16 10 8 8 8 10 12 12 12 13 13 15 12 11 11 12
16 16 14 12 11 12 14 11 12 9 6 12 14 15 18 19 21 23 22 24 21 20 20 12 12 13 14 14 11 10 9 10 10 11 12 12 11 12 14 6 8 8 8
15 13 12 10 10 9 11 12 11 10 11 11 9 9 13 16 20 20 21 21 16 16 14 11 12 13 14 15 15 15 13 13 14 13 13 12 12 14 14 7 5 6 7
11 11 10 8 7 8 9 10 12 9 12 9 8 8 9 15 18 17 19 17 12 13 12 12 13 14 14 14 15 16 16 15 14 13 13 13 13 13 15 12 10 6 6
10 10 8 8 5 7 8 9 10 10 13 12 8 10 10 14 15 14 16 14 11 11 12 13 13 14 16 16 16 16 16 15 15 14 13 13 13 13 11 12 11 10 10
9 8 7 6 6 7 8 8 9 10 12 12 13 11 14 16 12 9 12 12 12 12 12 13 13 14 14 15 16 16 16 15 15 15 15 14 13 12 11 11 11 11 11
8 7 7 6 7 7 7 7 8 9 11 12 12 12 13 14 12 11 10 10 11 11 12 13 13 13 14 14 15 16 17 16 16 16 16 15 14 12 11 11 11 10 10
8 7 7 8 7 7 8 8 8 9 10 11 10 5 11 9 11 10 10 9 10 10 11 11 12 12 13 13 14 15 16 16 16 17 17 17 16 14 13 11 11 10 10
8 9 7 8 7 7 7 9 8 9 9 10 10 8 7 7 9 8 8 8 8 8 9 9 10 10 11 12 13 14 15 15 15 17 18 18 16 14 14 12 12 11 11
8 8 9 10 8 7 9 9 9 9 9 10 9 9 8 8 8 8 7 7 7 8 8 8 8 9 10 10 11 12 13 14 14 15 15 17 15 15 14 13 11 12 12
8 10 11 10 10 8 9 9 9 9 9 9 9 8 8 8 8 7 7 7 7 7 7 7 7 8 9 10 10 10 11 13 13 14 12 14 13 13 13 12 13 11 12
8 9 9 10 10 9 9 10 10 9 9 9 8 7 8 8 8 8 8 7 7 7 8 7 7 8 8 9 11 12 12 12 12 14 11 12 12 12 12 11 12 11 11
9 9 10 10 10 10 9 9 9 9 9 9 8 8 8 8 8 8 7 7 7 7 7 7 6 7 8 8 11 12 12 12 12 11 11 10 11 11 11 11 12 10 11

GFSGL_925_spd_018.txt.gz
Wind_Speed
13 14 16 18 16 16 10 15 15 19 19 22 22 20 16 18 19 16 16 14 12 14 15 15 17 20 19 18 20 19 19 21 13 21 24 22 18 13 16 14 21 25 22
15 19 20 19 17 13 14 14 17 17 17 20 24 22 22 20 18 19 19 18 16 16 19 20 20 18 20 18 18 19 19 20 20 15 18 19 20 19 19 20 19 18 21
18 18 19 18 15 13 13 13 17 19 20 20 22 23 23 22 21 20 21 12 17 21 25 26 24 22 22 20 20 21 20 19 21 20 18 21 22 23 23 23 23 22 20
14 16 19 16 14 8 9 12 16 18 20 20 21 20 21 21 22 15 13 16 18 19 23 28 29 27 25 24 17 16 17 21 22 21 21 21 22 22 24 25 23 23 25
18 17 18 19 11 7 9 13 16 19 17 17 19 20 22 21 11 17 16 15 18 21 24 26 26 27 28 26 22 22 19 18 18 18 18 19 18 18 15 15 17 17 17
20 21 25 12 11 10 9 13 15 16 16 18 18 19 20 17 16 16 19 21 19 22 25 27 27 27 26 22 17 21 24 23 19 17 17 17 20 21 20 17 17 15 4
22 22 18 17 15 13 10 10 14 13 17 16 18 17 14 15 15 19 21 22 19 23 25 26 26 24 25 21 16 17 16 16 20 23 22 23 21 23 23 22 21 18 16
27 28 17 15 16 14 9 9 11 12 16 18 16 11 13 15 21 24 23 21 20 21 23 26 26 26 24 24 24 20 19 20 20 21 23 29 26 26 25 21 19 18 20
28 29 26 19 12 13 9 11 10 14 17 13 14 14 16 19 23 22 20 18 18 20 23 23 25 26 26 25 24 22 23 22 21 21 20 22 24 27 29 26 22 18 16
23 22 24 23 16 9 7 13 13 16 13 12 13 14 16 21 21 20 16 14 18 21 22 23 24 24 10 11 13 14 15 16 18 20 24 25 25 24 23 25 24 19 17
26 24 22 20 12 7 6 12 13 13 13 11 14 18 20 20 19 16 15 15 18 22 23 24 24 23 22 17 16 18 19 19 19 19 22 23 23 22 22 22 23 25 21
24 23 20 20 15 11 12 14 14 12 10 13 16 19 19 17 17 20 15 20 23 23 24 25 22 26 18 19 18 15 16 17 18 18 19 20 19 20 20 19 19 20 27
19 20 18 16 16 14 11 13 13 10 11 12 15 17 18 20 22 18 24 24 23 25 23 25 22 20 16 17 19 17 18 18 16 11 13 14 15 17 17 17 16 16 18
18 18 18 18 13 13 12 15 12 12 9 11 13 14 16 18 19 23 25 25 24 24 26 22 18 17 17 18 18 14 13 10 12 13 13 16 15 15 15 17 17 11 12
16 17 17 15 15 13 13 9 8 10 10 10 11 11 13 15 18 22 21 23 24 22 21 14 16 18 18 19 19 20 17 16 16 16 16 16 16 17 17 21 8 9 8
14 15 15 15 15 12 12 12 14 15 12 14 12 11 12 11 19 20 20 21 20 17 16 14 14 16 16 17 16 16 17 17 18 17 16 15 16 17 18 19 14 11 11
11 13 13 12 9 9 10 11 12 14 13 14 11 10 8 12 18 18 19 20 14 13 14 14 14 16 16 17 17 17 18 18 19 20 17 17 17 18 17 16 18 16 14
9 10 10 8 8 10 11 13 12 12 14 14 11 9 6 14 18 15 15 15 16 14 14 14 15 16 16 17 18 19 22 18 20 20 19 18 18 18 15 16 16 15 16
12 8 8 11 10 10 11 11 11 12 13 14 12 8 9 21 14 12 12 13 14 15 15 14 14 15 16 17 18 19 21 19 19 20 20 21 20 17 15 15 14 14 14
12 8 12 10 10 10 8 10 11 11 11 13 12 7 11 18 12 13 13 11 12 13 14 15 15 15 15 16 17 18 19 19 19 20 21 23 22 19 18 15 15 14 13
12 6 10 11 12 9 10 11 10 10 11 12 12 10 9 10 9 11 10 11 12 13 13 14 14 14 15 15 16 17 17 17 17 18 19 22 22 19 20 16 16 16 14
11 12 12 11 11 10 9 11 14 13 12 11 10 11 11 9 6 9 9 10 11 10 11 13 12 12 13 13 15 15 16 16 16 17 16 19 21 20 21 17 13 15 15
11 11 12 13 14 13 11 11 13 12 13 10 12 11 9 9 8 8 9 10 10 11 10 12 12 12 12 12 11 12 14 16 16 16 15 18 19 18 19 18 17 16 16
10 12 13 14 14 13 12 12 10 13 14 13 11 11 10 10 9 10 10 9 10 9 11 13 10 11 13 12 14 14 14 15 14 15 11 16 16 16 14 15 15 18 15
12 13 12 13 13 12 12 12 11 10 13 13 11 10 9 10 10 10 9 9 9 10 10 13 11 12 11 10 14 16 14 14 13 12 11 13 12 13 11 14 14 16 15
14 14 13 13 14 14 13 11 10 11 13 13 12 11 11 11 11 11 10 10 11 10 10 11 11 11 10 9 14 15 14 14 12 9 10 12 11 12 14 12 14 14 14

GFSGL_925_spd_021.txt.gz
Wind_Speed
8 10 13 13 11 8 7 8 10 12 12 14 18 17 19 18 18 17 18 19 19 18 15 17 20 22 22 22 20 17 15 18 12 18 19 18 17 15 12 14 11 10 16
8 14 13 12 13 10 12 10 8 8 11 12 14 17 17 18 20 19 18 8 10 14 18 23 25 25 26 26 23 21 20 20 19 9 14 19 20 20 22 21 20 12 11
15 16 13 18 20 15 12 6 5 8 10 11 12 13 16 18 20 17 10 14 16 19 22 24 25 27 28 27 27 25 18 13 15 15 13 20 24 24 24 24 21 23 24
18 13 13 19 23 14 10 7 10 8 10 11 8 13 15 17 15 12 16 16 18 21 23 24 27 25 26 27 28 26 24 24 23 21 20 16 15 19 20 17 18 14 14
11 23 25 24 20 12 17 21 15 9 9 5 9 11 13 10 11 13 15 17 22 24 24 25 23 23 23 24 20 18 19 19 18 18 16 13 13 14 18 18 18 17 20
25 27 29 26 15 23 22 11 11 9 2 10 11 12 9 8 9 13 20 23 23 20 23 25 26 22 20 23 17 16 16 15 16 15 12 9 15 19 21 21 20 15 4
27 20 25 25 19 15 14 14 14 5 6 11 13 6 6 10 10 19 22 21 21 21 21 23 28 21 24 24 23 21 20 18 18 17 16 19 21 24 21 21 19 18 18
18 21 22 22 21 17 12 10 3 8 11 11 6 7 10 15 19 21 19 19 18 18 19 23 27 27 25 24 25 23 24 23 20 19 20 23 23 23 22 22 23 21 17
16 17 19 20 19 16 9 8 5 9 6 6 9 12 16 18 19 17 19 18 17 18 20 22 23 25 24 22 15 14 16 17 16 15 15 14 16 17 18 20 18 17 17
17 17 16 18 16 15 8 4 8 6 5 7 9 15 17 19 15 18 16 15 18 20 20 21 22 21 21 20 19 15 16 21 18 19 22 24 24 24 23 22 23 19 16
15 17 19 19 19 11 13 15 12 3 6 8 13 13 16 14 19 17 15 19 20 19 20 22 23 22 25 21 17 19 19 17 18 18 21 20 17 16 17 17 20 23 19
15 17 19 19 20 16 13 10 6 6 8 12 14 15 16 18 21 16 20 21 20 21 22 24 26 26 17 16 17 18 17 16 18 16 17 18 17 15 14 15 16 21 24
14 16 17 19 17 13 15 10 8 9 11 11 13 15 16 18 20 20 22 20 19 22 22 23 20 16 16 17 17 17 16 13 10 10 10 12 14 14 13 13 12 13 16
12 15 16 15 14 13 13 10 11 14 14 13 14 14 15 17 20 22 23 24 23 21 23 17 17 17 18 18 20 18 18 18 15 14 15 15 14 14 13 16 16 5 8
12 13 13 15 14 12 9 9 14 14 14 14 14 12 13 15 17 19 20 22 22 17 17 16 18 20 18 19 20 20 20 19 19 18 16 15 15 16 16 19 15 8 8
9 11 13 14 13 9 10 11 13 14 14 14 13 11 10 11 14 18 17 19 18 15 16 15 16 16 16 16 18 19 21 17 19 19 17 17 17 17 17 17 18 16 13
9 10 10 12 9 10 12 14 16 15 13 14 13 10 8 8 16 14 14 15 14 15 16 15 16 17 16 16 17 18 20 19 20 19 19 20 19 18 16 16 18 17 15
12 11 8 8 12 12 10 12 12 14 15 16 12 8 5 9 12 12 12 14 16 15 16 15 16 17 17 16 18 18 20 20 21 21 21 22 22 18 18 17 17 15 14
13 14 10 8 10 11 11 10 12 13 13 13 13 7 5 12 11 11 11 12 12 13 15 15 16 17 17 17 19 19 19 19 19 20 21 22 24 20 18 18 17 15 14
13 13 8 11 11 10 11 9 13 12 12 14 13 11 10 11 10 11 10 10 11 12 12 14 14 15 17 16 18 19 19 20 19 19 19 21 22 22 21 18 17 15 16
10 6 8 11 12 12 11 11 10 14 16 15 13 11 11 10 9 8 9 10 10 11 12 13 12 13 15 15 15 17 17 18 18 18 18 20 20 22 21 20 17 17 14
13 12 10 12 13 13 14 14 11 14 14 14 12 12 12 12 10 9 9 10 10 10 11 12 13 11 13 13 13 15 15 17 18 18 17 18 18 21 18 18 17 17 17
11 12 12 12 13 15 15 14 15 14 13 14 15 15 13 12 11 11 11 11 10 10 10 11 13 11 12 12 12 15 15 16 15 14 13 15 16 18 15 16 16 16 17
14 12 12 13 14 15 15 16 16 14 13 13 14 15 13 12 12 11 11 10 10 10 11 12 13 12 12 11 11 15 17 14 13 11 10 11 14 15 12 13 15 14 15
18 17 15 15 14 15 15 15 15 16 11 12 13 13 13 12 13 12 11 11 11 11 11 12 12 12 11 9 11 15 15 13 11 9 8 9 10 10 12 11 12 12 14
15 16 17 17 17 16 16 15 14 12 13 13 14 12 12 13 13 12 12 12 12 11 11 11 10 12 11 10 12 15 13 12 10 7 7 9 10 9 9 11 10 11 11

GFSGL_925_spd_024.txt.gz
Wind_Speed
9 10 11 14 12 14 17 19 18 15 11 8 8 6 7 7 8 9 10 9 5 6 10 15 19 22 22 23 22 22 20 19 12 16 12 11 15 18 19 16 11 14 16
12 14 16 10 12 15 17 22 19 14 13 12 8 8 8 7 9 10 9 4 7 10 13 17 21 21 25 25 23 22 22 22 21 11 8 11 15 17 19 18 19 14 15
17 18 13 18 21 23 24 22 17 15 10 10 14 9 8 8 9 9 7 8 9 11 16 18 20 21 24 24 23 24 23 23 20 19 15 13 15 19 18 17 14 10 11
15 17 18 21 22 22 19 13 18 18 19 20 11 7 9 10 12 6 8 10 15 19 20 17 18 18 20 23 23 21 15 17 17 19 19 15 12 14 17 13 15 16 16
15 12 14 18 19 18 18 21 20 18 13 14 10 11 10 10 8 7 11 17 20 20 18 17 17 18 19 19 18 19 15 16 16 14 13 12 14 12 13 16 17 17 20
12 10 12 15 17 18 19 22 17 13 6 9 11 10 6 5 8 14 19 20 18 18 19 20 20 20 20 20 19 19 19 18 15 13 10 7 15 15 18 16 16 12 3
3 8 15 21 24 23 21 18 12 5 2 9 9 1 5 8 13 16 16 15 16 17 19 20 21 19 23 23 24 21 21 20 19 20 19 18 19 21 19 17 17 16 15
7 12 16 19 21 19 19 13 5 2 4 4 2 5 9 12 13 14 14 15 15 15 17 20 23 24 22 22 23 22 21 16 15 17 20 22 21 21 21 20 20 19 19
10 13 15 15 17 18 14 9 4 8 1 1 4 8 11 12 11 15 15 15 18 22 22 21 21 22 21 21 21 23 19 21 19 16 16 13 13 12 14 14 15 13 10
10 12 13 13 14 13 12 11 11 4 3 3 7 9 11 11 15 13 16 20 21 20 19 21 20 19 22 23 22 21 15 19 21 17 16 17 18 19 19 21 24 18 15
10 10 12 12 14 14 9 8 6 4 4 5 8 10 10 14 17 15 17 18 18 19 20 20 22 22 18 19 18 19 18 18 18 18 17 16 13 12 13 14 17 22 19
8 9 12 13 10 10 4 4 8 4 4 6 8 9 10 14 17 17 17 17 18 18 20 22 21 18 17 16 17 16 14 11 9 12 14 13 13 12 11 11 13 15 20
7 8 9 8 9 11 5 4 5 5 7 6 9 10 11 15 17 18 19 18 20 18 16 15 16 16 16 17 16 15 15 15 13 12 10 11 12 11 8 8 8 12 14
7 9 8 9 10 7 2 5 7 8 9 9 10 11 11 14 17 19 19 21 22 14 15 13 15 16 16 18 18 20 18 17 15 13 12 12 12 11 10 12 7 5 3
8 8 10 7 8 5 1 3 8 10 10 10 12 10 11 13 15 18 16 17 18 16 14 14 17 18 17 17 20 21 21 20 19 18 16 15 14 14 13 14 10 9 4
12 8 8 6 7 5 3 7 9 9 9 9 10 8 9 10 12 15 12 13 14 14 14 15 15 16 17 16 17 19 21 21 20 19 18 17 16 15 14 15 15 14 12
12 11 9 5 5 7 5 10 11 10 9 9 10 8 8 8 12 11 9 11 12 13 14 14 14 15 16 15 16 16 16 18 18 19 19 19 19 17 15 15 15 14 13
12 12 13 8 6 10 9 8 8 10 13 12 11 7 7 7 9 8 8 11 13 13 13 13 13 14 15 14 16 16 17 18 18 18 19 19 20 18 16 16 15 14 13
12 13 12 11 7 9 10 11 7 11 12 10 12 10 9 9 8 8 10 9 9 10 11 13 11 11 14 13 14 15 16 18 16 15 18 19 19 19 18 17 16 14 15
12 15 11 9 11 11 11 12 10 10 10 13 13 12 10 9 9 9 8 8 8 9 10 11 11 10 12 12 12 14 16 18 18 16 16 17 17 17 18 15 16 13 14
12 9 9 10 12 11 10 14 13 11 12 13 13 12 10 11 11 10 10 9 9 9 10 10 11 11 12 13 12 14 15 15 15 14 14 16 16 17 15 14 13 13 13
14 15 14 12 12 12 13 14 15 15 14 14 12 10 11 12 12 12 11 10 9 8 9 9 10 11 10 12 11 14 16 15 14 13 12 13 14 15 13 13 11 12 14
13 13 14 14 13 13 16 15 15 16 16 14 12 12 12 14 12 12 11 10 9 9 9 9 9 11 10 10 10 12 16 15 13 11 11 12 13 14 12 12 12 11 14
15 17 18 18 17 17 17 15 15 16 17 16 13 10 10 9 11 11 10 9 9 9 9 9 9 10 10 10 10 11 15 13 11 8 9 10 11 11 11 10 10 10 12
17 20 22 22 22 22 19 16 17 16 14 15 10 10 11 10 10 11 10 10 9 9 10 9 9 9 10 11 10 11 13 11 9 7 6 7 9 8 8 8 10 9 10
21 22 22 22 24 22 22 20 19 17 15 15 15 13 12 11 11 10 9 10 10 10 10 10 11 8 9 9 9 10 11 10 9 7 6 6 8 7 4 7 8 7 7

GFSGL_925_spd_027.txt.gz
Wind_Speed
8 11 14 16 18 16 18 21 22 23 17 13 10 11 18 15 11 9 9 13 11 9 10 11 14 17 20 22 23 22 21 18 10 18 21 20 15 12 13 15 16 16 14
10 12 13 11 14 18 21 22 24 20 16 16 16 16 15 16 11 11 13 11 9 11 13 15 19 19 20 21 21 22 22 22 20 16 19 18 15 17 17 18 17 16 14
5 8 12 14 15 17 19 21 21 21 20 23 20 19 20 13 13 12 10 9 10 13 17 19 18 17 19 20 21 23 22 20 18 18 17 20 19 16 12 13 13 12 11
9 12 11 13 14 16 17 17 20 24 24 22 15 11 7 13 13 9 8 10 15 19 20 18 18 18 18 20 22 21 17 20 17 15 14 15 15 14 12 12 12 12 15
9 7 8 11 14 18 22 22 23 21 14 10 9 9 7 13 7 8 12 17 20 21 20 20 20 19 20 20 20 21 23 19 17 14 12 9 12 14 14 7 11 12 15
7 6 8 13 17 21 20 18 16 10 10 8 3 8 5 3 7 12 15 17 19 19 22 22 20 20 19 21 22 20 21 22 19 17 16 13 15 17 15 16 13 9 2
5 7 12 13 17 18 17 15 10 7 3 5 7 2 4 7 9 13 14 16 17 18 18 21 22 19 23 23 22 21 21 21 21 23 19 17 17 22 20 17 16 13 12
5 9 11 14 17 17 15 9 6 5 6 6 2 2 6 9 9 11 13 15 17 20 22 20 21 23 22 21 24 22 23 22 19 17 19 20 21 21 20 20 19 17 17
7 11 14 16 16 16 12 11 7 9 7 4 0 5 9 8 11 10 13 17 20 21 19 21 19 20 20 22 25 25 26 24 21 17 17 18 18 16 13 13 14 12 8
11 14 13 14 15 16 13 9 8 5 5 2 3 5 6 9 11 12 14 17 19 18 22 21 18 18 21 20 22 19 21 22 18 18 17 17 15 17 19 21 22 17 13
15 12 12 14 14 12 10 7 7 5 5 1 4 4 5 9 12 12 15 16 18 19 19 19 21 19 21 18 17 19 17 17 14 14 16 16 14 11 12 14 19 23 18
13 11 10 9 7 8 5 3 5 3 1 3 4 4 5 8 12 13 15 15 17 18 17 19 18 19 18 17 17 18 15 14 15 13 12 12 12 12 11 11 12 15 19
15 11 9 9 8 8 6 3 2 0 2 3 4 6 6 9 11 14 15 14 17 14 16 15 15 16 15 16 17 17 17 19 17 16 13 13 13 13 12 9 9 13 16
12 10 10 10 9 7 4 2 1 2 3 4 6 7 8 9 12 16 15 15 17 16 16 13 14 15 15 15 17 18 18 19 18 17 16 15 14 13 11 10 5 4 5
11 13 12 9 7 6 5 4 4 5 6 7 9 9 9 9 11 14 13 14 16 16 13 12 16 19 19 18 19 18 20 21 21 20 19 18 16 16 14 13 9 6 2
14 17 12 10 8 7 6 6 5 8 8 7 8 8 8 8 9 11 9 10 11 13 11 12 14 16 18 16 17 17 19 20 20 19 18 18 17 17 15 14 14 12 12
17 15 11 10 9 5 7 10 9 10 9 7 7 7 8 8 7 7 7 8 10 10 11 10 11 13 15 14 16 15 16 18 15 16 17 18 17 16 16 15 15 13 12
16 13 12 12 15 10 8 12 10 10 11 12 8 7 6 7 7 6 7 9 10 9 9 10 10 10 13 12 14 15 17 17 16 15 17 17 18 16 16 16 14 15 13
14 13 12 14 15 15 9 10 12 11 11 11 11 10 9 8 9 8 8 8 8 8 8 8 9 9 11 11 11 13 13 15 14 13 15 16 17 16 16 14 14 11 12
18 13 13 14 11 14 14 14 15 13 13 12 14 13 12 10 11 9 9 9 8 8 7 7 8 9 9 10 10 13 13 15 14 13 13 14 14 14 14 14 13 13 13
20 12 13 14 13 13 14 12 14 14 16 16 13 11 12 12 12 11 11 11 10 9 8 7 7 9 8 9 9 11 13 13 12 12 12 13 13 14 12 12 10 11 12
20 15 15 15 13 12 14 13 14 15 17 16 16 14 13 13 14 13 12 11 10 9 9 8 8 8 8 9 9 9 12 13 12 11 10 11 11 12 11 11 10 10 13
18 15 14 15 14 14 16 16 16 16 17 17 18 17 13 14 14 14 12 10 9 9 9 9 8 7 8 8 9 8 11 12 11 10 9 10 11 11 10 9 9 10 12
19 17 18 19 20 20 20 20 20 18 17 18 18 16 16 14 13 13 12 11 10 10 10 10 10 9 8 8 8 7 10 10 10 8 8 9 10 9 9 8 8 8 9
20 21 21 22 23 23 24 24 23 22 20 18 17 15 14 13 14 13 13 12 11 10 10 10 10 10 9 8 8 8 9 9 9 7 7 7 8 8 6 7 7 6 7
22 22 25 26 26 26 25 26 26 23 24 22 20 19 18 18 16 14 13 13 13 12 11 11 11 11 10 9 8 8 8 9 8 8 7 6 7 7 5 5 6 6 6

GFSGL_925_spd_030.txt.gz
Wind_Speed
7 9 10 12 11 14 15 15 16 17 19 21 22 19 19 16 15 16 18 16 15 12 11 12 15 17 22 23 24 23 22 19 15 24 24 26 27 25 23 17 17 19 21
6 6 6 9 10 10 12 13 16 20 22 23 20 17 13 17 14 14 15 18 12 11 12 15 20 24 23 22 21 22 22 22 20 20 24 24 23 22 17 20 18 16 16
5 7 8 7 8 10 14 18 23 24 24 20 14 12 13 7 5 9 16 12 11 13 17 21 23 22 23 24 23 23 23 21 20 20 24 22 22 22 23 20 17 16 14
5 5 5 6 9 14 19 23 24 23 19 13 12 13 9 7 7 12 8 10 15 19 22 21 21 23 23 25 24 21 20 20 20 21 20 18 17 20 17 16 17 15 15
8 7 5 8 13 19 23 22 22 18 12 12 11 7 5 7 3 4 10 16 19 21 22 22 23 21 23 23 23 21 22 21 19 17 18 18 16 13 13 11 13 12 16
10 6 6 11 17 20 20 20 18 13 11 7 5 6 3 3 3 9 14 16 19 21 23 22 24 22 20 20 23 23 23 23 20 19 19 17 18 18 20 17 13 9 4
7 5 10 15 18 17 17 16 11 7 6 8 8 1 2 6 9 12 14 17 18 21 22 21 18 17 20 22 22 22 24 23 21 23 21 14 15 16 20 18 17 15 12
4 9 13 15 16 16 16 13 12 8 8 9 2 1 4 7 10 11 12 16 20 20 19 17 19 20 21 20 26 23 22 23 23 21 20 22 22 22 21 23 20 17 17
10 12 14 13 16 18 20 17 14 12 10 6 4 4 6 8 10 11 12 15 17 19 18 19 16 17 19 23 24 19 20 21 19 16 18 19 19 20 20 18 13 14 11
11 14 13 13 16 19 19 17 13 9 8 7 4 5 7 8 10 10 11 15 18 19 21 19 17 16 21 21 20 20 19 16 18 19 18 16 16 17 18 19 21 15 7
16 17 15 13 15 13 15 12 11 8 6 5 5 6 7 7 9 10 11 14 17 19 18 19 19 18 19 20 18 19 18 18 17 16 15 13 13 13 12 13 17 23 18
18 19 15 12 14 13 13 8 3 4 4 5 7 7 7 7 8 10 11 12 13 15 18 19 18 18 18 17 17 18 17 17 18 17 16 14 15 16 14 13 13 15 19
16 15 11 12 14 14 14 11 7 4 5 7 8 8 9 7 7 9 12 10 14 15 16 14 14 15 15 15 15 16 17 18 18 17 16 16 18 16 14 13 11 12 16
12 10 12 15 12 12 10 7 6 6 7 9 9 10 10 9 7 8 11 11 14 15 16 13 13 14 14 14 17 17 18 18 16 17 17 19 17 17 16 15 9 6 4
11 11 16 19 13 10 9 9 9 8 10 12 12 11 12 11 8 8 10 11 12 14 15 12 14 18 19 18 20 18 19 20 20 20 20 19 18 18 19 19 15 11 6
13 14 17 17 12 11 9 10 11 10 11 12 12 12 11 11 9 8 8 8 9 12 12 12 13 15 17 16 17 18 19 21 19 18 18 18 17 17 18 19 17 13 11
17 18 17 14 12 12 11 9 12 14 12 12 11 10 11 10 9 8 7 8 9 10 10 11 11 12 14 14 14 16 17 19 16 16 17 18 18 16 17 16 16 15 12
16 18 16 15 14 15 18 15 11 14 15 15 10 11 10 10 10 9 8 9 9 8 9 10 11 11 12 12 12 14 14 16 16 15 16 16 17 15 15 15 15 15 14
16 19 20 16 14 16 18 20 17 14 17 16 14 13 11 11 11 11 10 11 11 9 9 9 10 10 10 11 10 11 12 13 13 12 13 14 15 14 14 14 14 14 13
19 22 21 16 15 15 13 18 20 19 21 20 18 16 12 11 15 14 12 13 13 12 10 11 9 9 10 10 10 10 12 13 12 12 11 12 13 13 13 14 13 13 14
21 21 24 17 15 16 16 17 16 17 17 17 18 18 15 14 15 15 14 14 14 13 12 12 10 10 10 10 10 10 11 12 12 11 11 11 12 14 13 12 11 11 14
22 24 24 20 18 17 17 17 18 18 18 19 20 17 17 18 18 17 18 17 14 13 12 13 12 11 9 10 10 10 9 11 12 11 9 10 11 12 12 12 11 11 13
21 23 24 21 20 18 18 19 21 22 22 21 19 19 18 20 20 18 19 17 15 15 14 14 13 12 10 10 10 9 9 10 11 11 10 10 11 11 11 11 11 11 12
21 22 23 23 22 22 23 26 27 26 25 24 23 22 21 20 20 20 19 17 16 16 15 15 15 13 11 11 10 10 9 9 10 9 9 9 10 11 9 10 11 9 10
24 20 21 23 22 26 27 27 28 28 27 27 26 25 23 21 18 19 18 18 18 17 16 15 15 14 13 12 11 10 9 9 9 9 8 8 8 9 8 7 9 9 9
21 21 21 22 24 24 24 24 26 28 29 28 26 25 25 24 22 21 20 17 18 18 17 16 15 14 14 13 11 10 9 9 8 9 8 7 6 7 7 6 6 8 7

GFSGL_925_spd_033.txt.gz
Wind_Speed
1 2 2 3 5 8 8 11 14 18 22 24 22 20 14 11 10 12 11 10 9 12 11 11 13 14 17 18 18 19 18 19 19 29 27 27 27 26 26 24 23 22 22
3 5 3 5 6 8 10 13 18 21 21 19 17 13 8 10 13 11 4 5 11 11 10 12 17 19 20 20 19 20 19 21 23 27 28 27 25 25 24 23 20 22 20
2 3 6 6 6 7 11 17 20 19 19 16 11 7 7 8 5 5 8 10 7 8 13 17 19 19 21 21 22 23 22 21 22 24 29 27 26 22 22 21 22 22 20
4 6 6 5 6 9 14 18 20 20 14 12 9 9 7 5 5 6 5 5 9 12 15 16 18 18 20 22 22 22 21 20 21 24 26 25 23 21 20 19 19 18 17
7 8 7 5 8 12 17 19 19 15 10 8 6 5 5 3 3 4 6 9 12 15 15 16 17 19 20 19 20 21 21 22 21 21 22 22 21 19 18 17 16 16 16
9 8 6 7 10 16 17 16 14 9 7 4 6 6 1 2 4 8 11 11 13 14 17 18 17 15 15 18 18 18 18 20 22 22 22 21 22 23 19 18 17 16 10
8 5 5 8 14 15 14 13 12 9 8 6 8 3 1 2 8 11 14 11 13 15 16 17 16 16 16 16 17 22 21 20 22 24 24 24 23 19 17 18 17 17 19
4 5 7 13 13 12 13 15 13 11 10 8 5 4 2 5 9 11 13 11 13 14 15 15 16 17 16 17 22 21 18 18 19 17 19 22 22 20 19 20 20 20 17
5 7 12 12 10 11 14 15 13 10 8 9 6 5 5 6 9 10 11 12 14 16 15 16 15 16 16 20 20 19 19 19 16 19 20 21 21 21 20 18 18 16 13
7 11 13 12 10 10 12 14 13 9 8 6 6 6 7 8 9 10 10 12 15 16 16 15 14 15 18 19 19 18 18 19 21 20 18 16 13 14 15 16 17 17 18
10 13 14 12 10 11 13 11 12 9 6 6 7 7 9 9 8 10 10 11 13 16 16 17 15 16 18 17 16 13 17 19 17 16 15 14 13 12 11 10 12 15 17
13 13 12 9 9 11 11 12 10 7 5 5 8 9 9 10 10 10 10 11 11 14 15 15 15 17 16 15 13 15 15 14 14 14 14 14 14 14 13 13 13 14 15
14 10 9 9 11 11 10 11 10 8 6 7 8 9 9 8 8 10 10 12 10 12 13 15 14 15 15 11 13 12 12 12 13 14 14 15 15 15 15 13 12 10 13
12 9 8 9 13 12 10 9 8 8 8 8 10 11 11 9 9 8 8 10 11 11 13 12 11 12 12 10 11 11 11 11 11 12 14 15 14 15 14 15 11 9 3
10 9 10 11 12 12 10 10 10 11 10 10 12 12 12 12 11 9 8 10 10 11 13 9 9 10 11 11 11 11 12 13 12 12 14 15 15 15 15 15 14 11 10
10 10 12 12 12 11 11 12 12 13 13 14 14 14 14 16 14 12 10 10 10 12 9 9 9 9 10 11 11 12 11 13 12 12 12 13 14 14 15 14 13 13 12
10 12 13 14 13 11 11 12 13 11 12 14 15 15 15 15 14 13 11 11 11 10 8 8 8 8 9 9 10 10 12 12 12 10 11 12 13 12 13 12 12 12 11
11 13 15 14 15 13 12 13 14 15 13 12 12 14 14 14 14 15 12 11 11 10 9 9 8 8 8 8 9 9 11 11 11 11 10 11 12 11 12 12 12 12 12
14 13 14 16 16 16 13 12 14 15 16 15 15 14 16 15 14 15 14 14 14 12 10 10 8 8 8 8 8 7 8 10 11 10 9 10 11 11 10 10 10 11 11
14 17 17 16 16 15 14 13 12 13 15 16 17 18 13 14 12 13 16 16 15 15 13 12 10 8 8 8 7 8 8 8 9 9 9 9 9 9 9 9 10 10 11
11 13 17 18 15 16 15 14 14 15 16 16 16 15 15 16 16 15 14 15 18 16 14 12 11 10 9 9 8 7 7 7 8 8 8 8 9 9 9 8 8 8 9
17 15 14 15 16 15 16 16 15 15 16 17 17 16 18 20 17 17 17 17 19 20 18 16 13 11 10 9 8 7 7 7 7 7 7 8 8 8 9 8 8 8 9
20 19 17 15 16 16 17 19 18 18 19 19 18 18 16 17 18 20 20 22 21 20 20 19 18 16 14 13 12 10 8 7 7 9 8 7 7 8 8 8 9 8 8
17 19 18 18 15 16 16 18 19 22 25 22 22 22 21 21 20 21 23 22 22 20 20 20 19 17 16 14 13 11 10 9 8 8 8 7 7 7 7 6 7 7 7
19 19 19 19 19 17 17 17 18 19 21 23 23 23 24 23 24 24 22 22 21 20 20 20 20 18 17 16 14 12 11 10 8 8 7 7 7 7 6 5 5 6 6
18 19 19 19 19 19 19 19 18 18 18 21 22 22 22 22 23 24 23 22 22 21 19 20 20 19 17 16 15 13 11 10 9 8 7 6 6 5 5 4 4 4 5

GFSGL_925_spd_036.txt.gz
Wind_Speed
6 4 3 2 1 2 4 6 10 15 19 21 21 21 19 17 13 11 14 15 13 12 14 15 16 17 20 23 25 26 27 27 23 34 32 30 29 29 28 25 26 28 27
6 7 4 1 3 3 5 8 13 17 18 18 17 16 14 12 12 12 12 9 10 13 13 14 18 21 23 24 24 25 26 28 26 30 30 28 27 27 28 26 25 26 26
8 5 3 4 4 5 7 10 14 16 16 14 13 12 11 11 10 7 8 8 9 10 14 18 20 21 22 22 24 25 24 25 24 25 28 27 27 27 26 23 23 24 24
6 4 5 5 5 5 8 12 14 14 13 12 11 9 8 7 5 5 5 8 12 14 16 17 18 18 20 21 22 22 21 22 22 24 26 26 24 23 23 22 20 21 21
5 6 6 6 6 6 10 13 13 12 11 10 8 7 7 4 2 4 8 12 15 15 15 16 17 16 17 15 17 20 20 20 20 22 23 23 23 21 20 22 21 21 20
6 7 6 6 6 8 12 13 13 12 12 11 10 9 7 4 5 7 10 14 14 14 15 17 16 15 14 18 16 17 19 23 24 24 25 23 26 24 23 20 20 18 10
6 6 6 6 8 11 12 13 14 14 13 11 11 10 9 6 8 9 13 13 13 13 15 16 16 15 16 17 18 20 23 20 21 22 25 24 23 24 22 22 22 21 20
6 6 6 8 11 12 12 13 13 13 12 11 10 10 9 8 9 10 13 11 12 13 14 15 16 17 16 17 21 22 21 21 21 19 21 24 25 25 24 21 21 23 22
6 7 9 11 12 12 12 12 13 13 13 11 11 10 10 9 11 10 10 11 12 14 14 15 15 16 15 18 20 21 21 19 17 18 21 23 23 23 20 19 20 18 17
6 8 10 11 13 13 12 13 14 13 13 11 11 10 9 9 11 9 9 10 12 14 14 14 13 12 16 19 18 19 19 20 22 22 20 18 17 17 15 16 17 17 16
7 10 11 12 12 12 13 13 14 13 12 10 9 9 10 11 10 11 9 8 11 14 15 15 14 15 17 18 17 15 17 22 20 19 17 17 15 15 16 15 14 14 16
9 12 12 10 10 10 13 15 14 13 11 10 9 10 13 11 11 10 10 10 10 11 14 14 16 18 18 17 14 16 16 15 16 15 15 15 16 16 17 17 18 18 16
11 12 12 11 10 12 15 15 14 12 11 11 11 12 13 10 10 11 11 10 10 11 12 15 17 16 15 13 11 13 13 13 14 14 14 16 17 17 18 17 17 12 13
12 12 11 11 11 15 14 14 13 12 11 10 11 12 13 11 10 9 8 8 8 10 11 14 14 13 12 11 10 10 11 12 12 13 14 15 15 16 16 17 17 16 10
11 11 10 11 13 15 14 14 13 13 12 11 13 12 11 12 9 8 11 10 9 10 13 11 11 11 11 10 9 9 10 11 12 12 13 15 15 15 16 16 15 15 14
10 9 10 12 15 15 16 14 14 15 15 16 16 17 15 16 16 15 14 11 10 10 10 12 11 10 10 10 9 10 9 11 11 12 12 13 14 15 16 15 14 13 13
9 10 11 13 14 15 16 16 15 12 15 15 17 18 19 18 16 16 15 13 11 10 11 12 11 11 10 10 9 9 9 10 10 11 11 12 13 14 14 13 13 13 13
9 12 13 14 14 14 16 18 15 14 15 15 15 14 15 18 17 16 16 14 12 13 11 12 12 11 11 10 9 8 9 9 9 10 10 11 11 12 12 12 12 12 13
12 14 15 17 17 16 17 18 16 14 15 17 15 15 16 17 18 17 15 17 16 15 14 13 12 11 11 10 9 8 8 8 9 9 9 9 10 11 11 11 11 11 11
16 17 16 16 17 18 17 17 18 15 14 15 15 16 15 11 13 15 17 18 17 17 15 14 13 12 11 10 9 8 8 7 7 7 8 8 9 9 9 10 11 11 11
18 18 17 17 17 16 16 17 17 16 15 16 16 15 15 16 17 17 18 16 16 17 17 15 13 12 11 11 10 8 8 7 7 6 7 7 7 8 8 8 9 9 10
18 19 19 19 21 17 15 16 18 18 17 18 18 16 17 17 18 20 20 20 20 19 17 17 15 14 12 12 10 9 8 7 6 6 6 6 7 7 7 8 8 8 9
17 17 19 20 21 22 17 16 17 19 20 20 20 19 18 19 20 20 21 22 23 21 19 17 17 16 14 13 12 11 9 8 7 6 5 5 5 6 6 7 7 7 8
14 15 18 20 20 20 19 18 17 18 20 21 22 22 23 24 25 26 26 25 24 23 23 19 18 18 16 15 13 12 10 9 7 6 6 4 5 5 5 5 5 6 6
17 18 18 18 18 18 18 19 19 18 19 20 20 21 23 25 26 27 28 27 25 23 22 20 17 17 19 18 16 14 12 12 9 8 6 5 5 5 4 4 4 5 5
16 15 17 19 19 19 18 18 18 18 17 17 18 20 21 22 23 24 24 25 24 21 21 19 17 19 19 18 18 17 16 13 11 9 7 6 6 5 4 4 4 4 4

GFSGL_925_spd_039.txt.gz
Wind_Speed
11 9 6 7 6 5 4 4 7 9 13 15 16 17 17 17 14 14 16 17 15 12 12 13 13 15 18 21 23 24 24 25 21 28 30 30 29 29 29 28 29 29 30
11 7 8 9 6 5 5 6 8 12 14 15 15 15 15 15 14 12 11 10 11 11 12 13 17 19 21 23 24 25 26 28 27 27 29 28 28 27 29 29 28 28 27
7 8 11 9 7 7 8 8 10 13 14 15 14 14 14 13 11 10 9 8 10 12 15 16 19 19 20 21 22 24 26 26 25 22 25 25 26 26 27 27 26 25 25
9 12 8 7 8 8 8 9 12 14 14 14 13 12 12 13 11 9 8 9 13 15 16 16 16 17 17 17 22 21 22 24 23 22 23 24 25 25 25 25 23 23 24
11 9 6 7 7 8 8 11 13 14 14 14 13 12 12 12 8 5 8 12 15 17 15 15 15 15 17 15 14 21 21 22 21 22 23 23 22 23 23 25 25 25 23
9 7 7 6 8 9 10 12 13 14 15 16 13 13 12 13 9 9 9 11 16 16 14 15 15 16 13 17 15 13 18 23 25 25 23 22 27 25 22 23 24 22 12
8 7 6 7 9 10 12 13 13 14 15 16 11 12 14 10 11 10 10 12 15 13 13 15 16 15 16 16 17 20 21 22 23 24 25 24 23 24 26 26 25 23 23
6 6 7 8 11 12 13 13 14 14 15 16 10 9 13 12 12 12 12 13 13 13 13 14 15 15 14 13 18 20 21 21 20 20 20 24 26 27 25 25 26 26 24
5 6 7 10 12 13 14 15 14 15 15 14 11 11 13 11 11 12 12 12 12 13 13 14 13 15 14 19 17 19 21 21 19 20 22 23 25 27 27 26 24 19 17
5 7 9 11 13 14 15 15 15 15 16 13 11 11 12 9 10 12 12 10 11 12 13 13 12 8 13 15 16 18 20 20 23 24 22 21 20 19 18 16 20 20 18
7 8 10 12 13 13 14 14 15 17 15 12 10 10 11 10 12 12 11 9 10 12 13 13 12 14 18 17 15 15 16 21 20 20 19 18 18 17 17 18 19 20 20
7 10 12 13 13 13 14 14 16 16 16 12 10 11 12 13 14 14 15 12 11 11 13 13 13 18 18 16 14 13 19 16 16 17 17 16 16 17 19 21 22 22 21
9 12 13 14 14 14 16 16 15 17 15 11 10 11 12 14 11 12 15 13 10 10 12 13 16 15 14 13 10 15 13 13 15 15 15 16 16 18 19 20 23 23 23
11 13 14 14 14 15 17 16 14 14 14 11 11 12 14 13 12 11 11 11 10 11 12 9 15 14 13 13 12 11 11 11 13 15 15 16 16 16 17 18 21 22 20
12 13 13 13 14 16 16 17 14 13 14 14 13 13 14 13 13 12 8 9 10 9 12 12 12 10 12 11 11 11 11 11 12 12 14 15 16 16 16 18 17 19 16
11 11 11 12 15 15 17 17 17 18 17 20 21 21 20 16 17 17 17 16 15 12 11 13 13 10 10 11 11 11 10 10 11 12 13 13 15 16 16 15 15 15 16
11 11 11 12 13 14 15 17 17 18 18 18 20 21 21 22 19 18 17 17 15 13 12 14 13 11 10 11 11 10 10 9 10 11 12 12 13 14 16 15 14 14 14
14 14 14 14 15 14 16 18 19 20 18 16 14 19 21 21 19 19 19 17 16 18 17 16 14 12 11 11 10 10 9 10 10 10 11 11 12 12 14 14 14 14 14
16 17 16 17 17 18 20 21 19 22 22 20 16 16 18 20 21 20 19 19 19 18 15 16 16 13 12 11 10 8 8 9 9 9 10 10 10 11 11 12 13 14 15
21 21 21 21 20 17 17 18 20 21 20 20 17 15 15 14 14 16 21 24 22 21 18 17 16 15 12 11 10 9 9 9 8 8 8 8 9 10 11 11 11 13 13
24 23 20 19 19 20 20 20 20 20 20 19 19 17 18 16 16 17 16 18 23 22 19 18 18 16 14 12 12 11 10 9 8 7 8 7 7 9 9 10 10 10 11
25 23 20 20 21 20 20 23 23 20 18 20 20 18 19 20 20 20 19 20 21 20 20 19 19 17 16 15 14 12 11 10 8 8 7 6 7 7 7 8 9 10 10
23 22 22 20 18 20 22 22 23 19 18 20 20 21 19 20 21 22 22 24 24 23 23 23 23 21 19 19 17 15 13 11 9 8 8 7 6 6 6 7 7 8 9
23 22 21 19 20 20 21 22 22 21 22 19 18 19 20 21 23 25 27 27 27 28 26 26 25 24 23 22 20 18 14 12 10 9 9 7 6 5 5 6 6 6 7
26 25 21 18 17 18 21 21 20 19 19 19 19 18 18 18 20 21 24 25 27 28 27 26 27 24 25 24 21 20 16 16 14 10 9 7 7 6 5 5 5 6 5
26 22 18 13 12 15 15 16 16 17 17 17 17 18 18 19 20 21 22 22 22 23 26 25 24 25 24 22 24 21 19 20 17 14 11 8 8 7 6 5 5 5 4

GFSGL_925_spd_042.txt.gz
Wind_Speed
17 15 14 14 9 9 9 5 5 4 5 8 10 12 12 12 14 15 14 14 11 12 11 12 13 15 17 14 15 18 20 20 16 24 25 25 26 24 25 27 27 29 30
15 15 15 11 13 12 8 7 5 5 7 9 11 13 12 11 10 13 14 11 12 10 12 13 15 15 18 18 19 18 20 24 23 23 25 24 22 24 25 27 26 25 28
16 13 15 16 13 8 7 5 5 6 8 10 12 12 11 8 12 12 13 10 9 10 13 13 14 16 17 15 15 20 21 20 22 22 24 24 23 25 25 25 27 27 23
14 18 17 13 10 5 5 5 6 8 10 12 12 12 10 9 12 15 8 4 11 14 15 16 15 14 11 16 16 16 17 19 21 21 22 23 24 25 25 23 21 24 25
16 14 11 5 2 4 5 6 8 9 11 13 15 14 10 8 13 7 6 6 9 14 16 14 13 15 18 16 14 14 14 17 19 20 21 22 21 22 21 21 22 23 26
13 8 1 0 3 4 5 7 10 11 12 12 13 13 8 10 13 11 10 8 10 13 16 12 13 15 12 12 7 10 14 19 20 20 22 20 24 22 18 21 22 21 14
6 1 3 4 5 5 8 9 10 10 12 12 16 16 11 11 14 14 13 8 11 11 14 12 13 13 15 15 16 19 22 18 20 23 23 19 21 22 25 25 23 23 23
5 4 3 4 5 6 8 12 12 12 10 14 15 10 9 13 17 14 12 10 9 12 13 11 13 12 15 14 18 24 18 19 20 22 20 22 24 27 28 27 28 27 29
4 5 3 4 6 7 10 13 13 13 12 14 15 11 9 14 12 12 11 10 10 11 12 12 14 12 13 16 19 19 18 19 18 20 24 22 24 25 25 25 22 19 19
6 7 10 8 9 11 14 13 12 13 14 15 10 8 9 10 11 11 11 8 10 11 12 11 15 9 10 14 16 16 18 19 22 26 22 22 23 22 18 17 18 18 18
3 7 9 10 12 12 12 14 14 15 18 17 13 11 11 11 10 14 14 13 12 10 11 11 11 10 16 21 13 14 15 19 19 21 21 22 19 19 20 21 22 22 23
7 7 10 14 14 16 15 14 15 18 13 13 12 9 12 12 15 18 19 16 12 13 13 13 13 16 20 14 12 12 15 15 15 17 21 19 19 20 22 24 23 23 25
7 10 12 14 16 16 14 15 16 19 12 11 12 11 11 11 17 16 18 17 15 14 12 12 15 15 16 15 11 14 14 13 13 16 18 19 21 22 22 22 24 24 25
10 12 14 15 14 14 16 18 18 15 9 10 11 12 13 15 17 11 11 16 17 15 14 14 10 18 15 14 13 10 10 12 12 14 14 19 20 21 20 21 23 23 22
11 13 13 13 15 15 16 16 15 14 12 14 14 15 16 15 16 14 14 11 12 11 10 13 16 16 13 10 11 11 10 11 11 11 15 17 18 19 20 22 19 20 17
12 12 12 13 13 14 14 18 20 19 19 21 23 24 25 24 22 20 17 17 17 16 14 11 14 18 14 9 11 13 10 10 8 14 13 15 16 17 20 22 18 17 16
14 14 15 15 15 15 15 17 18 19 19 21 22 26 25 24 23 21 19 17 18 15 17 16 17 18 15 12 12 13 10 7 9 10 11 14 14 16 17 18 19 18 16
18 18 20 23 22 19 15 19 20 20 20 21 24 23 24 21 21 23 21 19 19 19 22 20 20 18 16 14 13 12 7 7 10 9 11 12 12 14 17 15 17 18 19
21 23 24 25 24 23 23 23 21 19 21 22 22 21 21 20 20 22 21 23 21 20 20 24 24 21 19 16 14 12 10 10 11 13 10 10 11 11 14 14 14 17 19
24 25 26 27 24 22 22 20 19 19 20 20 20 21 20 17 18 21 24 26 24 24 24 22 20 20 18 16 14 12 11 11 13 11 8 8 9 10 13 13 14 13 15
24 26 28 29 24 19 19 20 20 20 18 23 24 21 21 23 20 20 18 22 26 26 25 24 23 23 21 20 18 16 14 13 12 11 10 9 8 9 11 11 12 12 13
26 28 28 26 23 21 20 21 19 22 22 21 24 16 19 22 24 23 24 22 23 22 22 25 24 25 23 22 21 19 17 17 14 12 11 10 9 8 9 9 11 10 11
27 29 27 30 28 23 21 21 18 19 21 22 22 20 18 19 21 25 25 25 25 25 24 24 24 26 24 24 23 21 20 18 15 14 13 12 9 8 8 7 9 9 8
29 30 29 29 23 20 18 16 16 18 21 20 19 19 18 18 17 18 21 23 26 27 28 28 27 28 28 26 25 23 23 21 16 16 15 15 11 8 7 6 6 8 7
30 29 26 26 29 20 10 7 8 12 15 18 17 16 16 18 17 17 17 18 19 19 22 27 29 30 28 29 26 24 24 21 20 18 15 12 11 10 9 6 5 7 7
30 27 24 24 19 4 7 9 11 13 15 18 19 20 20 20 19 19 20 19 17 18 19 18 22 26 28 28 24 23 24 22 21 21 17 12 9 9 7 8 7 5 5

GFSGL_925_spd_045.txt.gz
Wind_Speed
26 22 19 15 15 12 5 5 11 7 6 5 6 8 9 9 11 13 15 11 11 13 9 8 10 8 9 11 10 10 11 14 11 18 20 20 24 23 25 26 26 26 24
24 19 17 16 11 7 8 10 10 13 8 5 6 8 9 9 8 10 12 11 9 7 8 10 7 9 12 11 11 11 15 18 15 16 22 24 24 25 25 26 28 26 27
23 19 13 12 8 10 10 11 14 9 6 5 8 10 12 11 8 13 11 11 6 4 6 10 13 12 10 10 12 17 16 16 16 19 23 24 23 25 27 26 25 23 23
20 15 11 12 13 5 10 11 8 5 5 8 10 12 15 14 10 11 10 10 8 8 10 13 13 7 9 14 15 13 11 12 17 19 20 20 21 24 23 23 18 23 25
19 12 11 14 8 10 1 9 6 7 9 13 13 13 12 9 8 11 12 10 10 9 10 10 9 10 13 13 8 9 9 13 17 19 17 18 20 20 19 15 21 23 28
14 10 17 16 6 9 12 5 6 12 12 10 9 12 14 12 11 13 12 12 10 9 11 9 12 10 11 8 4 7 11 16 20 18 18 17 21 18 22 22 21 20 11
19 18 12 5 5 2 2 6 10 14 14 14 12 15 18 16 14 14 14 13 11 9 9 10 9 9 13 12 14 17 19 21 14 17 22 19 18 20 24 24 23 21 22
19 15 10 9 2 2 3 11 12 12 13 14 14 15 15 14 13 15 15 12 11 10 11 9 10 14 13 13 15 17 22 19 15 15 18 24 22 21 24 24 26 28 27
17 17 15 11 10 8 9 9 13 16 14 14 15 16 12 12 13 13 15 14 11 11 12 12 11 12 13 12 16 20 22 20 13 14 16 17 18 20 19 19 16 17 18
20 13 11 10 7 11 16 15 15 16 21 19 16 13 14 15 14 13 14 13 14 14 12 10 11 12 11 13 17 18 16 16 17 19 19 20 19 18 17 17 19 17 19
14 10 1 8 15 16 14 15 19 18 17 19 20 15 14 15 14 15 16 17 19 15 13 14 14 13 11 13 16 13 13 13 17 17 18 20 19 21 20 21 21 21 20
1 6 10 12 14 16 17 20 20 17 20 21 15 13 13 15 16 16 17 19 19 16 16 15 14 14 16 17 13 12 13 14 16 17 17 19 20 22 24 22 21 21 20
4 9 13 14 13 15 19 17 15 18 20 25 17 15 16 16 16 15 17 17 21 19 19 17 13 13 15 17 15 15 15 17 14 16 17 15 18 20 21 21 22 20 22
8 10 13 15 16 13 17 16 18 18 11 11 14 18 19 18 18 20 19 16 16 18 21 19 17 16 15 15 15 12 12 11 12 10 11 16 17 18 22 21 23 23 20
12 14 15 14 16 16 15 15 14 14 15 16 18 19 22 23 23 20 19 18 17 18 18 19 19 16 18 16 15 14 12 12 11 10 13 12 16 17 20 21 20 19 17
15 15 18 19 18 19 21 23 18 18 18 17 22 22 25 27 26 20 19 19 18 16 16 19 20 18 18 20 18 15 13 13 10 8 8 11 13 16 18 19 19 18 16
19 21 20 21 23 24 25 25 26 27 24 24 22 22 22 23 25 27 23 23 20 18 21 22 22 22 21 20 19 16 15 13 9 8 9 12 11 14 15 17 17 17 16
21 24 25 27 29 30 32 31 30 28 24 26 29 24 24 22 22 24 22 24 21 21 20 23 26 26 25 23 21 18 15 13 11 11 11 10 9 11 13 15 17 16 16
24 27 29 32 34 36 32 29 29 30 30 27 28 29 25 25 22 23 23 26 23 24 27 24 23 27 27 26 23 20 19 16 13 11 11 10 9 9 11 12 14 15 15
23 24 26 26 27 27 27 28 24 20 19 23 24 26 27 27 24 25 27 26 25 28 27 29 29 29 27 25 24 20 20 17 14 11 11 10 8 8 10 10 13 14 15
25 27 26 26 26 27 27 25 24 18 16 18 19 26 25 28 24 24 26 28 28 29 29 29 29 28 29 28 26 23 22 21 16 13 12 12 10 10 9 9 10 10 10
25 27 28 28 28 28 27 28 28 22 21 22 23 24 23 18 22 20 22 26 28 27 27 26 27 27 28 28 28 25 25 23 20 16 15 14 12 10 7 8 7 8 8
31 30 31 30 27 28 27 29 28 19 22 16 20 25 24 22 22 24 20 24 28 27 25 26 26 26 26 27 30 27 27 26 23 19 17 15 14 11 8 8 5 6 7
27 26 29 32 28 26 28 30 31 17 2 8 11 14 16 18 17 18 17 14 14 18 22 26 28 27 27 27 29 30 27 25 21 20 18 16 16 12 10 8 6 4 4
27 27 27 28 26 27 27 25 23 20 17 16 16 17 19 20 21 21 20 19 17 17 16 17 18 23 26 29 30 29 28 24 23 22 19 17 15 14 13 9 8 4 4
26 24 26 25 26 27 25 24 21 20 19 20 20 20 20 19 20 19 22 24 25 23 19 17 17 16 19 21 25 28 27 22 24 23 18 17 14 14 13 8 6 6 4

GFSGL_925_spd_048.txt.gz
Wind_Speed
28 29 28 25 23 21 17 14 12 4 8 9 9 8 9 11 10 11 12 12 9 10 7 7 8 3 6 8 9 9 6 7 7 14 22 24 28 30 27 24 24 22 21
31 30 28 27 20 14 10 9 5 6 5 13 9 7 9 10 11 13 12 10 10 9 9 5 4 7 11 12 9 8 9 8 9 13 22 27 30 28 25 25 25 23 21
36 34 29 22 14 10 15 14 4 5 13 8 5 9 10 12 15 15 13 11 13 13 10 8 10 11 13 10 10 12 9 9 12 16 21 26 26 25 25 25 24 20 26
31 28 25 18 17 21 15 7 8 9 8 5 9 10 11 13 16 14 14 15 14 15 12 10 15 12 9 10 12 10 8 11 14 19 21 21 20 24 22 20 19 24 29
29 25 20 21 21 15 12 12 0 5 3 8 11 10 13 15 14 16 17 15 15 14 13 11 11 10 11 12 10 9 8 11 16 21 17 17 17 17 18 20 22 24 30
26 21 20 20 21 15 8 5 6 1 10 15 12 18 16 15 15 17 16 15 16 16 14 11 11 12 13 13 11 8 9 11 16 18 15 14 15 16 21 22 22 19 10
20 22 24 17 14 14 12 10 6 10 14 18 18 17 17 16 15 16 16 16 17 17 14 11 12 11 12 12 10 10 12 15 19 17 19 18 20 23 23 24 21 20 20
27 24 20 18 16 13 8 2 8 13 18 13 16 18 16 17 16 15 16 18 18 16 13 13 14 14 15 12 11 12 16 20 17 13 13 18 19 21 21 23 24 20 20
24 23 20 17 13 3 9 12 15 12 10 11 16 18 18 18 15 16 17 18 18 20 17 13 16 16 12 10 11 14 19 22 12 10 11 14 16 15 15 19 20 17 18
22 19 13 3 10 13 11 13 9 12 15 18 17 18 16 18 17 16 17 18 20 20 17 16 16 15 12 10 11 15 19 16 12 13 15 16 15 17 15 15 18 16 17
10 8 12 9 5 8 9 14 16 18 19 20 18 20 21 20 20 17 17 20 22 22 21 19 17 14 15 13 12 16 16 14 15 17 19 19 18 18 17 17 17 18 18
5 4 3 6 8 13 15 13 16 18 17 19 22 23 21 21 19 18 20 22 21 24 24 23 18 14 14 14 15 16 15 15 18 20 20 20 17 18 19 21 17 17 16
1 3 7 10 11 12 14 15 14 16 18 20 19 20 20 19 20 20 22 22 23 27 26 24 19 16 14 15 15 16 16 17 19 21 18 16 15 16 18 20 18 16 16
7 10 12 12 13 14 14 18 17 16 15 14 15 18 21 23 23 23 23 23 23 25 26 23 21 20 18 19 18 18 17 16 16 16 15 13 13 15 17 17 19 19 18
13 14 15 15 17 20 21 20 21 22 22 23 24 22 22 25 28 24 24 25 25 24 25 24 21 21 22 21 21 19 17 17 16 15 14 12 12 12 15 16 17 18 15
17 19 21 21 23 24 25 29 29 29 28 27 26 24 25 26 26 26 25 24 26 22 22 22 21 23 22 23 23 21 18 18 16 15 14 11 11 10 13 14 15 17 17
19 21 24 28 31 32 32 29 27 36 32 33 32 33 31 28 27 26 23 23 26 23 23 26 26 25 24 24 23 20 18 18 16 15 14 11 8 7 10 12 14 16 18
21 22 23 25 25 26 25 27 27 25 26 28 30 30 30 26 25 24 23 21 23 25 24 23 23 26 27 26 24 22 20 18 17 17 13 9 7 8 9 10 11 15 16
24 23 26 25 25 25 25 25 26 27 28 27 27 28 26 23 21 21 23 23 21 25 26 25 26 24 25 24 23 22 21 19 20 19 14 10 8 8 9 9 9 11 13
23 25 26 25 27 27 27 26 26 26 28 27 24 24 20 16 20 23 23 20 23 26 27 28 28 27 27 26 24 23 22 22 22 21 17 12 10 9 8 7 7 10 10
29 27 26 23 26 28 27 26 27 27 27 27 26 22 18 17 18 18 19 23 23 23 27 30 29 28 26 25 24 24 23 23 24 24 19 15 12 11 8 6 5 6 7
24 26 24 23 24 29 29 27 27 29 27 29 28 26 12 14 18 19 20 19 20 22 25 28 28 26 25 25 24 25 26 26 26 24 21 17 13 11 8 7 5 4 4
21 21 23 22 23 26 26 24 25 31 28 19 14 11 13 13 13 14 18 18 20 15 20 26 27 24 23 23 24 24 25 27 26 24 23 20 16 13 11 9 5 3 2
19 18 22 21 23 24 23 25 24 25 25 24 25 24 24 21 19 17 17 19 20 18 16 17 18 21 23 24 24 23 24 25 24 21 22 20 18 15 13 11 8 5 3
18 18 24 22 21 22 22 22 22 23 22 23 23 24 23 23 23 23 20 21 22 22 21 18 14 19 19 19 21 24 23 24 24 21 21 20 19 16 15 12 10 7 4
20 19 21 23 21 21 22 21 21 22 22 22 21 22 23 20 23 25 24 25 25 26 25 22 19 15 18 16 16 18 19 23 22 22 21 21 19 17 14 13 9 9 4

GFSGL_925_spd_051.txt.gz
Wind_Speed
33 32 30 28 28 25 28 29 27 20 6 7 7 10 12 7 6 7 8 8 9 9 8 8 9 8 9 9 11 10 9 8 8 15 17 22 24 27 27 21 21 21 21
34 33 33 34 33 31 28 26 21 13 11 9 11 13 6 6 7 9 11 12 11 9 11 12 11 8 11 12 13 12 11 11 13 16 21 23 26 28 23 22 22 21 19
32 35 33 31 31 29 29 25 14 15 13 13 16 7 6 6 7 10 13 13 13 13 15 15 14 11 12 18 15 13 15 13 12 15 20 24 25 26 25 24 23 22 28
30 31 31 32 29 26 19 18 15 10 13 10 7 6 6 8 10 11 14 15 15 15 15 16 14 14 19 14 14 15 15 14 14 16 22 22 19 24 20 19 23 22 28
28 27 28 25 22 18 25 17 15 8 6 7 6 10 11 13 11 13 14 16 17 15 15 17 17 17 15 16 17 16 14 13 13 17 19 17 15 16 15 21 22 25 28
25 25 22 18 19 19 20 14 8 9 1 7 15 17 15 13 15 14 14 18 17 17 18 19 16 14 15 17 16 13 13 12 14 16 17 14 15 16 21 19 20 19 10
24 20 19 21 21 16 17 14 7 4 15 17 16 15 13 16 16 15 16 18 18 18 20 18 16 14 15 15 15 14 14 13 14 18 18 15 17 20 21 23 20 21 20
24 25 24 25 22 14 8 6 14 15 14 12 12 14 14 15 16 17 17 18 19 20 21 18 19 18 15 17 18 17 16 15 17 15 12 13 15 18 19 21 23 25 22
25 27 24 18 9 4 8 12 10 10 11 13 12 16 17 17 16 15 17 19 21 22 22 21 20 16 16 17 16 16 16 17 15 9 8 10 12 14 16 19 21 17 18
24 18 9 5 9 10 7 7 9 10 14 16 19 18 18 19 17 18 20 21 22 23 23 23 20 19 17 16 18 17 17 17 12 10 10 12 13 16 17 15 18 16 17
8 6 10 12 5 4 6 9 14 17 16 18 21 21 21 21 23 22 22 23 23 26 25 25 22 21 19 18 19 18 18 15 13 13 14 17 18 17 17 17 18 19 18
3 3 3 4 6 10 13 14 14 16 19 19 21 23 24 24 23 23 23 24 23 26 27 26 23 22 22 20 20 19 17 16 16 17 18 19 19 16 17 17 18 17 17
4 5 6 9 11 12 14 16 16 18 22 24 23 25 27 23 21 20 23 25 26 28 28 28 27 25 22 20 21 19 18 18 18 19 19 18 16 15 16 17 17 17 18
8 9 11 13 15 16 17 19 21 23 24 26 27 27 31 32 29 26 25 24 26 28 29 28 28 27 24 23 22 22 20 19 20 19 19 17 15 15 15 14 17 18 20
11 14 17 19 21 23 25 27 28 29 28 31 30 33 28 33 32 27 24 23 22 23 26 28 27 26 24 24 26 26 23 20 20 19 18 17 15 14 15 12 14 16 17
16 18 20 21 23 25 27 32 30 28 29 30 33 33 37 39 39 37 31 29 26 23 22 22 23 24 22 23 24 25 24 21 21 20 18 17 15 13 13 11 12 13 16
20 21 23 24 23 23 23 22 26 33 27 29 30 31 33 35 37 38 39 30 28 20 23 22 24 24 27 26 26 25 24 20 16 16 17 17 14 12 10 10 11 12 15
20 21 23 23 22 21 22 23 23 24 27 33 32 30 33 36 34 32 32 23 22 19 21 23 29 28 27 27 26 26 24 20 18 16 17 17 14 13 11 10 10 10 13
21 21 22 22 21 21 22 24 24 25 25 28 31 33 31 33 34 35 21 21 15 18 23 23 27 27 29 26 25 23 22 20 18 16 18 19 16 14 12 9 9 8 10
20 20 21 21 20 20 21 23 26 25 24 29 29 30 32 30 27 20 12 14 17 20 22 26 28 28 28 28 26 22 20 20 18 19 20 20 17 15 13 10 9 7 7
18 19 20 19 18 19 21 23 22 23 23 26 32 32 32 31 25 14 11 13 16 17 20 23 25 26 27 27 26 23 20 20 20 20 21 23 19 17 14 11 9 7 6
17 16 19 19 18 20 21 21 21 21 22 24 27 30 34 31 27 19 14 13 16 16 20 25 22 24 25 26 24 22 22 21 21 21 21 21 21 17 15 12 10 7 5
15 15 19 19 19 20 19 22 19 22 22 23 24 25 26 25 27 29 25 23 22 22 20 17 15 21 22 23 22 21 21 23 22 22 23 22 22 19 17 15 11 8 6
14 14 18 18 18 19 20 20 20 22 22 22 23 23 24 24 24 28 28 27 25 24 23 21 19 15 15 19 18 18 20 21 21 20 20 22 23 21 19 16 12 9 6
14 15 15 17 17 19 21 19 22 22 23 23 22 23 23 25 22 28 29 29 28 27 26 26 23 21 17 14 18 17 18 18 18 19 19 22 22 22 20 17 14 12 8
13 15 15 14 17 19 20 19 23 22 22 23 22 22 22 24 22 28 29 30 30 28 27 27 26 24 19 18 16 16 16 16 18 18 17 23 22 22 20 17 14 12 10

GFSGL_925_spd_054.txt.gz
Wind_Speed
35 37 35 33 29 27 27 26 28 32 29 20 13 11 7 8 6 11 11 13 14 12 11 11 12 12 12 13 11 12 14 15 10 12 16 16 20 22 24 22 20 20 20
35 32 30 29 29 29 29 28 31 30 23 19 14 13 10 9 9 13 16 17 17 15 13 14 14 13 14 14 13 14 18 16 15 17 20 17 21 24 25 22 21 20 20
27 26 25 25 24 24 26 27 28 25 16 11 11 10 7 9 12 16 17 18 17 16 15 15 16 15 16 14 16 20 18 17 17 19 18 17 21 25 25 24 22 23 23
21 22 21 22 24 26 26 26 23 16 13 13 11 6 11 12 19 15 14 16 17 17 16 15 16 19 20 17 19 18 17 18 17 18 19 20 21 24 21 17 23 19 24
19 19 19 22 23 26 25 19 16 12 11 9 10 12 14 18 17 14 15 16 17 19 17 17 17 19 20 19 17 18 19 19 17 17 18 16 17 16 14 17 19 25 22
16 18 21 22 21 19 16 16 15 12 11 9 12 13 15 19 17 17 16 17 19 20 19 19 19 20 19 17 18 19 21 19 19 16 17 15 19 19 18 18 17 16 10
20 19 19 18 18 20 18 15 15 10 7 14 15 16 15 14 15 17 18 20 21 21 20 21 21 20 20 21 22 18 19 18 18 16 19 21 19 17 17 18 15 17 19
21 21 21 25 26 20 10 4 8 11 12 14 12 12 14 16 17 18 19 21 21 22 22 22 23 21 19 20 16 20 21 22 19 18 20 20 16 14 16 18 20 24 19
27 30 27 18 10 6 5 9 16 13 11 11 13 15 17 20 16 17 19 20 22 24 23 22 23 23 20 18 18 21 21 22 18 18 18 15 14 15 15 17 20 14 16
25 17 12 10 10 12 14 9 9 10 12 15 18 20 22 24 22 21 20 23 25 27 26 24 24 25 22 20 21 21 22 23 18 17 16 15 15 15 15 14 16 13 13
10 7 7 7 4 4 6 8 12 16 17 18 20 22 23 23 24 25 25 26 27 29 28 26 25 23 22 23 23 23 24 20 18 17 17 18 17 17 16 14 14 16 14
8 6 5 3 5 8 11 14 15 17 19 21 24 28 28 26 25 26 24 24 26 27 30 29 26 23 23 22 24 26 23 20 20 20 21 22 21 18 15 14 15 15 16
9 8 8 9 10 11 13 16 17 20 24 27 27 29 33 34 32 29 28 28 27 27 29 31 29 26 25 25 26 24 22 22 22 23 24 24 21 17 14 14 15 15 16
11 11 11 12 14 14 15 17 19 21 24 24 22 23 26 30 32 35 33 31 27 27 29 29 29 28 28 30 25 26 25 26 26 26 24 22 19 16 15 13 15 14 16
14 14 15 17 18 21 21 21 22 23 21 24 24 25 25 28 30 33 32 32 32 32 29 23 20 21 22 25 25 26 27 26 28 27 22 21 20 17 15 12 12 12 12
15 16 18 19 21 21 20 21 20 20 22 23 25 27 33 31 35 38 37 37 35 36 26 20 20 19 21 21 24 24 27 26 26 26 22 21 21 19 15 12 10 10 12
16 16 18 20 19 18 20 20 25 27 22 23 25 29 30 34 37 37 36 36 34 32 24 21 18 17 21 22 24 25 24 23 21 22 21 20 20 17 14 12 10 10 11
15 15 17 18 18 19 19 18 19 22 27 28 30 31 31 36 36 36 35 33 28 23 20 19 18 22 22 23 25 26 25 23 22 21 19 18 18 17 15 13 11 9 10
15 15 17 17 16 16 17 17 19 19 19 23 29 34 37 41 38 31 28 24 24 12 11 14 18 22 24 26 27 26 24 23 22 22 21 20 19 19 17 14 12 9 9
13 13 16 16 16 17 18 16 18 19 18 21 22 26 33 34 33 35 37 26 17 11 13 15 19 21 25 26 26 25 23 21 21 21 22 21 20 21 18 14 12 9 8
13 11 16 16 17 17 18 16 17 18 19 19 21 24 28 25 24 26 28 29 30 29 23 18 18 21 21 22 24 24 23 22 22 23 23 23 22 22 20 15 13 10 8
12 13 15 15 16 17 16 17 15 20 19 20 23 24 26 26 22 24 26 29 31 28 27 23 21 16 14 22 23 23 23 22 22 22 23 22 22 22 20 16 14 11 9
12 13 14 14 14 15 17 17 16 21 20 22 25 23 24 23 24 23 27 28 31 30 28 26 25 22 19 16 14 23 22 21 22 23 24 23 23 22 22 19 16 13 10
13 13 13 13 14 15 17 18 17 21 20 23 24 24 23 24 25 24 29 29 31 32 29 28 27 24 23 21 18 12 21 18 18 19 21 24 25 24 23 21 17 14 10
12 13 13 13 14 16 18 19 20 22 22 22 24 24 24 26 25 25 30 29 29 32 31 30 28 27 25 25 21 20 15 16 19 16 18 21 23 25 25 23 19 15 13
10 11 13 12 12 15 18 20 21 22 22 23 24 24 26 27 24 27 29 28 30 33 31 31 30 27 25 25 23 21 16 14 17 19 18 18 22 26 26 23 20 17 14

GFSGL_925_spd_057.txt.gz
Wind_Speed
22 22 23 26 25 28 28 27 27 25 27 31 28 21 12 10 12 8 8 10 16 12 11 12 12 11 12 12 13 14 14 14 18 21 15 15 14 16 17 18 19 19 19
19 21 22 24 25 24 26 28 30 32 30 32 27 19 16 15 12 11 16 16 15 13 15 14 14 13 15 15 15 16 15 16 18 20 18 17 16 16 17 18 18 18 18
19 19 20 21 20 21 22 23 22 24 31 25 17 17 13 12 13 14 16 15 16 18 16 16 16 15 16 16 17 17 16 17 16 18 21 17 16 16 17 18 18 18 17
14 13 11 10 12 13 16 18 20 24 24 17 16 15 10 10 13 15 19 18 19 19 20 19 18 17 17 17 17 18 18 17 16 17 19 19 17 16 16 17 18 17 19
8 8 9 10 10 12 15 15 21 19 16 14 14 9 9 13 16 20 18 18 18 18 19 20 20 20 20 20 17 18 17 17 18 19 19 18 17 16 17 17 18 19 20
12 12 12 15 16 18 21 18 16 14 11 13 10 11 17 18 19 20 24 19 18 18 18 18 21 21 22 23 22 21 20 21 22 19 19 18 18 17 16 15 16 17 16
16 16 17 19 21 19 18 17 16 11 9 6 15 17 17 21 20 17 19 21 19 19 20 20 19 21 23 21 21 22 22 25 23 20 20 19 18 16 14 15 15 17 20
22 24 23 24 26 22 18 11 6 3 10 13 16 14 16 17 16 17 21 21 19 21 22 22 21 21 20 20 19 18 18 18 18 19 19 19 17 15 14 15 17 20 21
27 28 26 22 18 12 9 3 5 11 12 10 11 14 16 19 21 22 21 22 21 23 23 25 24 23 24 23 21 20 19 19 18 22 23 20 20 16 14 16 17 17 19
21 18 16 12 7 2 3 1 3 5 8 12 16 17 19 22 23 23 22 22 23 24 24 24 29 30 28 24 25 22 21 21 17 14 15 16 15 15 16 16 17 17 17
14 12 9 7 6 5 4 6 8 9 11 14 16 19 21 22 23 23 23 25 25 28 25 25 23 29 29 24 25 25 26 21 17 16 15 14 13 14 15 14 14 15 17
15 14 12 9 7 6 7 7 8 9 12 15 18 20 18 22 24 26 27 27 27 26 28 27 26 30 27 26 24 28 28 25 18 16 16 16 15 15 15 15 14 14 16
14 12 11 9 8 8 8 9 10 11 12 14 16 19 21 20 22 24 28 30 30 28 26 31 34 34 31 27 27 25 26 24 19 18 19 18 16 15 14 13 12 14 16
13 11 9 9 9 9 9 9 10 12 14 15 17 20 24 25 24 25 28 30 30 29 27 28 29 32 28 23 23 24 27 25 24 22 20 18 15 12 13 13 12 13 14
10 9 9 9 10 9 9 10 10 10 11 15 16 18 22 25 28 34 35 36 33 31 33 30 26 21 20 19 21 20 17 21 22 21 18 18 17 13 14 12 11 12 13
10 9 9 8 9 9 10 11 10 10 11 12 11 16 18 20 31 35 37 36 32 30 28 25 23 22 22 16 15 17 16 20 19 19 18 17 17 14 14 13 11 12 13
10 8 7 9 9 10 11 12 14 13 11 10 15 17 19 25 29 31 36 37 26 26 23 22 23 21 19 16 15 16 18 17 18 17 17 16 15 14 14 13 12 11 12
8 10 9 9 9 9 11 11 12 14 15 16 16 17 20 27 27 28 31 31 31 26 23 22 22 19 14 12 13 14 15 14 16 16 16 15 14 15 14 13 12 11 10
8 8 7 7 8 9 9 9 11 13 15 17 20 19 23 27 24 24 26 25 24 25 28 30 25 13 9 11 14 15 17 16 16 15 16 16 15 15 15 13 11 10 9
6 8 8 7 8 9 9 10 11 12 15 16 18 21 25 27 25 25 25 25 25 24 25 24 25 25 22 15 13 14 13 14 15 15 16 15 16 16 16 14 12 10 9
6 6 8 7 7 8 8 9 10 11 13 14 16 18 21 20 20 21 22 23 24 24 24 24 23 22 21 21 18 13 13 14 14 15 16 16 16 16 16 14 12 10 9
6 7 7 7 7 8 9 9 10 11 13 15 17 18 20 17 18 20 19 22 22 22 22 23 23 21 20 20 20 18 15 14 13 14 16 16 17 17 15 15 13 11 9
7 8 7 6 7 8 9 10 10 11 13 14 15 17 17 18 19 20 20 22 22 22 23 23 23 24 21 21 18 17 16 15 15 15 15 18 17 17 17 16 15 13 11
8 8 7 6 7 8 10 11 11 12 13 13 14 15 16 17 19 20 20 22 23 22 23 23 22 23 25 24 22 18 16 17 14 14 17 19 20 19 18 17 16 14 11
7 7 7 7 7 9 10 11 12 13 13 14 15 16 17 18 19 20 21 22 23 24 27 26 25 24 26 26 23 20 21 22 17 12 16 17 19 23 22 20 18 15 12
6 7 8 9 7 8 10 12 13 13 14 14 15 16 17 18 19 21 22 23 24 29 27 27 26 27 26 26 22 25 24 21 17 13 12 19 18 18 21 22 22 16 14

GFSGL_925_spd_060.txt.gz
Wind_Speed
19 19 20 20 19 19 20 20 24 24 24 22 27 25 26 24 18 14 10 9 13 14 15 15 15 14 14 13 14 15 17 17 18 22 20 19 16 18 21 21 22 22 23
15 16 17 18 17 16 19 21 21 21 23 21 23 25 26 25 20 15 13 13 14 16 17 16 17 16 16 16 17 18 18 18 19 22 24 22 20 19 20 21 22 21 22
9 10 12 13 14 13 13 14 15 17 19 21 21 22 21 14 13 13 13 14 15 17 17 17 18 18 19 19 19 19 19 20 21 23 24 22 21 19 20 20 21 21 20
9 9 9 8 9 9 9 10 13 14 17 19 19 18 13 11 12 13 13 16 17 17 18 19 20 21 22 22 21 21 21 22 23 23 23 23 22 20 19 20 20 19 20
12 11 11 10 9 10 11 13 15 16 17 19 17 14 8 8 13 13 14 17 18 19 20 21 23 24 25 25 24 21 21 22 22 22 23 22 22 21 18 18 19 20 19
15 15 14 14 14 15 16 16 15 16 15 16 13 8 9 11 17 18 18 19 21 21 23 24 25 25 27 31 30 29 27 25 25 22 23 21 24 22 18 18 19 18 16
18 17 16 16 17 17 17 17 17 15 12 8 7 6 14 19 19 17 18 19 20 22 25 27 27 27 25 26 27 26 27 30 30 27 27 25 25 21 20 19 19 18 19
19 19 19 20 20 18 16 15 12 10 9 5 8 13 11 10 13 15 16 18 22 24 26 27 29 30 29 27 26 26 25 24 24 23 23 25 23 20 18 18 18 19 20
21 20 19 18 17 14 11 9 6 6 7 7 5 7 9 11 14 18 18 19 22 26 27 28 29 31 30 29 28 30 28 26 24 26 28 26 24 24 23 19 18 18 18
20 18 15 12 10 7 5 5 2 1 1 4 7 8 10 13 14 18 17 18 22 25 27 29 31 33 34 33 30 29 26 29 22 21 20 18 20 20 21 19 19 18 18
16 14 11 10 9 7 5 3 1 2 4 5 8 10 12 13 14 16 19 18 21 25 27 29 29 30 30 33 35 31 30 27 23 23 21 20 19 18 18 19 18 19 19
14 13 11 9 8 6 4 3 3 4 6 8 9 11 11 12 14 17 20 22 23 25 28 28 29 29 31 31 34 34 36 30 24 18 19 21 20 19 18 17 18 18 19
13 12 10 9 7 5 4 4 5 6 7 8 9 10 12 13 15 17 20 26 29 30 30 33 35 35 31 29 30 33 34 30 24 19 21 22 21 20 17 15 16 16 18
12 10 8 7 6 6 4 5 5 6 7 8 9 11 13 15 16 18 24 26 28 30 31 31 30 35 35 31 31 30 32 28 26 23 24 24 20 17 17 15 15 14 16
9 8 7 6 5 4 4 4 4 5 5 7 8 10 14 15 17 23 24 27 30 33 36 29 28 27 26 25 22 22 25 22 22 23 20 18 17 17 17 16 15 14 15
8 6 6 5 4 4 4 2 6 6 5 3 4 8 11 13 20 22 23 26 28 30 25 21 23 25 24 24 23 20 17 16 18 19 20 19 17 18 17 16 15 14 15
8 6 5 5 4 4 4 4 6 4 5 3 7 9 11 17 23 23 25 27 21 23 19 21 23 26 26 24 19 15 13 14 15 17 20 18 19 17 17 15 14 14 14
8 9 5 4 4 3 3 4 5 6 7 9 9 10 11 17 21 20 22 21 21 21 21 22 24 26 27 29 4 6 9 8 12 15 17 17 17 17 15 14 15 14 13
6 5 4 3 3 2 3 4 5 6 8 10 12 11 14 18 17 16 17 17 19 20 21 22 23 24 25 25 26 16 12 13 14 15 15 17 19 17 15 15 14 13 10
5 6 4 2 2 3 4 5 6 7 9 10 11 13 16 19 16 17 17 17 18 19 20 21 22 22 23 22 23 22 22 10 11 13 15 17 18 16 15 15 14 12 11
4 3 3 2 3 4 5 6 7 8 9 11 12 12 14 15 16 16 17 17 18 19 20 21 22 21 21 21 20 20 20 19 14 11 12 14 16 16 15 15 14 13 11
4 3 2 2 3 4 5 6 7 9 10 12 13 14 14 14 15 16 17 18 18 18 19 20 21 20 20 20 20 20 19 19 18 15 12 13 14 15 15 15 14 13 12
4 3 2 2 3 4 5 6 7 9 10 12 13 15 15 15 16 17 18 19 19 20 20 20 21 21 20 19 20 18 19 18 18 18 19 14 14 16 16 16 16 14 14
3 2 3 3 4 5 6 7 8 9 11 12 13 14 15 16 17 18 19 20 20 21 21 21 22 21 22 23 21 20 18 17 20 21 19 18 14 16 17 17 17 16 14
2 3 3 4 5 6 7 8 9 10 11 12 14 15 16 17 18 19 20 20 21 22 23 24 21 22 23 25 26 24 21 22 23 21 19 17 16 16 18 18 18 17 15
3 4 4 5 6 6 7 9 10 11 12 14 14 15 16 18 18 19 20 20 21 24 25 23 24 25 26 25 23 22 26 26 23 22 20 18 16 15 17 18 20 18 17

GFSGL_925_spd_063.txt.gz
Wind_Speed
25 27 24 20 21 24 19 19 16 15 16 19 20 24 22 23 21 15 17 14 11 12 16 14 18 18 17 17 16 17 18 18 18 22 21 21 21 21 21 20 20 21 25
20 18 20 15 16 17 18 17 15 15 15 20 24 21 24 24 22 20 13 9 11 13 14 17 21 18 19 19 19 20 20 21 21 22 24 23 24 22 23 22 22 25 24
14 13 14 13 14 14 14 14 13 15 18 18 16 20 21 19 20 16 11 9 13 15 19 20 20 20 21 20 21 23 22 23 22 21 23 24 24 22 23 23 23 23 24
13 13 13 12 11 10 8 8 9 11 13 14 19 19 14 16 14 10 9 13 15 18 19 21 22 20 22 23 24 25 25 25 24 23 23 25 24 23 20 21 23 22 21
15 15 15 12 11 11 12 12 13 14 17 16 17 16 16 12 10 10 12 14 16 16 20 22 23 24 25 26 26 27 26 26 23 22 22 22 21 21 21 21 21 24 21
19 17 17 16 16 16 17 18 15 16 15 17 18 15 11 7 8 11 15 15 16 18 21 22 24 27 28 31 35 36 34 31 29 26 24 23 24 23 24 24 21 20 16
19 18 18 18 18 18 18 16 15 15 18 17 14 8 5 8 13 13 11 13 16 18 21 24 26 28 29 29 29 32 33 32 35 35 29 28 27 25 25 22 22 20 22
19 19 18 18 18 17 16 15 14 14 12 9 4 5 8 9 5 7 11 13 17 21 24 26 28 29 29 31 31 31 31 29 29 30 27 28 25 25 22 21 19 19 21
19 19 18 17 16 15 14 12 10 8 5 5 5 4 3 5 3 9 12 14 17 21 23 25 27 30 32 34 36 32 33 34 34 28 30 29 27 25 24 19 19 19 19
19 18 16 14 13 11 8 7 7 6 4 2 1 3 4 6 5 8 12 13 17 20 23 25 28 30 31 32 31 30 34 34 32 32 23 23 28 28 29 28 23 20 19
18 16 13 11 10 9 8 7 5 4 1 0 2 3 6 5 7 13 14 13 16 20 23 26 26 29 31 33 34 31 32 33 33 30 26 25 19 19 19 21 20 20 20
16 14 12 10 9 8 7 5 3 1 0 2 2 5 4 5 7 9 10 13 19 22 24 26 30 33 39 41 39 37 37 34 32 28 24 22 19 17 21 21 21 24 24
14 13 11 10 8 6 5 3 1 1 1 2 3 5 6 7 8 11 16 20 21 24 26 31 37 41 38 35 31 32 30 27 27 26 25 23 22 23 22 21 20 20 20
14 12 10 8 7 5 4 2 2 1 2 2 3 5 6 9 10 12 17 20 21 23 27 31 37 35 33 33 33 31 27 24 26 26 25 23 23 20 20 20 18 16 17
13 11 8 7 4 4 4 4 3 4 2 2 3 4 6 8 9 15 18 20 23 26 30 28 25 24 25 26 28 27 25 22 22 26 23 16 15 16 18 17 16 16 17
12 9 7 6 4 2 1 4 2 0 4 2 3 6 6 7 12 17 18 19 23 21 23 20 21 22 23 26 26 33 27 22 20 20 18 17 15 16 16 15 17 17 16
11 10 7 5 3 2 1 1 3 3 4 3 4 7 5 9 14 18 18 20 18 17 17 19 19 21 24 25 27 28 34 17 13 14 10 14 15 15 16 16 18 17 15
10 10 6 4 3 1 1 2 3 5 6 5 6 7 9 10 17 17 16 19 15 16 17 19 20 22 23 25 27 28 31 29 8 9 14 15 15 16 16 15 15 14 14
7 6 5 4 2 1 1 2 4 6 7 9 10 10 8 14 18 14 12 14 16 18 18 20 20 22 23 24 25 27 27 27 30 14 15 15 15 15 16 15 13 14 14
7 7 5 2 1 1 2 4 5 7 8 9 10 11 12 15 15 14 14 15 16 18 19 20 21 22 23 23 24 25 26 27 28 26 13 14 16 16 18 14 13 14 15
4 3 3 1 1 2 3 4 6 7 8 9 10 10 9 13 14 15 16 16 17 18 19 20 22 22 23 23 22 22 24 24 25 26 22 18 12 15 16 14 14 15 12
3 2 2 1 2 3 4 5 7 8 9 10 11 12 11 12 14 15 16 17 17 19 19 21 22 23 23 23 23 22 23 23 23 24 23 24 20 15 15 14 14 14 14
3 2 1 1 3 4 5 6 8 9 10 11 12 13 13 14 14 16 17 18 19 20 21 21 23 24 23 24 22 23 22 22 22 22 24 25 24 22 13 14 15 13 14
2 1 2 3 4 5 7 8 9 9 10 12 13 13 14 15 16 17 18 18 19 21 21 22 23 25 25 24 25 24 24 24 23 23 22 23 23 23 23 15 16 15 14
2 3 4 5 7 7 9 9 10 11 11 12 13 14 15 15 17 17 18 19 20 21 21 25 25 23 25 27 28 28 26 24 24 26 23 20 23 25 24 18 16 17 15
5 6 7 8 9 9 10 11 11 12 12 13 14 15 15 16 17 18 18 19 19 22 26 24 25 25 27 29 26 24 27 28 28 25 21 22 23 23 22 20 18 19 18

GFSGL_925_spd_066.txt.gz
Wind_Speed
33 32 33 29 30 26 22 18 17 17 18 19 19 20 21 24 24 23 23 20 17 15 13 13 14 15 18 20 19 19 18 19 16 21 23 23 23 23 19 21 22 22 22
24 22 30 28 19 17 13 11 14 17 15 18 17 20 23 21 22 25 21 16 16 14 13 16 19 17 22 23 21 22 22 21 23 22 25 26 26 27 27 26 24 23 22
25 21 18 15 15 12 12 14 15 18 16 17 21 21 21 23 22 15 12 15 12 12 14 15 17 20 21 21 23 23 23 24 25 27 26 26 26 23 25 26 21 18 22
23 25 23 21 17 15 15 14 12 12 15 18 19 18 18 16 13 15 16 13 10 11 13 16 20 21 21 22 22 24 26 27 27 26 26 28 27 27 23 11 13 15 18
19 21 21 18 16 14 13 13 13 14 16 16 16 16 15 13 16 15 12 9 10 13 15 18 21 23 25 27 28 28 28 29 27 26 25 24 20 16 15 16 16 17 19
18 19 17 17 17 17 17 18 17 17 17 17 18 17 18 17 12 9 8 10 12 14 15 18 20 21 23 26 29 36 40 35 33 27 26 22 25 23 19 14 16 15 8
22 21 21 21 22 21 20 19 18 18 19 20 20 18 12 8 6 6 7 8 9 14 16 18 21 21 25 29 32 31 31 31 34 39 29 29 29 29 24 19 20 16 18
21 22 21 22 23 21 19 18 19 19 19 18 13 7 4 4 6 5 6 6 9 13 16 18 20 21 21 24 29 32 31 28 29 30 35 39 38 31 25 25 21 19 17
22 22 21 21 21 19 19 18 17 17 13 9 6 6 5 10 7 4 2 4 8 11 14 16 19 24 27 29 32 32 32 32 28 28 30 33 36 34 31 25 18 12 12
20 20 19 18 18 18 16 14 11 12 11 9 9 6 3 4 3 3 6 8 9 12 17 22 23 23 26 28 31 28 30 31 30 32 38 36 29 31 31 28 26 19 16
23 21 18 17 15 14 14 13 13 10 11 7 5 4 3 4 3 8 11 10 12 18 19 21 22 25 28 33 37 37 36 39 38 32 31 28 26 30 34 36 31 30 21
21 20 17 16 15 14 13 11 9 10 9 8 6 4 2 2 5 5 7 11 15 17 18 22 25 29 35 35 36 33 33 34 31 27 26 24 23 25 28 27 26 27 26
20 18 17 15 14 13 13 9 10 9 7 7 4 3 3 4 4 6 10 16 17 18 20 23 28 28 30 33 30 30 30 30 26 25 24 25 24 26 30 28 21 26 24
19 18 17 16 14 11 11 8 11 9 8 5 3 2 3 4 6 10 15 17 16 19 24 27 26 26 23 27 27 27 26 28 30 25 24 26 24 24 26 27 21 23 21
18 16 14 14 13 11 13 11 7 6 5 6 6 5 2 2 6 10 14 17 18 21 23 24 23 20 22 24 26 27 29 29 32 29 24 23 23 27 23 23 21 20 17
16 15 14 12 10 10 11 10 7 3 4 3 2 0 2 4 8 12 15 16 18 18 20 20 18 20 20 23 25 28 28 30 31 41 20 22 17 8 9 15 19 18 17
18 14 14 11 10 8 5 5 9 5 2 0 1 3 4 7 8 14 15 14 16 17 14 16 17 19 20 21 23 25 29 30 33 33 23 15 7 9 10 14 18 18 17
18 14 12 10 9 6 5 4 2 2 1 4 5 2 5 5 10 15 12 14 14 15 15 16 18 20 21 21 23 25 27 30 32 33 33 21 13 11 12 15 16 16 16
16 14 12 9 7 6 4 2 1 2 3 4 5 5 5 3 11 13 11 10 12 14 15 16 18 20 21 22 23 25 26 26 29 31 30 31 21 13 14 17 17 18 16
12 12 9 7 5 3 2 2 3 3 5 5 6 7 9 14 17 14 13 12 13 14 14 17 19 19 21 22 23 24 25 26 27 27 28 28 30 25 14 13 15 16 17
9 7 7 4 3 2 2 2 3 5 6 7 7 9 8 9 15 13 12 13 13 14 18 19 19 20 21 22 22 23 25 25 25 26 27 27 28 28 27 19 16 17 16
7 5 4 3 2 2 2 3 4 6 8 8 8 9 11 12 11 12 13 14 16 18 18 20 22 22 22 22 23 25 24 25 25 24 27 27 27 28 27 28 13 16 17
6 4 3 2 2 3 5 5 5 7 7 9 10 11 11 12 12 13 14 17 18 18 20 21 23 21 23 27 25 23 24 24 26 28 28 27 26 27 26 24 27 14 18
5 4 3 3 4 5 5 5 7 9 8 9 10 12 12 13 14 15 16 16 19 20 23 21 20 28 24 25 24 26 26 28 27 29 23 27 31 27 24 26 24 18 16
3 4 4 5 5 7 7 8 8 10 10 10 12 12 13 16 15 15 17 19 20 22 19 24 27 23 26 30 30 29 27 26 24 28 33 30 27 27 26 25 25 24 16
5 6 5 7 8 8 8 9 9 10 11 11 12 14 15 15 16 18 17 20 19 21 27 25 26 27 29 30 29 28 30 31 30 26 25 26 26 27 24 23 24 23 16

GFSGL_925_spd_069.txt.gz
Wind_Speed
40 42 41 35 36 34 26 19 17 28 34 26 23 24 25 24 22 21 21 21 21 20 17 15 16 14 16 19 21 23 27 24 16 17 22 21 23 25 26 26 23 24 26
40 39 39 35 28 21 20 23 31 28 27 25 22 21 21 21 20 20 21 22 20 16 13 13 14 14 17 19 19 24 27 25 23 23 29 31 31 30 33 34 34 36 32
7 13 18 21 20 26 23 20 24 24 23 20 19 17 18 20 21 21 21 17 14 13 12 12 13 14 16 19 24 25 24 27 28 30 29 32 31 29 29 30 27 27 32
28 14 22 26 25 26 25 21 21 20 20 19 17 17 18 19 19 18 14 14 14 10 8 10 12 16 20 23 24 25 27 28 31 34 30 31 29 26 24 28 22 22 23
22 25 27 26 25 25 23 21 20 18 16 17 18 18 17 16 16 16 16 16 10 6 8 12 15 18 19 22 27 29 30 33 30 28 27 27 26 25 23 24 17 17 18
24 23 21 22 23 23 21 19 18 18 18 18 18 18 19 17 16 16 13 10 7 7 10 11 12 15 16 18 20 17 13 15 20 23 24 24 28 27 29 29 26 19 12
27 24 22 20 20 20 20 19 20 20 20 20 20 19 18 17 13 10 8 7 6 5 7 11 12 10 11 16 21 25 27 29 28 23 26 25 27 28 31 28 24 22 22
23 23 23 23 23 21 21 21 21 22 21 21 20 18 14 9 9 8 7 5 3 3 3 7 11 15 18 22 27 30 32 33 31 26 25 30 28 26 30 31 31 31 29
21 22 23 25 24 22 23 23 23 24 22 20 16 13 11 8 14 11 9 7 6 7 9 12 14 17 18 20 25 30 32 34 34 30 29 31 34 38 36 31 24 19 13
22 24 25 24 24 26 24 25 25 22 17 15 11 12 17 15 10 8 5 3 4 7 9 12 13 14 17 20 23 27 28 33 34 38 35 33 30 33 31 30 29 23 18
28 26 23 23 23 23 23 21 19 18 17 21 21 18 15 12 9 3 1 4 6 10 12 15 17 19 20 21 19 23 26 33 35 32 32 28 27 28 27 25 28 29 22
28 26 27 24 24 24 21 18 18 23 19 17 16 17 15 13 7 2 2 5 8 10 13 15 18 20 18 18 20 22 23 26 24 25 27 28 27 26 28 27 28 35 34
29 27 24 22 24 24 22 21 21 20 19 17 16 18 17 12 7 1 3 8 9 11 13 16 17 17 16 18 21 20 22 23 24 24 25 28 29 30 29 28 27 32 31
24 24 22 23 23 22 22 23 22 19 17 15 15 15 13 7 1 5 8 11 12 15 17 16 16 16 16 20 21 20 21 22 23 24 27 32 34 27 26 25 24 24 21
24 21 22 20 22 22 19 16 16 13 10 12 10 8 4 2 3 7 11 12 13 14 14 15 17 17 20 19 19 19 22 23 24 27 30 30 37 25 23 26 22 18 14
23 20 19 18 19 18 18 16 12 10 8 6 5 2 0 1 4 8 12 11 11 12 14 14 14 16 19 18 18 20 20 23 24 27 30 30 30 30 22 5 12 16 16
25 19 17 20 19 15 13 12 13 8 6 5 4 2 0 2 3 8 12 10 10 9 13 13 14 16 18 16 17 19 22 23 25 25 27 28 30 33 24 15 12 12 16
23 19 18 16 15 14 14 13 8 6 5 4 4 4 5 3 2 8 9 8 8 10 11 12 13 16 17 19 18 21 23 24 24 25 26 27 26 27 32 14 12 12 15
22 16 12 10 8 6 5 5 3 2 2 2 2 4 9 3 6 13 10 8 9 10 10 12 16 17 17 19 21 23 23 23 26 25 26 25 26 27 28 31 19 17 17
14 12 10 9 6 6 4 3 4 3 4 4 3 2 4 7 12 14 6 8 9 9 12 15 15 16 20 22 23 20 21 24 22 24 24 24 25 25 25 28 27 17 18
10 10 7 6 5 3 2 3 5 4 5 6 6 5 6 9 10 9 8 9 10 13 15 15 17 19 22 22 19 20 27 27 21 25 21 24 25 25 24 25 26 28 17
9 7 5 4 3 3 4 5 4 4 5 5 6 7 8 9 8 8 10 11 13 14 14 17 19 20 19 19 25 23 23 23 22 22 25 26 24 23 25 27 25 22 26
7 6 5 3 3 3 5 5 3 6 7 8 8 9 10 10 10 11 12 12 13 15 17 19 20 18 22 24 18 20 20 23 25 27 28 27 21 22 26 26 22 24 22
6 6 5 5 5 6 5 7 9 8 7 7 8 9 9 11 13 12 12 15 17 19 20 18 19 25 23 22 24 26 25 23 23 24 23 27 30 28 24 23 22 22 23
6 6 6 7 8 8 7 7 7 8 10 10 10 10 13 14 14 15 17 18 20 19 18 23 28 26 24 25 25 23 22 22 25 28 28 28 28 28 26 23 22 24 22
8 8 10 10 9 9 10 10 10 12 13 12 13 14 13 13 15 17 20 19 17 22 28 30 26 26 26 26 26 26 28 30 31 30 27 27 27 27 21 21 22 22 23

GFSGL_925_spd_072.txt.gz
Wind_Speed
40 39 38 39 42 43 39 31 30 21 23 20 33 38 34 30 28 28 27 25 24 24 23 22 19 16 16 15 14 15 18 19 15 19 23 23 22 22 25 28 29 30 30
24 21 20 21 29 30 30 27 24 22 15 34 38 37 32 29 30 29 28 25 25 24 22 18 15 13 13 12 13 16 18 20 24 19 25 28 30 30 32 33 31 33 37
25 24 29 31 28 24 31 31 32 30 31 30 34 33 30 28 28 27 25 24 23 20 17 15 12 10 11 11 11 16 18 21 25 27 25 28 30 33 35 35 36 36 35
34 32 24 26 32 33 39 35 31 29 31 33 30 25 23 25 25 24 22 20 20 16 14 11 8 8 9 11 14 17 20 23 25 29 26 25 24 29 30 31 32 32 38
28 21 21 19 17 20 22 25 26 27 28 26 24 24 22 21 22 21 21 20 18 15 10 7 6 8 9 12 12 9 8 10 14 16 19 20 21 22 24 25 30 34 35
23 22 21 22 24 24 26 26 25 24 23 23 22 22 22 22 21 20 19 19 16 11 7 5 4 4 3 4 7 8 11 13 16 17 19 18 22 24 26 26 27 20 15
23 24 25 25 24 24 25 25 23 23 22 22 22 22 21 19 18 18 17 14 11 7 6 5 4 2 6 10 13 17 18 20 17 18 20 20 24 22 25 25 23 23 26
25 26 27 27 27 26 25 24 24 25 25 25 23 20 20 20 18 16 14 12 10 8 6 3 4 7 10 12 16 18 19 21 20 20 21 25 25 27 27 28 29 31 32
21 22 24 26 26 25 26 27 28 27 25 24 24 23 21 17 17 15 14 13 11 7 3 3 6 8 9 11 15 18 20 21 20 20 22 25 27 25 25 27 24 22 22
21 22 23 25 24 25 27 25 25 26 27 26 23 18 17 16 19 16 14 12 8 3 2 4 6 8 10 12 12 15 18 19 23 23 20 20 22 26 26 24 26 23 22
23 23 22 23 23 22 24 27 27 25 23 20 20 20 20 19 17 13 9 6 3 1 3 5 7 9 10 8 9 12 15 20 22 21 21 21 23 23 26 25 24 26 25
26 24 22 21 22 23 27 25 22 21 24 25 26 21 16 14 12 9 5 2 1 2 3 5 7 7 7 6 10 13 15 18 23 23 20 21 24 27 29 28 29 30 26
26 25 24 21 20 20 20 21 21 26 27 26 25 23 18 13 9 5 0 2 4 4 4 5 6 6 5 10 12 13 16 20 20 19 20 22 26 32 33 31 25 29 28
24 22 20 19 18 17 17 18 21 20 22 23 20 19 17 11 5 1 3 4 5 5 6 5 6 4 7 10 13 13 15 16 17 17 21 25 27 28 29 30 27 25 21
23 21 21 21 21 22 21 17 15 11 11 15 15 16 15 8 3 2 5 7 6 7 6 6 5 7 10 11 9 11 14 16 16 18 21 26 27 27 28 29 35 28 19
26 25 24 24 22 22 22 20 16 11 7 6 7 4 5 4 3 3 7 7 5 6 3 5 5 9 12 10 11 13 13 15 17 19 19 22 24 26 27 32 37 19 14
30 26 24 21 19 16 13 13 13 9 8 6 4 3 2 2 1 4 7 7 4 6 6 5 6 10 12 10 12 12 14 16 19 18 19 21 22 24 25 27 28 21 8
30 29 27 22 18 15 11 8 7 4 1 1 3 3 4 3 2 6 9 7 4 4 3 4 8 11 10 12 14 16 18 18 20 23 18 23 21 23 24 24 25 24 21
24 19 15 14 13 12 10 8 5 4 4 2 2 6 9 4 4 8 6 3 2 2 4 8 11 12 15 17 19 21 18 18 24 22 18 22 19 22 23 21 23 25 25
19 16 13 13 11 10 8 7 5 3 3 3 2 3 7 4 7 6 6 5 6 7 10 11 12 14 16 19 20 18 18 25 22 20 19 18 22 25 21 21 21 24 24
17 15 13 12 11 8 6 5 4 3 3 3 2 1 2 5 5 5 4 6 8 10 11 12 14 16 18 18 17 21 22 20 21 18 19 20 25 23 21 19 22 23 21
14 12 11 9 7 6 6 4 2 2 2 2 3 4 4 5 4 5 6 7 8 10 12 14 16 17 17 17 22 21 20 21 20 25 23 23 23 21 19 23 23 22 20
14 12 11 9 7 7 6 5 6 7 5 4 5 6 6 7 8 9 7 9 12 13 15 17 17 19 20 24 21 19 22 23 24 22 23 25 23 21 26 23 21 21 20
14 13 11 10 9 9 8 7 7 7 7 8 8 8 9 10 10 11 12 14 16 17 17 16 19 24 26 23 21 22 23 22 20 21 23 25 27 25 24 23 21 21 21
14 13 13 13 12 12 11 10 10 11 11 11 10 10 10 10 12 14 17 19 18 16 19 22 25 24 21 22 22 21 21 22 23 25 26 27 27 28 28 26 24 22 20
15 15 14 14 14 14 13 13 13 12 13 13 12 11 11 13 15 17 17 16 20 24 27 26 25 24 23 23 24 25 26 27 26 26 25 26 25 26 23 23 21 19 20

GFSGL_925_spd_075.txt.gz
Wind_Speed
34 28 26 26 29 30 35 35 33 30 25 26 27 27 25 32 34 30 32 30 30 27 22 21 22 21 20 17 15 13 13 14 9 8 19 22 22 22 24 25 27 29 29
28 26 30 40 46 40 42 37 34 34 23 21 28 34 38 39 36 32 35 32 29 26 23 20 21 17 16 13 13 13 14 15 15 16 22 23 24 25 27 28 29 30 32
35 44 41 38 39 40 37 37 36 31 33 39 37 35 37 33 38 34 37 30 26 23 21 21 19 15 13 12 11 12 14 14 16 16 12 20 24 25 27 27 30 31 32
41 35 37 35 38 39 40 40 39 36 38 37 38 36 33 30 34 33 28 24 21 20 18 17 14 12 11 8 9 12 14 14 16 16 16 15 14 19 21 24 29 31 31
36 33 32 33 29 33 34 34 35 34 36 37 33 29 28 29 27 24 22 20 20 18 17 13 10 9 9 10 11 11 9 7 9 12 15 16 20 19 20 24 28 32 31
34 28 29 25 22 23 25 27 27 30 31 28 26 23 22 21 21 19 20 20 20 18 16 13 10 7 7 8 6 7 9 9 12 12 14 17 18 22 24 24 23 22 17
25 22 21 18 19 22 24 23 23 22 22 21 20 20 20 16 16 16 18 19 19 17 13 11 11 7 5 3 7 10 12 12 11 12 15 18 19 21 23 24 22 24 26
19 20 22 23 24 24 23 23 21 20 21 21 19 17 17 17 16 16 17 17 14 11 10 9 6 4 4 7 9 11 11 11 10 10 13 17 20 21 23 24 25 26 27
18 19 22 25 24 23 22 21 19 18 17 17 18 18 19 20 18 18 17 15 14 10 6 3 1 3 5 8 9 10 11 12 13 14 16 18 18 19 19 23 21 19 23
18 19 21 21 21 20 20 19 20 21 22 23 21 19 21 20 16 14 13 14 13 9 4 1 3 5 5 5 6 7 10 14 18 20 21 20 18 19 19 16 23 23 21
17 17 16 16 18 18 19 19 21 22 24 25 23 18 18 18 16 14 11 9 6 4 2 2 4 5 5 3 4 6 8 12 14 17 18 18 16 17 19 20 21 22 26
19 19 18 17 16 18 19 20 22 24 25 22 22 20 17 16 15 12 9 5 4 3 3 4 4 3 3 2 4 6 7 11 14 16 15 13 16 19 23 25 25 27 27
20 19 17 16 16 16 21 21 19 18 20 20 20 20 16 12 10 9 6 3 2 3 3 3 3 2 2 4 5 6 9 13 15 16 13 16 19 24 25 26 26 27 28
25 23 21 19 18 17 16 15 17 18 20 21 20 20 17 12 7 5 3 1 1 2 2 2 2 2 3 5 7 9 12 12 14 13 16 19 22 22 23 24 26 28 29
26 25 24 22 21 19 17 15 16 13 17 21 18 18 18 11 7 4 2 2 2 2 2 2 3 2 5 6 6 8 9 12 12 15 17 19 20 24 23 24 25 27 23
28 23 24 26 24 26 27 26 21 17 13 11 10 10 9 9 7 4 3 3 2 1 1 2 2 2 4 4 5 8 8 11 12 15 17 17 19 22 23 26 23 22 24
27 23 24 23 22 22 21 21 19 15 14 12 9 6 6 9 6 3 1 3 2 4 3 3 1 3 5 5 7 9 11 12 14 15 20 17 20 21 20 22 22 22 24
31 28 27 24 21 17 15 14 12 10 8 6 5 7 7 6 4 3 4 5 3 3 2 1 3 5 5 7 8 10 13 15 13 18 19 16 19 18 20 22 21 21 22
28 22 19 17 16 16 14 12 9 8 7 6 5 6 7 4 1 4 6 4 2 2 2 5 7 7 9 11 13 15 14 14 18 17 17 14 18 18 23 21 21 21 22
24 21 19 17 15 14 12 11 10 9 8 7 5 2 2 3 6 6 5 3 2 3 6 7 7 9 12 15 16 15 17 20 19 18 18 16 20 20 22 21 20 20 22
22 21 19 18 17 15 13 11 9 8 8 7 5 4 4 5 5 4 4 4 6 7 7 8 11 14 15 16 17 19 20 20 18 19 18 22 20 21 21 20 18 25 21
22 20 19 18 16 15 13 11 10 9 7 6 5 5 5 5 5 6 6 6 7 8 10 14 16 16 16 18 20 22 22 21 21 20 22 20 20 21 22 20 24 22 21
21 20 19 17 16 14 12 12 11 10 9 9 8 7 8 9 9 9 9 11 13 15 16 16 16 19 21 22 22 19 19 21 21 20 20 22 23 21 20 22 21 21 20
20 19 18 17 16 15 14 13 12 11 10 10 9 9 9 8 9 10 12 15 17 16 16 19 21 24 25 22 20 19 19 19 19 20 20 23 24 23 22 21 21 22 22
20 19 18 17 17 15 14 13 13 11 10 9 10 10 7 8 11 14 15 16 18 21 23 24 24 23 21 21 20 19 19 19 20 22 23 24 26 27 26 25 23 24 22
19 17 16 15 14 14 13 12 12 12 11 10 7 6 9 12 14 17 20 21 23 24 23 23 24 24 23 21 21 21 22 22 21 20 20 22 25 25 23 23 23 22 20

GFSGL_925_spd_078.txt.gz
Wind_Speed
36 32 29 28 30 35 41 44 46 45 43 41 42 38 33 32 33 30 32 27 27 30 30 33 32 26 19 19 17 16 13 12 8 8 11 16 17 15 16 17 19 20 21
31 31 40 41 42 49 52 49 40 40 47 43 37 32 36 35 34 32 33 35 29 31 31 31 27 22 19 17 16 16 13 12 10 9 11 15 15 16 21 23 22 21 22
34 39 37 38 41 41 39 41 37 39 41 42 38 37 31 29 31 31 31 31 30 31 32 27 24 21 18 17 15 14 12 12 11 9 8 12 14 21 18 19 21 24 26
39 38 39 39 46 33 29 34 37 38 40 38 37 34 31 28 27 26 27 26 27 26 23 20 21 20 19 16 14 10 9 9 9 7 8 8 11 15 19 20 25 30 32
37 38 42 44 41 37 37 35 34 34 35 33 32 30 29 27 27 26 24 25 22 17 14 14 13 13 10 12 10 8 8 7 5 4 7 9 15 16 16 16 23 25 27
35 35 34 33 33 35 31 28 28 29 29 30 29 28 29 23 20 20 20 20 17 18 20 18 15 11 11 7 7 8 5 5 5 6 8 11 14 17 17 19 22 16 9
29 29 29 28 26 24 20 20 21 22 23 23 22 21 19 16 16 15 15 17 20 21 21 17 15 11 9 6 5 5 5 5 5 6 8 11 13 14 18 21 19 16 18
21 21 22 23 20 17 16 17 17 18 17 17 17 17 15 14 15 18 19 21 21 19 16 14 11 9 7 6 4 4 4 4 4 5 7 11 14 17 17 16 20 24 26
18 18 17 17 16 16 17 17 16 16 15 14 14 15 18 21 18 18 22 22 21 17 13 10 8 6 3 3 3 3 3 3 4 6 8 11 13 14 14 17 17 17 22
16 16 17 16 17 18 17 15 15 16 18 18 18 18 21 21 16 17 17 19 18 16 12 8 4 1 2 2 3 2 3 5 10 12 13 12 12 11 10 11 14 17 17
18 18 16 14 15 15 16 16 19 20 21 22 23 22 21 18 16 13 11 12 13 12 9 6 3 2 1 1 1 4 5 7 10 12 14 14 13 14 15 15 16 16 19
19 18 16 15 15 16 19 20 19 22 25 24 24 22 18 16 15 14 12 10 9 7 6 4 2 2 3 2 2 4 6 8 11 12 13 11 12 14 16 19 19 21 22
21 20 18 17 17 16 18 20 20 22 24 21 20 20 17 14 13 11 10 8 6 4 3 1 0 1 2 1 3 5 7 9 10 11 9 11 13 15 17 19 19 21 24
24 23 22 22 20 18 18 18 19 19 18 17 17 15 14 12 10 7 6 5 4 3 2 2 1 2 1 2 4 6 8 8 9 9 11 14 15 15 15 16 20 21 23
27 25 24 24 24 22 18 13 13 10 11 16 14 14 15 10 6 4 3 4 5 4 2 1 1 1 2 4 5 6 7 8 9 10 13 14 16 15 16 15 17 20 18
24 22 22 24 23 23 25 29 25 19 15 13 11 8 9 9 7 6 7 6 4 3 2 0 2 2 4 4 5 6 8 9 10 12 13 14 17 16 18 17 17 18 20
25 23 24 23 22 23 22 20 20 21 19 16 13 10 7 9 9 7 3 2 1 3 4 4 5 5 6 5 6 7 10 11 13 14 14 17 17 16 18 17 18 17 19
31 28 27 24 24 21 20 18 16 15 13 12 9 8 8 6 3 1 2 4 3 4 4 5 5 6 7 8 9 9 11 15 16 14 18 18 18 16 17 17 18 17 19
31 28 26 25 23 21 19 18 16 15 14 12 11 11 10 4 3 4 6 6 4 4 3 5 7 8 8 10 12 15 16 17 18 20 20 19 18 17 19 17 18 18 19
30 27 25 24 21 20 19 18 17 15 13 12 11 8 4 6 9 8 6 3 2 4 6 7 7 8 12 15 16 17 17 20 21 21 21 20 18 20 22 21 20 18 17
28 26 24 23 22 20 19 18 16 15 14 13 12 9 8 8 8 7 6 6 7 7 8 9 13 15 17 16 17 20 21 23 23 22 21 21 21 22 20 19 18 18 19
26 24 23 22 21 20 19 17 15 14 13 12 10 9 8 8 8 8 7 8 10 11 13 15 16 17 18 20 22 24 25 25 23 21 21 22 20 19 20 20 19 19 20
24 23 22 21 20 19 19 18 17 15 13 11 9 9 9 8 8 8 9 11 13 15 15 17 20 22 23 23 23 22 23 24 23 21 21 22 22 22 21 19 19 20 18
22 22 21 20 18 18 18 17 15 13 11 9 8 7 6 6 8 10 12 14 16 18 20 22 23 24 24 23 22 22 21 21 20 20 21 23 25 24 21 21 21 20 20
21 21 20 19 19 17 15 14 13 11 10 9 8 7 8 10 12 15 17 19 21 23 23 22 22 23 24 24 22 20 19 19 20 22 23 23 24 25 26 25 23 22 20
20 20 19 18 16 15 13 12 12 11 11 10 9 10 13 15 16 19 20 21 21 22 24 26 26 26 25 23 21 20 21 21 22 21 19 20 22 24 25 24 22 20 20

GFSGL_925_spd_081.txt.gz
Wind_Speed
31 30 29 29 30 32 34 38 41 39 38 38 37 35 34 34 32 31 29 30 29 33 29 24 23 30 29 29 26 27 25 20 11 6 11 11 11 13 10 11 11 14 16
31 31 32 34 37 40 44 49 41 34 33 37 34 36 34 36 34 31 32 31 33 32 32 28 28 30 26 23 23 29 28 18 13 12 13 12 11 12 12 13 13 13 11
31 32 34 37 35 38 48 37 31 31 31 32 35 34 35 32 35 37 36 35 31 32 30 31 31 29 25 24 27 26 21 18 16 12 11 11 11 13 9 11 12 13 15
29 32 33 35 38 43 38 23 25 25 27 29 36 38 36 32 35 35 31 30 29 30 27 27 27 24 23 23 24 21 18 16 13 12 9 10 10 8 9 10 12 11 15
31 32 37 36 37 38 29 27 26 28 29 30 31 32 32 33 35 33 32 30 28 23 20 19 18 19 18 19 20 18 16 15 13 11 7 6 8 8 9 7 11 13 16
31 34 32 33 32 32 27 23 24 27 27 27 29 31 33 34 33 32 29 25 21 19 19 17 16 16 15 14 13 13 12 10 7 5 4 7 7 9 8 9 11 12 7
31 29 28 28 28 27 23 22 23 25 26 28 29 31 30 30 25 22 20 18 19 20 21 22 19 16 15 13 11 9 6 5 6 9 6 6 6 7 8 11 12 12 14
25 24 23 23 23 25 24 23 24 22 20 19 17 15 14 10 11 15 18 20 20 21 21 18 17 15 12 10 7 6 4 3 3 4 4 4 7 9 11 13 15 16 17
20 21 24 24 23 21 22 20 17 15 13 11 10 11 13 16 18 18 18 22 24 21 17 15 13 12 8 5 5 4 3 2 2 3 5 8 10 11 11 10 12 13 14
21 22 21 22 23 21 17 15 13 14 16 17 17 16 20 21 14 16 19 23 23 21 16 13 9 5 3 3 3 3 4 2 1 4 5 6 7 7 8 7 8 13 14
21 21 20 19 18 17 17 17 19 20 23 24 25 24 23 20 18 15 15 18 19 18 14 11 8 6 5 5 5 4 4 2 2 4 5 6 5 7 7 7 9 11 14
26 24 21 19 20 20 20 20 20 24 27 27 29 25 22 21 19 17 16 16 14 14 11 8 7 7 8 5 4 2 1 1 3 4 5 5 7 8 9 11 13 14 16
29 27 25 22 19 18 20 21 22 22 24 21 21 21 21 20 20 17 16 15 13 11 8 6 6 8 7 4 2 2 2 2 3 5 7 7 8 11 13 13 14 16 19
29 27 26 27 23 20 19 18 20 20 20 19 18 18 18 16 15 13 11 10 10 7 6 5 5 5 3 2 1 3 3 3 5 7 8 10 10 12 12 13 16 18 21
28 25 25 26 27 26 23 19 19 14 18 20 18 18 16 13 10 10 8 7 6 5 6 5 3 1 1 2 3 4 5 6 8 9 11 13 14 13 14 13 15 17 19
26 22 20 24 24 25 28 33 28 24 22 21 19 17 17 17 14 13 12 10 9 6 4 3 2 1 3 5 7 8 8 9 10 12 14 15 15 15 16 15 16 16 19
27 25 25 23 22 23 21 22 25 27 26 23 20 19 18 17 14 11 10 9 5 6 6 4 4 4 5 7 8 10 11 12 13 14 15 15 16 17 17 17 17 17 19
32 30 27 24 23 23 21 19 16 15 16 18 17 18 17 15 13 11 8 7 7 7 6 5 5 6 8 9 10 11 13 14 15 16 16 17 17 17 17 17 18 18 19
30 31 31 27 26 25 21 19 17 16 15 15 14 14 13 12 11 11 10 9 7 6 6 6 8 9 9 11 13 14 15 16 17 18 18 18 17 17 18 18 19 19 20
33 32 30 25 22 20 18 17 16 16 15 14 12 9 7 7 10 10 10 8 7 7 8 8 9 10 12 14 15 16 17 17 18 19 19 19 18 17 18 19 19 19 19
28 27 25 21 20 18 17 17 16 14 14 13 13 12 10 9 8 8 8 9 8 8 8 10 11 12 14 15 17 18 19 20 19 19 19 18 17 18 18 18 18 19 20
25 22 20 20 19 19 18 16 15 14 13 12 10 10 11 10 8 8 7 7 8 8 8 10 12 14 15 16 17 18 19 19 19 18 17 17 17 17 17 18 18 18 19
22 21 20 19 18 18 17 15 15 14 12 11 9 9 9 9 8 7 8 9 9 11 13 15 15 16 15 14 15 16 17 18 17 17 18 18 18 18 18 19 19 20 20
20 19 18 17 16 16 15 15 14 13 11 10 9 8 7 7 7 8 11 13 15 15 16 15 15 16 17 18 16 15 16 15 15 17 17 19 21 20 19 20 20 21 21
19 18 17 16 15 14 14 13 12 11 10 9 7 6 7 8 8 10 12 14 14 14 15 17 16 17 18 20 20 18 17 17 18 18 18 19 21 21 21 20 21 20 19
18 17 16 15 14 13 12 11 10 8 7 6 6 7 8 9 9 11 11 11 13 16 16 16 18 20 20 18 16 17 18 19 20 21 20 19 19 19 19 19 19 19 19

GFSGL_925_spd_084.txt.gz
Wind_Speed
31 31 30 32 34 35 34 34 35 33 32 32 29 28 27 26 25 25 27 26 24 25 22 22 26 30 32 31 29 29 28 29 16 14 17 19 18 17 15 17 13 13 15
31 31 32 32 33 35 38 38 37 36 34 31 29 29 29 29 28 28 28 26 25 23 29 30 31 33 31 32 32 30 28 30 21 17 21 17 18 18 17 13 12 14 16
31 32 31 33 35 39 39 38 36 36 35 32 32 32 32 31 29 29 29 28 28 33 25 29 31 31 31 31 28 27 24 24 22 10 12 16 17 12 12 12 13 16 15
30 32 33 34 34 33 31 29 30 30 30 30 30 30 30 30 30 28 27 26 26 27 29 29 30 30 30 29 26 21 22 21 21 15 10 9 11 10 9 10 15 15 14
30 32 33 31 30 30 29 27 26 25 27 26 26 26 25 25 26 26 26 26 25 25 26 26 26 24 24 21 21 21 20 19 17 14 9 7 8 7 11 11 13 15 16
32 32 29 29 29 28 26 24 25 25 25 24 22 22 22 23 25 29 30 29 30 28 21 18 15 14 14 15 16 18 19 17 16 11 9 6 9 11 11 12 13 14 13
31 29 28 27 27 27 24 23 23 21 20 20 20 20 20 22 26 26 26 26 21 18 17 15 14 15 16 15 13 13 11 10 9 8 6 8 10 9 10 11 14 14 15
26 26 26 25 24 23 23 23 17 13 14 19 19 17 16 15 14 12 17 16 14 14 16 18 18 17 15 15 13 10 8 5 4 7 8 6 7 8 9 11 14 16 18
25 24 23 22 21 18 17 15 14 15 14 11 8 9 8 9 10 11 12 16 17 18 18 17 15 15 13 11 9 9 6 5 5 7 9 10 12 12 13 9 12 14 16
24 22 18 18 18 17 17 16 14 14 14 13 12 11 13 16 10 10 13 21 24 23 18 16 13 12 8 7 6 6 6 5 4 4 5 6 7 8 12 10 13 14 15
17 20 19 20 21 21 19 19 19 20 21 21 22 20 19 17 15 16 19 22 23 21 16 12 10 6 5 4 5 3 3 3 3 4 6 8 8 8 9 10 11 14 16
17 22 23 23 23 23 24 23 22 25 27 27 29 26 23 21 19 17 17 19 18 17 14 11 9 8 6 6 3 3 2 1 3 6 7 9 9 10 11 13 15 17 18
26 23 26 27 24 22 26 26 26 26 26 22 22 22 21 22 23 20 19 17 15 15 11 9 7 7 6 3 2 1 3 4 6 7 9 10 10 12 14 16 16 17 19
28 24 24 26 25 24 22 21 21 20 20 19 19 19 18 16 16 16 15 13 12 13 11 9 7 5 3 2 1 3 4 5 6 8 10 12 14 15 16 17 18 19 20
28 25 23 26 27 28 27 23 22 17 19 21 20 22 19 15 11 12 11 9 8 9 8 6 3 0 2 4 5 5 6 8 10 11 12 14 16 17 17 17 19 20 21
25 22 22 24 26 26 29 37 34 28 25 25 21 23 22 21 18 17 16 14 12 9 5 3 3 3 5 7 8 9 9 9 11 12 15 16 17 18 19 19 20 20 21
25 23 23 24 22 25 23 25 31 33 32 29 26 24 23 20 17 15 13 11 10 6 6 6 6 7 8 9 10 11 12 12 13 15 16 18 18 19 20 21 20 21 21
34 28 26 26 24 23 22 23 23 22 22 24 24 23 21 18 16 14 9 5 7 10 9 8 8 9 10 10 11 13 14 15 16 17 18 19 19 20 21 21 20 20 20
30 29 28 27 25 24 22 22 21 20 19 18 15 14 14 15 16 16 13 10 9 8 9 9 9 10 11 12 13 15 16 17 18 18 18 20 20 20 21 20 20 20 20
31 31 26 23 20 20 20 19 19 18 16 14 13 11 8 8 11 12 12 10 9 8 8 8 9 10 11 13 14 15 17 17 18 18 19 19 19 19 20 20 20 21 20
28 27 24 21 20 20 19 18 17 16 15 14 13 12 12 9 9 9 8 8 7 7 7 8 9 10 12 13 14 15 16 17 17 17 18 18 18 19 19 19 20 20 20
23 21 20 19 19 19 18 17 16 15 13 11 9 10 11 9 7 6 5 6 6 6 7 9 10 11 12 13 14 14 15 16 16 16 17 17 17 18 18 19 19 19 19
20 20 20 19 19 18 17 16 14 13 11 9 8 7 7 6 5 5 5 6 7 8 9 10 11 11 11 12 13 14 15 15 15 16 16 17 18 18 19 20 20 20 20
20 19 18 17 16 16 15 14 13 12 10 9 7 6 5 5 4 5 6 7 8 9 9 10 11 12 13 14 13 14 14 15 15 16 17 18 20 20 20 21 21 21 21
19 19 18 16 15 14 13 12 11 10 8 7 5 5 5 5 6 7 8 8 9 10 11 12 11 13 14 16 17 16 16 16 16 17 18 19 21 22 22 22 21 21 21
18 17 16 14 14 12 11 10 8 7 6 6 5 6 6 7 7 8 9 9 11 13 12 13 14 15 16 15 14 14 17 19 20 19 19 19 21 21 20 20 21 21 21

GFSGL_925_spd_087.txt.gz
Wind_Speed
33 31 31 33 34 33 34 36 37 38 39 38 34 32 29 27 26 27 27 27 27 27 27 27 28 26 26 24 27 29 29 26 16 15 21 23 25 24 21 24 21 21 19
33 34 34 33 34 35 34 33 37 37 39 36 34 30 31 29 28 28 29 29 28 29 28 28 27 27 26 30 32 31 32 31 26 21 15 20 20 24 20 21 23 16 19
32 32 34 34 35 36 36 35 34 34 35 34 34 32 30 31 30 30 30 30 30 30 29 28 28 27 29 28 32 30 29 29 26 18 13 16 19 23 23 22 19 19 17
34 34 32 33 35 35 34 34 33 34 33 34 35 33 32 32 32 31 31 29 30 30 27 28 29 29 32 28 28 28 28 26 25 20 14 12 15 15 17 16 13 15 17
32 33 33 32 32 32 31 32 32 33 33 33 33 33 31 30 28 28 29 29 28 27 29 31 30 30 29 27 23 24 23 22 20 20 11 7 8 7 11 7 9 12 16
32 31 31 31 31 30 30 31 30 31 32 31 30 29 28 27 27 31 30 26 24 25 26 26 23 20 19 16 15 15 17 21 20 12 7 5 7 5 5 6 8 13 13
31 31 30 30 30 29 30 30 30 29 29 29 28 27 25 23 24 26 27 26 25 22 20 16 11 7 7 8 9 7 8 8 9 6 6 3 0 1 5 9 13 17 17
30 31 31 31 30 29 29 29 27 27 28 25 23 21 20 19 22 24 23 16 14 10 10 10 9 11 11 12 12 13 10 8 6 4 1 1 4 7 7 10 12 15 18
29 30 30 29 29 29 29 27 26 21 23 20 17 15 14 12 7 10 13 15 15 14 13 13 14 16 14 13 10 10 6 4 0 2 4 6 9 11 14 15 12 13 16
22 24 25 25 24 23 21 20 20 21 20 17 16 13 14 17 13 10 11 19 23 23 20 20 17 15 12 11 9 8 7 4 3 3 5 7 9 9 11 11 11 14 16
18 17 17 16 15 17 19 19 22 25 26 25 25 21 20 17 14 14 17 22 26 24 21 19 16 13 10 9 8 6 5 3 4 5 6 7 8 9 9 10 11 13 16
21 19 17 16 18 18 22 23 26 29 30 27 30 28 25 22 20 20 21 23 22 24 20 17 15 12 11 8 6 6 5 5 6 7 8 10 10 10 11 12 14 16 19
23 23 23 21 21 21 24 24 23 24 25 21 22 23 24 26 27 26 24 23 21 21 17 15 13 10 8 6 7 7 7 6 7 9 10 11 12 13 15 16 17 18 20
27 25 29 26 27 26 23 27 23 18 20 22 22 22 20 21 24 22 22 20 18 19 18 13 10 6 6 3 4 6 6 5 6 8 10 12 14 16 17 17 18 19 22
28 26 30 28 29 34 34 29 26 23 20 21 20 24 22 20 17 17 17 16 14 13 11 9 7 6 6 5 5 5 5 7 9 9 11 15 17 18 19 19 19 21 21
26 23 24 27 28 31 34 42 40 34 32 30 25 30 28 26 23 21 21 19 15 11 10 9 8 7 7 7 7 8 8 9 10 13 15 16 18 19 20 21 22 22 23
29 26 23 21 25 29 29 33 35 38 39 36 32 31 28 24 21 18 19 17 13 11 12 10 9 9 8 8 9 10 11 12 13 14 16 17 19 21 21 22 22 22 23
33 32 30 26 24 26 27 27 26 25 25 27 27 27 25 22 18 14 7 8 13 13 11 10 9 9 9 10 11 12 13 14 15 15 17 17 18 20 21 21 22 21 22
32 30 30 30 27 26 27 27 26 24 23 21 19 19 19 19 18 18 16 14 11 11 10 9 9 8 9 10 11 12 12 13 14 15 16 17 17 19 20 20 21 22 22
34 32 29 27 24 23 23 23 22 21 20 18 17 14 11 12 14 14 14 12 11 10 9 8 8 9 9 9 10 11 12 13 14 14 15 16 16 17 19 20 20 22 22
28 28 27 25 23 20 21 21 21 20 19 17 15 14 14 12 11 11 11 11 10 9 9 9 9 8 8 9 10 11 12 12 13 14 15 15 16 17 18 19 20 21 23
23 22 21 22 20 20 19 18 18 17 16 14 13 13 12 12 10 10 9 8 8 8 8 8 8 8 9 9 10 11 12 12 13 13 15 15 16 17 18 19 20 22 22
21 21 21 20 20 19 19 17 16 15 14 12 10 10 10 10 9 8 8 8 7 7 8 8 8 8 8 9 10 10 11 12 13 13 15 16 17 18 19 21 22 22 22
21 20 19 19 17 17 17 16 15 14 12 11 10 9 9 8 8 8 7 7 6 6 7 8 8 9 10 11 10 11 11 12 13 14 15 17 19 19 20 22 22 23 24
19 19 18 17 16 15 15 14 12 11 10 9 8 8 7 6 6 6 5 6 6 7 9 9 9 11 11 13 14 13 13 14 15 16 17 18 20 22 23 24 23 23 23
19 18 17 15 14 13 12 11 10 9 8 7 6 6 5 5 5 5 6 7 8 10 10 10 11 12 13 13 12 12 17 17 18 18 18 19 21 22 22 22 23 24 24

GFSGL_925_spd_093.txt.gz
Wind_Speed
32 31 32 34 33 32 31 34 31 34 35 35 39 39 37 35 34 30 35 33 32 33 34 32 34 33 32 31 32 33 33 31 16 26 26 28 28 32 33 32 34 36 39
32 32 29 32 35 36 35 34 35 35 36 35 36 35 36 38 36 36 36 33 35 35 36 35 36 35 34 33 34 36 35 35 26 21 22 26 31 31 32 34 34 34 35
32 32 32 31 33 35 36 35 37 37 37 39 37 36 35 34 36 40 38 36 38 36 37 37 36 36 36 36 38 37 36 34 33 23 23 21 23 27 26 28 28 26 22
32 32 33 33 34 33 35 36 35 38 39 39 40 40 39 37 37 34 36 40 41 39 38 39 38 38 38 38 38 37 36 31 27 25 18 15 13 13 12 12 11 12 13
33 33 33 34 33 33 35 36 37 37 38 38 39 39 40 40 40 36 36 38 38 39 41 38 37 37 37 37 34 34 30 26 20 13 4 2 1 1 3 3 1 2 3
33 34 33 33 33 33 32 34 36 38 38 39 37 40 38 39 42 46 43 37 38 39 39 35 30 29 28 28 24 23 18 12 8 6 3 4 6 7 6 6 4 5 4
35 33 36 35 36 36 34 33 32 34 33 37 38 36 37 41 41 42 42 41 40 36 32 26 21 15 10 10 7 8 9 9 7 7 14 10 9 5 6 6 5 2 2
31 34 32 37 36 35 35 35 34 34 34 31 32 34 33 34 38 37 37 37 27 21 17 16 12 11 12 11 16 22 24 23 21 18 15 12 10 5 6 4 5 6 9
31 32 33 31 32 33 34 34 32 31 29 30 28 30 30 24 21 30 34 24 18 15 13 13 15 17 16 19 25 26 25 25 24 20 17 13 10 9 9 8 9 12 5
22 34 30 34 31 29 29 29 29 32 27 24 22 20 22 22 18 20 22 27 25 25 24 25 24 26 23 24 23 27 28 22 19 16 13 13 9 10 12 12 11 13 9
20 13 30 33 33 32 31 27 25 26 27 26 25 21 20 20 18 19 22 26 33 34 30 29 26 24 25 28 26 28 26 18 15 15 14 13 12 12 13 12 12 14 14
16 25 20 11 19 30 31 25 27 32 33 28 30 26 21 19 18 20 25 32 38 41 33 32 25 26 26 26 27 22 17 16 14 14 13 13 12 14 14 13 13 13 11
26 27 28 25 19 14 27 33 27 22 23 24 23 24 25 25 31 33 33 37 38 43 37 31 31 26 27 26 22 19 19 17 16 16 14 12 12 11 11 13 15 16 17
30 28 27 29 28 27 23 21 23 25 14 25 21 25 27 26 25 23 39 42 35 35 30 33 28 28 25 26 23 22 19 17 17 15 12 10 9 13 14 17 15 16 15
29 28 28 29 29 33 34 28 33 29 26 28 33 21 25 27 28 28 16 30 35 31 29 26 22 23 23 22 22 19 16 15 15 12 11 11 12 13 13 15 13 14 13
29 28 29 27 27 29 36 41 46 45 42 36 44 42 31 35 30 34 35 23 24 25 27 19 21 22 21 20 19 18 16 14 12 11 12 13 12 13 13 13 14 16 15
29 29 29 27 27 25 28 33 33 44 43 40 38 38 36 33 32 29 29 27 24 23 24 20 20 19 18 18 18 16 15 13 12 12 12 12 12 12 13 14 15 17 15
31 30 28 27 28 27 26 26 29 28 29 31 32 32 29 27 26 26 25 25 25 23 22 20 20 20 18 17 15 14 13 13 12 10 10 11 11 12 14 15 15 16 16
26 26 26 28 28 24 26 30 29 28 26 29 28 29 30 27 25 24 22 25 21 20 20 21 19 18 17 14 12 12 11 11 10 9 10 10 10 12 13 15 18 20 19
30 27 25 25 26 26 24 25 25 23 22 23 21 20 21 23 26 25 24 24 24 22 20 19 17 15 12 10 9 8 9 8 8 8 9 10 11 12 14 17 19 21 18
29 31 29 27 25 24 23 24 24 24 24 23 23 21 21 23 22 22 22 20 19 18 16 15 12 9 7 6 6 6 6 6 6 7 8 11 13 15 16 17 19 20 19
27 27 26 25 24 24 23 22 21 22 22 23 25 24 22 23 22 21 19 16 14 12 10 9 8 6 6 5 4 3 4 5 6 9 12 14 14 14 15 18 20 19 19
28 28 27 27 26 25 24 22 21 22 23 23 22 21 19 20 19 17 15 12 10 9 7 5 4 3 4 5 3 3 5 6 9 12 14 16 17 18 18 17 18 18 18
27 25 24 24 24 24 25 25 24 23 23 22 21 20 19 16 15 13 11 8 6 5 6 6 5 5 7 9 9 5 3 4 8 13 17 19 16 16 18 19 20 20 20
24 25 24 23 24 24 24 24 23 21 21 19 18 18 18 15 12 9 7 6 7 7 6 3 5 7 9 7 4 6 7 9 14 15 13 15 18 19 19 20 20 20 20
25 24 23 24 25 24 23 22 19 17 17 16 15 12 10 10 8 6 5 6 3 3 4 5 6 6 4 4 6 8 12 13 13 14 18 20 19 19 19 20 21 22 22

GFSGL_925_spd_096.txt.gz
Wind_Speed
33 31 29 30 29 26 30 30 30 32 31 33 36 37 39 35 39 40 39 39 36 33 35 36 39 37 36 35 34 34 34 31 14 27 28 32 31 31 28 29 30 30 32
32 31 30 30 30 30 28 33 31 33 35 37 38 39 37 39 39 40 39 37 37 36 37 36 39 37 34 35 36 37 38 36 25 22 28 31 32 28 24 25 29 28 28
32 30 29 31 31 32 33 31 33 34 37 36 38 41 42 40 40 40 40 38 38 39 38 39 38 36 36 36 38 37 37 38 35 26 25 24 21 22 22 21 21 19 19
32 30 30 31 32 31 31 33 35 36 37 41 37 37 37 40 42 42 41 39 39 39 39 40 38 37 38 38 39 40 39 35 31 26 20 19 17 14 12 10 7 8 7
32 33 31 30 30 31 32 33 33 35 37 37 39 38 38 39 38 37 37 37 37 38 41 39 38 39 40 41 38 34 33 31 25 22 14 7 6 5 4 3 3 2 1
32 33 34 33 31 32 33 34 34 35 35 34 36 39 39 42 40 40 38 36 38 38 37 38 37 37 37 39 39 39 33 27 27 18 10 8 7 6 8 5 4 2 1
27 29 32 34 35 34 31 33 34 35 34 35 34 35 37 39 41 44 44 42 38 41 40 38 33 28 25 23 17 15 13 12 14 12 12 13 11 10 8 9 8 6 4
26 26 27 31 32 32 34 34 33 33 36 35 36 37 35 40 43 43 42 43 44 40 36 36 33 29 22 20 19 18 19 19 18 20 19 22 17 11 10 8 7 4 3
19 21 25 27 30 32 32 33 33 33 32 35 35 36 36 37 39 40 40 37 31 24 21 20 22 21 20 23 26 29 30 28 25 30 26 19 19 12 11 7 11 10 5
14 13 14 26 30 31 33 32 32 33 30 31 31 30 34 38 35 38 38 35 28 23 19 18 21 24 24 26 31 27 29 19 22 22 21 18 15 17 16 15 13 14 7
13 11 7 10 18 25 27 28 33 33 29 25 22 18 19 18 18 23 25 34 34 29 25 27 28 30 31 27 25 28 30 23 21 21 17 16 15 15 15 14 15 13 11
15 18 20 21 12 6 17 18 21 27 26 22 24 24 18 15 13 15 17 25 28 34 30 33 29 30 30 32 30 23 24 21 16 17 15 13 14 17 15 14 13 10 8
21 24 24 24 26 26 20 14 14 17 20 18 21 25 26 28 31 33 34 38 41 44 41 35 31 31 29 29 24 23 23 19 18 19 15 13 14 13 12 13 13 12 11
22 24 26 30 31 31 29 26 22 15 15 23 23 23 26 26 28 31 40 41 43 41 38 36 32 31 34 26 23 22 22 17 18 14 12 11 11 13 16 16 17 17 13
22 20 21 28 33 39 40 31 32 27 17 21 21 25 30 28 28 30 28 34 38 34 33 27 28 24 26 24 21 19 16 14 15 13 14 14 14 14 15 15 16 15 11
23 23 21 19 23 29 38 41 43 39 40 29 34 31 28 37 35 34 34 30 32 31 28 24 23 22 19 17 19 17 15 15 13 12 13 14 14 13 12 13 13 13 12
23 22 22 20 20 24 26 29 36 42 43 39 38 39 34 34 34 33 32 28 27 26 28 24 24 22 17 16 16 15 16 14 12 14 13 13 11 11 11 12 14 15 15
27 26 24 26 21 24 25 26 26 27 29 32 33 34 31 30 30 27 26 26 27 25 25 23 22 20 17 17 16 15 14 13 14 12 11 10 11 11 12 13 15 15 15
25 27 25 25 24 22 27 28 26 25 26 26 28 31 29 27 25 22 22 27 24 23 21 22 19 18 17 17 16 14 12 12 10 10 10 9 10 11 11 12 13 14 13
28 27 25 24 25 21 23 25 24 23 24 22 21 19 21 23 26 25 24 25 24 22 19 19 17 16 14 13 12 10 10 9 8 8 8 8 9 10 11 12 13 14 13
26 27 25 25 24 22 22 23 22 23 22 22 23 20 22 26 24 23 22 21 20 18 17 16 14 13 9 8 8 7 8 7 6 5 8 9 10 11 10 11 11 13 15
26 24 25 22 22 22 21 22 23 23 22 22 23 21 22 24 23 21 20 19 16 14 12 10 10 9 6 6 5 4 4 4 4 6 8 9 9 10 11 10 12 15 16
26 25 24 25 23 23 23 22 23 23 22 22 21 21 21 20 19 18 16 14 12 10 8 6 6 5 6 6 4 2 2 3 4 6 8 11 11 10 12 13 15 16 16
24 23 23 22 22 22 22 22 21 21 21 21 21 20 19 17 15 13 11 8 7 6 5 4 4 5 6 5 1 0 1 1 4 9 11 11 11 13 14 15 15 15 16
21 22 22 21 22 23 23 22 21 20 19 18 18 17 15 14 12 10 8 6 4 3 3 1 2 3 4 1 1 1 1 6 8 9 11 12 14 14 13 14 15 16 18
20 21 21 21 21 21 21 21 19 17 17 16 14 12 10 9 8 6 5 3 0 2 2 2 3 2 2 4 5 7 9 9 9 11 14 14 14 13 14 15 17 18 20

GFSGL_925_spd_099.txt.gz
Wind_Speed
27 29 28 30 29 28 28 27 30 27 24 26 29 30 31 34 39 41 37 33 35 33 26 26 26 25 25 27 28 25 35 26 13 23 27 32 29 30 31 30 29 30 29
26 27 29 29 29 29 28 29 29 30 29 29 31 32 34 36 38 36 35 37 34 34 34 29 28 28 27 34 34 32 35 32 23 25 27 29 30 32 28 25 24 24 26
27 27 27 28 29 30 30 30 29 30 32 30 32 34 33 35 38 37 37 40 37 38 36 36 33 33 36 39 40 35 34 33 31 25 27 22 24 24 24 25 24 22 19
27 26 27 29 29 30 31 31 31 31 32 35 33 34 36 36 36 36 36 36 36 36 38 40 39 36 38 36 36 37 36 31 28 24 23 25 28 26 20 16 13 9 9
24 24 26 27 28 27 29 31 32 32 31 35 36 36 39 40 38 37 35 35 35 36 37 36 39 40 40 37 38 37 35 30 26 24 22 20 18 14 13 13 11 10 4
21 20 22 23 25 26 27 28 29 31 32 33 36 36 37 39 39 44 42 38 37 38 38 40 40 40 40 40 41 40 38 31 29 26 24 16 18 14 12 12 10 5 3
21 24 24 25 24 24 25 26 28 29 29 33 34 37 37 40 39 39 41 41 37 40 38 37 40 38 35 32 30 29 27 26 29 29 18 6 7 4 7 10 9 5 5
18 18 21 24 25 24 25 27 27 26 29 29 31 36 36 39 42 44 42 41 43 41 39 39 40 39 33 28 21 13 6 5 4 11 16 18 18 11 11 10 7 11 9
3 5 16 24 25 25 27 26 26 27 27 30 30 32 35 36 39 40 41 43 42 39 35 30 30 30 27 24 23 22 26 29 29 30 29 25 23 16 14 8 12 10 5
12 9 7 8 23 28 29 29 28 28 29 29 29 31 33 34 33 36 38 42 38 30 23 20 19 21 24 24 25 27 27 23 25 27 25 23 22 20 17 15 13 11 4
11 10 9 8 6 8 25 29 29 28 27 25 24 22 23 27 32 37 36 38 36 26 20 21 23 27 29 29 28 28 31 27 26 24 21 22 20 17 19 16 14 12 8
15 17 15 12 10 7 6 7 12 16 17 16 13 11 10 10 10 13 18 22 26 34 30 32 35 33 31 29 30 30 28 25 25 23 21 18 16 16 14 13 11 10 9
22 22 21 20 19 16 16 17 21 19 21 18 19 22 21 21 25 21 30 40 41 40 37 39 38 38 39 31 26 22 23 24 23 22 20 16 13 12 11 11 11 8 7
22 22 23 26 25 25 24 22 24 24 24 23 17 19 23 22 20 22 34 47 46 47 40 35 35 31 36 32 28 25 21 19 23 18 16 14 12 12 14 10 11 10 8
19 19 22 25 27 30 33 27 23 16 19 29 30 29 26 24 19 20 19 25 24 35 41 38 35 31 26 23 26 23 18 17 19 16 13 14 13 11 12 12 12 11 10
20 20 20 22 22 25 31 40 45 39 32 29 27 30 30 34 35 30 37 32 32 28 27 28 26 24 20 18 20 20 19 17 15 14 14 11 10 10 9 10 11 12 12
20 22 23 22 21 22 24 25 32 42 49 45 40 37 35 34 33 31 31 32 28 29 29 23 23 23 20 19 19 17 16 15 13 14 14 12 11 11 10 10 12 12 12
24 24 24 22 22 23 23 25 25 27 29 33 36 35 32 29 27 24 24 25 28 28 25 23 21 21 19 19 18 17 14 13 13 13 13 12 10 9 9 10 9 11 11
21 22 26 25 25 25 25 26 26 27 25 26 27 29 26 23 22 21 21 27 24 24 23 22 20 19 18 18 18 16 13 12 11 10 9 9 8 8 6 6 8 9 10
25 25 25 24 24 25 22 24 24 24 25 25 23 19 19 20 25 25 25 25 25 23 22 21 19 18 17 15 13 11 12 10 9 7 6 6 6 5 6 7 8 9 10
24 26 26 26 24 23 24 23 23 24 23 24 22 19 20 26 24 24 23 23 22 20 19 18 16 14 11 10 9 8 8 8 6 4 4 5 5 6 6 6 7 9 12
23 23 24 24 24 23 23 23 24 23 22 24 23 22 22 25 24 23 22 20 18 16 14 12 12 10 8 7 6 5 5 3 2 2 3 6 6 6 7 10 11 12 13
23 24 23 23 23 24 24 22 22 22 22 22 22 21 21 22 21 19 17 14 12 11 10 8 7 6 5 3 2 2 2 1 1 2 6 7 8 10 12 12 11 12 13
21 22 22 21 21 22 22 22 22 21 21 21 20 20 19 18 16 14 12 9 8 8 6 5 4 3 3 2 1 2 2 1 2 6 8 8 10 12 11 11 12 12 13
19 20 21 21 22 22 22 21 20 19 19 18 17 17 16 14 13 11 9 7 6 3 2 0 2 3 3 1 1 2 2 4 6 7 9 11 13 12 11 12 13 14 16
18 19 20 20 20 19 19 19 18 16 16 15 14 12 11 10 9 7 6 3 1 2 4 4 3 3 3 4 5 7 7 7 7 9 12 13 12 11 12 14 15 17 18

GFSGL_925_spd_102.txt.gz
Wind_Speed
27 23 27 28 26 23 23 23 23 20 21 23 25 30 32 32 39 40 34 36 38 35 32 34 26 23 20 22 21 20 22 21 10 22 25 29 27 28 29 28 26 25 26
26 24 27 29 27 25 25 25 25 24 24 25 26 28 31 33 35 39 41 39 38 32 34 36 33 28 19 26 26 24 24 25 23 22 23 34 32 29 28 27 25 23 22
22 22 22 26 27 27 26 25 25 26 26 24 27 29 26 28 32 32 31 31 34 32 31 31 35 29 27 27 27 27 28 28 30 24 22 24 27 25 24 24 24 23 22
19 20 20 23 24 25 26 26 26 27 28 26 26 30 33 33 34 36 35 33 34 34 33 29 33 33 33 30 29 33 34 31 27 24 25 22 23 26 26 25 22 17 12
20 17 17 24 25 25 26 26 26 26 26 28 27 28 30 32 35 35 36 34 34 35 37 39 39 39 38 35 33 32 32 29 24 22 22 23 23 20 17 15 16 14 7
15 15 15 18 21 24 25 26 27 27 27 28 30 31 32 34 35 37 37 35 36 35 35 40 44 41 38 34 34 33 32 29 24 23 23 18 23 19 20 15 12 11 5
19 17 18 18 22 26 27 27 26 27 28 28 29 31 31 35 35 36 37 38 38 40 39 38 40 39 37 33 32 32 30 29 32 29 22 11 10 12 14 12 11 12 9
14 14 18 22 22 22 25 27 27 27 29 30 30 31 32 33 35 36 38 39 41 42 43 44 43 42 38 33 29 21 12 10 10 13 12 9 9 11 13 16 13 18 17
16 10 5 6 17 22 24 25 27 27 27 28 30 31 33 34 36 37 39 41 42 44 43 42 41 40 39 35 29 20 19 24 26 26 26 25 22 20 17 16 15 11 6
16 13 10 7 5 7 20 24 24 28 28 28 28 27 28 31 33 36 38 40 34 39 36 32 29 31 29 31 31 31 31 27 28 28 27 27 24 23 21 18 15 14 9
15 14 15 14 10 10 8 15 24 25 21 18 16 9 11 12 20 28 34 39 35 30 22 15 13 17 25 25 25 26 31 31 29 30 28 26 24 22 21 21 16 13 11
17 19 20 19 17 14 11 6 3 13 13 14 17 19 19 16 14 9 6 9 12 19 20 27 31 33 33 29 31 34 34 31 27 26 25 25 23 20 19 18 15 16 15
22 23 23 23 23 23 23 18 19 19 23 21 22 23 23 27 32 31 26 23 26 38 39 36 38 35 36 36 31 32 29 28 26 27 25 19 20 15 14 14 12 13 13
22 23 24 27 29 30 29 25 21 18 20 22 23 22 23 25 29 32 35 38 41 45 38 38 37 38 36 34 30 28 26 24 26 24 23 17 16 16 16 13 13 8 12
21 23 23 25 28 34 39 28 27 24 20 20 20 20 23 24 23 26 28 29 31 35 40 41 37 33 30 28 27 26 22 21 26 22 21 18 15 13 15 13 14 14 12
18 21 20 23 24 25 32 42 47 45 42 38 35 37 39 38 36 35 35 33 32 32 35 29 26 24 23 21 21 22 20 20 20 18 19 16 14 12 12 13 13 14 13
24 19 20 21 21 20 21 26 28 39 45 43 39 36 36 35 34 33 34 33 31 31 33 26 24 22 21 21 19 20 19 18 17 19 19 17 15 13 12 12 13 13 11
25 26 25 22 24 26 24 22 22 23 25 28 34 33 31 30 28 26 26 29 33 32 30 25 22 21 20 19 17 18 18 18 18 18 17 16 14 12 12 12 12 13 12
22 25 27 27 26 25 23 23 23 23 22 22 25 31 28 27 27 24 23 30 28 27 27 26 23 21 20 19 18 17 17 16 15 15 15 14 12 10 11 10 10 10 10
25 25 26 25 25 25 23 23 23 23 23 24 24 20 19 25 29 29 28 28 28 26 25 25 22 20 18 16 15 14 14 13 12 12 11 10 9 9 9 9 10 11 11
23 24 24 24 24 23 22 22 22 23 23 24 25 23 24 30 29 28 27 27 25 24 23 21 19 17 13 12 11 10 11 10 8 8 8 7 7 7 7 8 8 9 10
21 22 22 22 22 22 21 21 21 22 22 24 25 26 27 29 28 27 25 24 22 20 18 16 16 13 11 9 8 7 7 6 5 5 5 6 6 6 7 8 7 8 9
20 21 21 21 22 22 23 23 24 25 24 24 24 24 25 26 24 23 21 19 18 16 14 12 11 10 8 6 5 4 3 3 2 2 3 4 4 6 7 7 8 9 10
18 19 19 20 20 22 23 23 23 23 23 23 23 23 22 20 20 19 17 15 13 12 11 9 8 7 6 5 4 3 3 1 1 3 4 4 5 8 7 8 9 9 10
17 18 19 19 20 21 21 21 21 21 21 21 21 20 18 17 16 15 13 11 10 8 6 5 5 5 4 2 1 0 1 4 5 5 6 7 9 9 8 9 10 11 12
17 18 19 19 19 19 19 19 19 18 18 17 16 15 14 13 12 10 8 7 6 6 5 4 4 4 2 3 4 5 6 6 7 9 11 11 10 9 10 10 11 13 14

GFSGL_925_spd_105.txt.gz
Wind_Speed
25 22 22 19 19 17 16 16 16 14 12 14 21 28 31 32 37 38 40 38 34 35 34 34 30 25 26 24 20 18 24 16 13 15 21 17 18 22 23 23 22 22 22
24 21 21 17 18 18 17 17 16 17 15 15 20 25 28 29 36 38 37 37 36 31 32 33 31 32 24 24 24 27 30 26 22 19 18 23 26 29 26 23 20 20 18
24 22 21 18 18 18 16 17 17 17 18 16 21 25 27 30 31 32 33 36 36 31 40 32 31 29 30 23 25 31 23 28 30 21 18 18 24 29 30 29 21 17 15
21 19 18 18 18 18 17 18 18 18 19 21 24 25 26 28 29 32 32 35 39 37 36 35 34 33 38 32 32 25 29 25 21 20 20 20 20 19 23 17 19 14 13
19 18 17 17 16 17 18 19 19 19 21 21 21 25 28 29 30 29 30 28 29 31 32 35 34 37 39 40 33 33 29 27 23 22 22 23 20 19 21 20 19 18 12
18 17 16 17 16 16 18 19 18 19 19 20 22 24 23 23 29 35 33 28 28 28 30 33 34 34 34 34 33 34 32 28 24 22 20 19 22 22 26 23 18 10 5
18 19 18 16 17 17 16 17 18 19 20 20 20 22 25 25 28 32 35 29 32 31 30 30 31 34 35 35 32 32 34 34 33 29 24 22 20 21 19 15 15 8 5
13 12 14 16 18 18 18 18 17 18 22 22 23 26 26 28 27 28 32 32 27 28 30 30 31 31 40 38 32 24 18 15 15 17 17 15 16 14 15 13 15 22 20
18 19 10 7 5 14 20 21 20 20 20 23 23 26 27 28 29 30 31 36 32 32 31 30 28 28 33 35 32 22 12 13 16 16 18 16 13 15 17 20 18 12 6
20 14 10 10 7 6 3 10 24 23 23 22 16 16 19 19 22 30 32 36 35 29 28 30 31 30 33 35 30 30 26 24 22 23 24 23 22 21 18 18 15 16 9
13 14 17 17 13 12 7 4 6 15 17 16 16 12 8 5 10 17 31 29 25 22 17 11 9 9 16 16 19 23 26 30 29 29 28 27 25 24 24 20 18 14 12
19 21 22 22 20 17 14 13 10 14 21 21 22 22 19 16 10 10 7 5 16 16 23 26 28 28 26 25 28 33 32 30 30 28 27 23 23 23 19 19 20 19 18
25 26 26 26 25 24 24 21 21 18 21 19 20 21 22 26 30 28 26 28 31 36 37 41 40 39 39 36 35 33 30 29 28 30 25 21 19 14 16 16 17 16 16
24 23 24 28 28 28 27 26 22 20 19 19 20 20 20 21 21 25 33 36 39 44 36 39 41 41 40 36 33 29 28 25 26 25 22 17 15 15 15 12 9 10 13
21 22 23 23 27 34 39 30 30 29 22 23 22 22 22 24 22 24 29 30 31 34 36 36 33 34 32 30 29 28 24 21 21 19 16 15 15 14 11 9 11 10 10
20 20 19 19 22 26 31 38 45 43 41 38 35 36 34 33 31 30 32 31 34 37 34 27 25 23 23 21 21 20 17 17 16 16 15 13 12 11 11 11 11 11 9
20 17 17 18 17 20 21 24 28 37 41 38 34 32 31 31 30 30 27 29 29 30 29 22 21 20 19 17 17 16 16 15 15 14 13 12 12 11 11 12 9 8 7
20 20 20 18 18 20 21 22 22 22 25 28 32 31 29 29 26 24 23 27 25 23 21 20 19 18 17 17 16 16 16 14 14 13 13 13 11 11 10 9 8 7 6
18 18 18 19 20 20 19 21 21 21 22 20 18 25 24 26 25 24 22 22 20 19 18 19 17 17 16 16 15 14 14 14 13 13 12 12 10 9 9 8 7 9 7
19 18 17 18 17 18 17 18 19 19 19 18 18 15 12 19 22 22 21 20 19 18 16 17 16 16 15 14 14 14 14 12 11 11 11 11 9 8 8 8 8 6 6
14 15 17 17 16 16 16 18 17 18 18 19 18 16 19 22 20 20 18 18 17 16 15 15 14 14 12 11 11 11 11 10 10 10 8 9 9 8 7 6 6 5 6
13 13 14 15 14 15 15 15 16 17 17 18 17 21 22 21 19 18 17 16 15 14 13 13 13 12 10 10 9 8 9 8 7 7 7 7 7 6 5 5 5 5 6
13 13 14 14 15 16 16 15 16 16 17 16 15 15 16 17 16 16 15 15 15 15 14 13 12 11 10 9 7 7 6 6 5 6 5 5 5 4 5 4 5 5 5
13 13 14 14 14 15 15 16 16 17 17 16 16 16 15 15 14 14 13 13 13 13 12 11 10 9 8 7 7 6 5 4 3 2 3 3 3 4 4 4 4 5 5
13 14 14 13 14 14 15 15 15 15 15 14 14 14 13 13 13 12 12 11 9 8 8 9 8 7 7 6 4 3 2 2 2 2 2 3 4 6 5 5 5 5 6
14 14 14 14 14 13 14 14 14 13 13 13 12 12 11 12 11 9 8 7 7 7 7 6 6 4 3 2 2 2 2 3 4 5 6 6 6 5 5 6 7 6 7

GFSGL_925_spd_108.txt.gz
Wind_Speed
25 25 22 22 20 17 16 16 16 13 15 15 15 23 30 33 34 36 36 32 33 32 31 33 32 28 18 24 14 18 18 17 15 19 15 15 16 14 8 8 10 9 10
25 26 22 20 20 19 18 17 16 15 14 13 14 18 24 29 33 35 33 32 34 33 32 32 29 26 25 20 19 18 19 23 17 12 18 24 21 21 16 14 10 12 9
24 24 22 21 21 20 19 18 16 15 14 12 13 14 20 24 29 32 32 32 34 33 30 33 29 28 26 25 19 16 18 17 20 18 22 21 21 21 19 17 18 19 16
21 20 20 19 20 20 19 18 17 16 14 14 14 15 16 18 22 27 28 28 29 29 32 32 33 34 32 29 27 24 20 19 19 19 18 20 23 22 19 20 18 18 13
20 18 18 17 17 19 18 17 16 16 16 15 13 13 14 16 20 22 25 27 29 29 27 30 35 40 33 31 30 27 26 22 19 19 18 16 18 18 17 18 22 20 12
20 17 17 17 16 16 16 16 16 15 16 17 16 15 15 15 20 24 26 26 26 28 28 27 31 32 31 28 32 32 24 23 20 20 20 20 24 23 25 26 22 12 5
18 18 17 17 17 15 14 15 16 16 17 17 17 16 18 22 24 25 29 26 27 29 28 27 29 33 34 34 32 34 33 34 35 31 26 25 26 28 27 24 20 13 11
11 11 11 15 15 15 15 14 14 15 16 17 17 17 17 19 22 25 31 28 28 30 31 31 32 33 36 36 36 31 29 26 26 26 23 22 20 19 16 17 18 14 13
18 16 12 12 9 11 14 14 15 14 15 16 16 17 18 20 23 24 27 33 26 26 29 31 33 33 35 39 38 30 17 12 8 10 14 11 8 9 7 10 16 17 6
19 15 14 12 12 9 6 6 11 14 16 14 13 13 16 16 19 22 26 29 26 24 21 20 24 23 21 29 32 30 25 20 14 14 17 16 15 16 14 15 14 15 13
23 18 17 16 18 14 10 5 2 10 15 18 16 12 9 5 10 18 24 29 28 21 12 7 10 19 18 26 25 27 27 24 24 26 26 25 24 23 22 20 18 17 16
12 19 23 23 18 17 17 14 13 17 22 23 24 22 19 17 9 3 6 12 20 18 17 17 17 13 17 18 18 27 31 31 30 29 27 24 23 22 20 20 19 18 17
22 27 27 26 25 22 21 21 21 21 22 19 20 20 21 25 29 26 25 25 28 32 33 35 36 37 38 37 32 31 32 30 29 26 22 18 18 17 16 16 17 18 16
21 24 28 31 30 28 27 25 23 21 20 20 19 19 18 21 23 26 31 35 37 40 34 32 34 35 36 36 32 30 25 20 20 20 18 16 14 12 12 12 12 11 10
16 19 22 24 29 34 35 28 29 28 22 21 19 19 19 19 18 21 24 27 29 32 32 29 27 26 27 24 21 20 19 17 17 16 15 13 12 12 11 9 8 8 9
14 17 19 21 24 26 29 37 42 40 38 34 31 30 29 29 29 29 29 29 28 25 25 24 22 21 21 20 18 17 16 15 14 13 12 13 12 11 10 9 8 8 8
13 14 16 17 19 20 23 25 28 34 37 37 34 32 30 29 28 28 28 28 26 24 24 21 21 20 17 17 17 16 15 13 12 11 12 12 11 10 9 8 7 7 6
15 16 17 18 18 18 19 20 20 21 23 26 29 28 26 24 23 22 22 22 24 22 21 18 18 18 16 17 17 15 14 12 11 10 11 10 9 8 8 7 6 5 4
15 16 16 17 17 18 18 19 19 19 19 18 17 21 22 24 26 24 21 21 20 19 18 17 16 17 16 16 15 14 12 12 11 10 10 9 8 7 7 6 6 5 2
17 16 15 16 16 16 16 17 17 17 17 16 16 15 13 15 19 20 20 19 19 18 16 16 16 16 15 14 14 13 12 11 10 9 9 8 7 6 5 4 3 2 3
14 15 14 16 15 15 16 16 15 16 16 17 17 16 16 18 18 18 18 18 18 17 15 15 15 14 12 11 11 10 9 9 8 7 6 6 5 5 3 3 2 3 3
12 13 15 15 14 15 16 15 15 15 16 17 17 18 17 19 18 17 17 17 16 15 13 13 12 11 11 10 9 8 7 7 6 5 5 5 4 3 2 2 2 2 3
13 14 14 15 15 15 15 14 14 15 15 15 14 14 15 16 16 16 15 14 13 13 12 11 10 10 8 8 7 6 5 5 4 3 3 3 2 1 1 1 2 3 3
13 13 13 14 14 13 14 14 15 15 15 14 14 14 14 13 14 14 13 12 11 11 10 10 9 8 8 7 6 5 4 4 2 1 2 1 0 2 2 2 3 4 5
12 12 13 13 13 13 13 13 13 13 13 12 12 12 12 11 11 11 10 9 9 8 8 8 7 7 6 6 4 3 3 2 2 2 1 2 3 3 3 3 4 5 6
12 12 12 12 12 11 11 11 11 11 11 11 10 10 9 9 9 8 7 7 7 6 6 5 4 4 4 3 2 0 1 2 2 3 3 4 4 5 5 6 6 7 7

GFSGL_925_spd_111.txt.gz
Wind_Speed
22 25 25 26 26 23 22 20 18 18 17 18 18 22 26 28 32 32 29 29 30 29 29 34 31 26 26 24 22 26 20 14 9 14 7 13 14 12 3 9 9 7 12
20 22 23 26 25 24 21 20 19 19 17 16 17 19 23 27 31 33 29 29 29 25 29 31 32 29 25 27 19 18 26 23 14 13 15 10 12 12 14 19 16 5 9
18 20 23 26 25 22 19 20 20 18 17 15 14 14 19 25 27 29 31 31 31 31 29 31 31 33 31 27 23 13 14 12 10 9 15 16 12 12 8 15 17 19 14
18 19 20 21 19 22 20 20 21 19 17 15 14 14 15 20 22 26 28 26 27 27 26 31 31 34 33 31 27 23 16 11 12 13 19 15 17 18 14 16 12 13 12
18 19 19 22 18 19 19 20 20 18 17 15 14 13 14 14 16 21 24 25 24 24 27 28 29 30 32 30 27 26 25 22 19 19 17 12 13 12 15 19 20 20 15
18 18 21 22 20 20 19 18 20 18 18 17 15 14 14 13 15 17 19 22 25 25 23 27 30 32 31 32 36 30 33 26 20 17 18 12 16 21 19 23 21 13 5
18 19 21 19 17 17 18 18 18 19 18 17 16 14 13 12 14 19 18 16 21 23 23 22 24 27 32 33 31 27 27 28 30 28 24 20 20 21 23 26 27 18 10
10 10 15 19 17 16 15 17 16 16 18 18 16 15 12 11 13 13 15 18 20 21 22 22 23 26 30 31 29 27 25 24 27 27 23 22 20 18 18 20 22 14 11
18 15 13 13 14 16 15 15 15 15 14 15 15 14 13 9 11 12 14 18 17 20 23 25 25 25 30 32 32 28 19 13 10 14 14 13 13 14 14 15 12 18 5
18 16 18 16 15 13 10 11 10 12 12 15 13 11 11 9 12 16 18 21 22 10 17 18 26 26 24 31 36 34 26 21 15 10 10 8 7 6 5 6 10 13 12
15 30 29 23 20 12 11 9 10 17 20 19 18 14 10 4 3 12 17 17 21 17 6 2 1 6 16 19 28 26 23 22 17 18 19 18 17 17 15 13 12 12 12
16 34 29 34 23 21 23 20 18 21 27 22 21 21 20 18 13 7 2 10 12 13 18 18 17 12 14 15 16 20 24 25 24 24 23 22 20 20 19 19 18 17 16
36 34 32 29 27 25 30 24 25 25 23 19 20 20 21 25 31 29 23 22 24 29 31 34 34 32 32 33 29 29 27 26 25 25 22 20 17 16 15 16 16 17 16
30 33 30 33 35 31 33 31 26 21 20 18 19 19 18 21 23 24 29 33 35 37 33 32 31 34 34 34 30 26 26 24 22 19 17 17 14 12 12 11 12 12 12
25 21 22 26 34 36 40 32 31 30 22 21 21 20 18 20 19 22 26 28 29 31 31 29 27 29 26 26 26 23 22 21 18 15 13 14 13 11 12 10 10 10 10
21 20 23 26 28 29 30 36 43 40 38 35 32 32 31 30 29 29 29 28 27 23 25 24 23 21 20 20 18 18 18 16 14 14 13 12 12 11 10 10 9 8 8
20 18 19 22 22 22 21 24 25 33 36 36 34 32 31 29 29 28 30 29 25 25 25 22 21 19 18 17 15 15 15 14 13 13 12 12 12 11 9 9 8 7 6
20 19 19 19 19 20 20 20 19 20 22 26 29 28 26 25 23 22 23 23 24 23 21 19 19 17 16 15 14 14 13 13 13 13 12 11 10 9 8 7 7 5 5
16 16 17 19 19 19 18 17 17 18 19 18 17 21 23 25 26 25 23 21 19 19 18 18 18 17 15 14 13 13 13 13 12 12 11 10 9 7 7 6 7 5 3
16 16 15 16 16 16 16 16 17 17 17 17 17 14 13 17 21 22 22 20 18 18 17 18 17 16 15 14 13 13 13 12 11 10 9 8 8 7 6 5 4 4 4
12 14 14 15 15 15 16 17 16 17 17 18 18 18 17 17 18 19 18 17 16 16 16 16 15 15 12 12 11 11 11 10 10 9 8 7 6 6 5 4 3 3 4
11 12 14 14 14 15 16 15 16 17 17 17 16 16 16 17 17 17 16 14 14 15 14 14 14 12 11 11 10 10 10 9 8 7 6 6 5 4 3 3 3 3 4
12 13 13 13 14 14 15 15 15 15 15 14 14 14 14 15 15 15 14 13 13 14 14 12 11 11 11 11 10 9 8 7 6 5 4 4 3 3 3 3 4 4 5
12 13 13 13 13 14 14 15 15 15 14 14 14 14 14 13 13 13 13 12 13 13 13 12 11 11 10 9 9 8 6 8 5 3 5 3 2 4 4 4 4 4 5
12 12 13 13 13 13 13 13 13 13 13 12 12 12 12 12 12 11 11 11 11 11 11 10 9 8 8 6 6 3 5 5 2 5 3 3 3 4 4 4 5 6 7
11 12 12 12 12 11 11 11 12 11 11 10 10 10 10 10 10 9 9 8 8 9 8 8 8 8 8 6 5 3 2 1 2 1 1 2 4 4 5 6 7 8 9

GFSGL_925_spd_114.txt.gz
Wind_Speed
30 38 25 23 23 25 24 24 24 23 21 24 26 27 27 26 28 25 26 28 31 30 29 28 31 34 30 28 27 22 16 9 8 11 18 19 15 20 18 17 14 12 13
32 27 19 22 22 23 25 24 22 22 20 23 25 26 28 30 29 28 28 28 30 29 30 29 26 32 31 31 30 22 25 22 3 10 19 18 16 16 11 9 7 10 10
29 26 16 21 24 23 17 25 20 20 22 22 24 25 25 26 26 27 29 31 30 31 31 30 32 31 31 31 31 26 22 23 21 14 8 15 16 17 13 9 11 12 9
29 24 19 22 24 23 19 24 23 21 22 20 20 22 24 24 23 27 28 27 27 28 29 33 33 35 31 32 32 30 25 14 10 11 6 6 7 10 12 16 13 12 13
31 26 19 22 23 22 29 25 25 21 23 20 20 20 18 18 21 23 26 27 26 25 26 27 30 35 36 37 32 29 31 23 15 12 11 11 9 8 17 20 17 18 14
30 23 18 20 21 22 27 24 27 23 23 20 19 20 18 16 18 19 21 20 21 22 22 22 26 29 33 36 36 33 31 25 20 18 16 12 19 21 24 20 20 12 6
25 15 20 21 19 18 25 25 22 23 22 21 19 19 18 14 16 18 17 17 19 21 21 23 24 22 24 26 27 30 26 26 28 24 20 20 20 20 21 20 21 17 11
27 25 5 19 19 19 23 22 23 24 21 21 21 18 16 12 13 18 17 13 13 16 19 21 22 23 24 25 26 24 22 22 24 26 24 21 18 19 19 19 18 14 9
28 26 24 13 16 19 21 22 22 22 21 16 15 15 14 13 15 14 15 14 12 12 13 15 17 22 23 26 26 26 19 14 11 17 17 16 15 14 13 13 9 15 4
29 25 22 18 11 17 19 22 20 21 23 22 20 18 17 13 12 15 17 15 14 15 13 13 18 17 19 23 27 29 26 21 15 11 10 9 6 6 4 4 9 14 10
28 27 25 23 20 14 18 22 28 28 27 26 26 21 18 10 6 7 12 14 15 15 12 8 4 10 17 25 29 31 28 26 17 16 16 16 15 15 15 12 9 10 12
29 28 31 31 28 24 24 24 28 31 30 26 28 27 24 21 16 11 6 12 16 17 18 17 15 9 12 17 16 17 21 23 22 23 22 22 22 22 20 19 17 14 14
26 31 36 31 28 33 29 32 26 24 24 21 23 23 23 27 31 29 24 24 25 29 29 31 30 30 31 32 29 30 28 25 26 27 25 24 23 21 20 21 21 20 19
25 30 33 32 34 36 34 40 30 20 24 21 22 21 21 23 27 28 29 34 36 37 32 34 35 34 35 34 31 28 26 25 27 26 24 22 20 19 18 17 20 20 21
22 25 27 24 31 38 40 33 32 33 26 25 24 23 26 25 22 25 29 31 32 31 32 32 29 29 29 28 31 30 27 26 26 23 20 18 18 18 17 16 16 17 17
21 22 22 22 25 26 30 38 44 42 44 42 36 35 35 34 32 32 31 29 27 25 28 26 25 24 23 22 23 22 21 22 21 20 18 17 17 16 16 14 13 14 14
20 19 20 22 20 19 20 24 26 36 43 42 40 39 36 35 34 34 33 32 29 30 29 25 24 22 21 21 22 23 23 21 19 19 18 17 17 16 14 14 12 12 11
22 22 20 20 18 18 20 25 25 26 27 29 34 35 33 30 27 26 26 29 29 28 26 24 23 23 22 21 21 20 20 20 20 19 17 15 13 13 12 13 12 11 9
17 18 17 19 20 21 23 25 24 23 21 20 21 26 28 30 31 30 27 27 24 24 24 24 23 22 21 21 22 21 20 19 18 17 16 14 13 13 11 12 11 9 8
19 19 19 18 19 21 23 23 23 22 22 23 22 20 20 26 27 26 26 26 25 24 23 23 22 20 21 21 21 19 18 16 16 15 14 13 11 10 11 8 10 11 8
16 18 19 19 20 20 20 21 20 21 21 23 24 25 24 25 24 24 24 23 23 22 22 22 21 19 18 17 16 16 17 16 14 13 11 10 10 11 10 10 8 7 6
16 17 19 18 18 20 20 19 20 20 20 21 21 22 22 23 22 22 22 22 21 20 20 19 19 19 18 16 14 14 13 13 12 9 11 9 7 8 8 6 6 6 6
16 16 17 18 18 18 18 18 19 20 20 19 19 19 20 21 20 18 17 15 16 18 17 17 15 14 13 14 14 13 11 8 9 10 9 7 5 8 7 7 6 5 4
15 16 17 17 16 16 18 20 21 19 18 18 18 17 17 16 16 16 16 16 16 13 11 13 14 14 14 10 8 8 9 8 8 8 7 8 6 4 4 4 4 4 5
15 15 15 14 14 14 15 16 16 16 16 16 16 16 15 15 14 13 13 13 12 12 14 13 11 8 5 4 4 6 7 5 5 6 7 8 3 6 5 6 3 5 4
17 16 16 15 14 14 14 15 15 15 15 15 14 14 13 13 12 12 11 10 11 10 9 11 11 8 3 6 7 5 3 1 2 2 5 6 3 0 2 1 1 3 5

GFSGL_925_spd_117.txt.gz
Wind_Speed
28 31 33 35 34 31 34 27 26 29 33 34 30 32 31 32 32 32 31 29 30 29 29 28 29 26 28 26 29 28 26 15 5 18 24 18 26 26 24 22 18 16 15
29 31 33 34 26 32 31 30 28 31 33 31 30 30 29 32 31 31 29 28 28 27 28 28 28 32 29 29 29 26 26 20 5 14 22 22 20 18 19 16 13 11 10
30 31 32 32 20 23 26 27 26 30 34 30 27 25 29 31 30 28 32 29 30 31 29 28 29 31 30 30 32 30 27 26 18 5 4 14 19 22 18 15 12 10 10
29 31 30 32 25 23 25 21 24 34 32 27 24 23 26 27 29 30 30 29 29 28 30 33 30 33 32 32 32 30 29 27 23 16 10 11 17 18 23 21 15 13 13
31 30 31 32 26 26 22 20 28 35 32 26 23 23 23 23 27 27 27 28 27 25 27 29 32 35 36 35 33 30 29 25 24 20 18 8 12 14 16 14 15 17 15
33 31 32 29 25 24 22 21 27 29 31 26 23 24 22 22 23 26 27 26 24 24 23 23 28 30 35 37 39 39 42 32 27 21 18 14 18 16 18 18 19 12 6
30 30 29 34 22 21 24 27 24 29 29 26 23 22 20 20 21 23 22 22 20 19 20 20 22 22 26 30 32 28 29 32 29 28 21 18 16 20 21 21 21 18 11
28 28 28 30 22 20 24 27 25 29 29 27 24 23 21 19 18 19 18 18 17 16 18 18 18 17 19 24 27 24 21 19 16 15 16 17 19 19 21 21 23 20 11
29 29 28 28 24 11 18 23 24 28 25 23 23 25 23 20 23 22 20 17 15 14 14 14 15 16 18 20 23 21 16 13 11 16 18 18 18 17 15 14 13 18 4
30 31 27 24 23 16 11 24 19 25 29 28 27 24 21 22 24 26 24 18 19 17 14 13 15 16 17 20 24 25 24 20 17 15 13 10 6 5 6 10 12 18 9
29 32 30 25 24 22 13 21 29 31 33 31 31 22 18 14 19 25 23 22 22 19 14 10 7 14 19 24 25 28 27 25 19 17 16 14 12 11 9 7 8 12 12
33 34 34 30 29 26 27 24 24 30 33 28 30 26 23 19 14 15 22 23 24 23 19 16 12 10 16 21 18 18 23 25 23 22 21 20 19 18 17 15 12 11 8
30 32 33 34 33 31 31 29 26 25 22 21 21 21 24 26 27 25 24 26 25 29 27 28 29 29 29 30 29 31 29 25 26 26 26 24 22 22 22 22 22 21 22
28 28 30 32 37 36 37 31 30 25 25 22 20 21 21 23 24 26 31 35 37 36 31 32 33 33 33 31 28 25 25 25 27 29 27 25 23 22 22 22 24 24 26
23 24 26 28 30 36 43 34 33 31 29 28 24 19 18 24 22 27 29 30 30 37 31 34 33 27 32 29 28 29 29 28 28 26 25 23 23 23 19 17 17 21 24
21 22 22 22 25 26 31 39 49 45 41 37 32 33 31 34 34 35 34 32 29 33 29 30 27 23 25 22 23 24 25 24 23 24 25 25 24 23 22 20 20 21 21
21 20 21 24 23 22 23 26 27 38 43 40 39 36 35 39 38 35 34 33 29 30 31 27 25 24 24 24 24 25 27 25 24 24 23 22 22 21 21 20 18 18 17
23 24 22 21 21 23 22 23 23 21 24 28 36 35 34 34 32 28 28 33 30 29 28 26 25 24 24 25 26 27 27 25 24 22 21 20 20 20 20 18 16 15 13
21 20 21 21 23 22 23 25 26 23 20 21 24 27 28 30 30 29 28 29 27 26 25 28 29 29 28 27 26 25 25 23 22 21 20 18 16 16 16 15 14 13 15
20 20 21 20 20 21 22 22 22 22 22 20 20 19 20 29 29 28 27 28 28 26 25 27 28 28 27 25 23 22 22 21 20 19 18 16 14 15 15 15 13 11 11
18 19 20 20 20 20 20 20 19 19 20 22 23 22 24 27 24 26 27 27 27 28 28 29 28 26 24 23 21 20 20 19 17 16 16 15 13 14 12 12 12 10 7
18 19 20 20 20 20 18 18 18 19 19 20 22 22 23 26 26 26 26 26 25 24 23 23 24 23 22 20 18 18 18 17 16 14 13 11 11 10 8 8 7 9 7
17 18 19 20 21 22 21 21 21 21 21 21 21 22 22 23 23 23 22 20 20 19 19 18 20 21 18 16 15 14 14 15 13 11 11 10 9 10 10 8 6 6 6
18 19 20 20 21 22 22 22 21 21 20 20 21 21 21 21 21 20 18 17 17 17 16 15 15 14 13 12 11 10 9 9 9 8 7 6 6 6 5 4 6 5 6
18 19 18 18 19 20 20 21 21 21 20 19 19 18 17 17 17 16 15 13 14 15 14 12 11 10 9 7 8 7 7 6 7 7 6 5 6 6 6 5 3 3 3
18 19 19 18 19 19 19 19 19 18 18 17 16 15 15 15 15 13 11 11 12 13 11 10 10 10 9 8 7 6 4 4 4 5 6 5 4 3 2 1 1 1 2

GFSGL_925_spd_120.txt.gz
Wind_Speed
29 29 31 32 30 27 29 30 30 36 34 32 32 34 36 37 36 36 32 31 29 29 28 28 28 27 26 27 31 32 24 18 7 11 26 20 22 30 28 29 31 30 26
27 29 30 32 31 28 29 30 31 35 32 31 33 35 37 36 36 34 32 29 29 28 28 27 28 27 27 28 28 28 28 25 17 14 23 22 15 29 29 20 18 18 18
24 26 28 30 29 30 28 24 29 33 30 32 33 35 35 33 33 32 31 31 30 29 28 29 27 28 26 25 28 28 26 28 25 16 15 21 12 18 21 19 16 16 14
22 23 25 27 28 31 29 25 25 24 28 33 35 35 33 33 30 31 30 29 28 29 29 29 30 31 28 28 29 29 28 24 24 23 20 17 20 21 25 25 19 17 16
23 23 25 29 29 30 28 24 25 25 28 35 34 31 33 31 30 28 29 29 29 28 28 29 31 32 32 33 29 27 28 26 24 21 16 9 15 20 25 25 21 19 12
24 23 24 26 28 29 29 25 24 24 28 32 35 33 32 29 24 27 28 27 28 26 26 29 30 29 31 34 37 35 38 31 24 20 17 16 18 22 24 26 22 11 5
25 26 26 27 28 30 30 24 22 24 28 29 28 34 31 26 22 23 25 25 25 25 25 25 26 28 30 32 31 31 36 37 35 31 26 24 24 26 23 21 19 15 12
26 28 30 30 30 30 29 27 23 25 27 30 31 32 28 21 20 21 22 22 21 21 21 21 20 18 20 29 29 25 22 21 27 24 29 28 30 30 26 25 26 21 12
31 32 33 32 31 29 28 29 24 24 24 25 29 31 27 21 20 21 22 18 17 16 15 15 14 15 17 19 25 23 17 15 15 21 22 22 21 21 21 21 20 23 5
30 31 31 30 30 26 26 26 21 23 28 30 28 27 26 25 23 23 22 21 19 17 15 15 16 16 18 17 21 25 24 20 17 15 14 14 13 13 16 17 18 21 10
28 29 30 32 30 26 20 20 5 28 31 30 31 25 20 22 27 27 24 24 24 20 15 12 13 16 17 19 20 26 25 23 20 17 16 14 12 10 8 7 12 14 13
27 28 32 34 36 31 21 23 19 14 30 23 27 26 22 16 19 28 28 25 25 24 17 13 11 12 22 23 22 22 22 26 22 21 19 17 16 15 14 12 11 11 8
26 28 32 32 39 36 27 26 26 21 20 18 24 18 23 24 22 20 24 28 27 26 21 22 23 21 21 20 21 22 26 25 25 24 23 21 20 20 20 21 19 19 20
22 27 28 30 34 40 30 28 28 25 22 19 18 20 24 24 22 23 30 32 34 33 29 25 25 25 26 26 26 23 22 24 25 28 28 25 23 21 23 23 26 25 27
21 22 23 26 29 28 39 36 35 37 28 22 20 26 21 24 22 18 20 26 30 31 30 26 26 30 29 26 25 26 25 26 28 27 28 23 25 25 24 19 15 18 23
18 20 23 23 24 25 23 32 47 44 48 45 38 36 34 36 34 32 28 24 29 32 33 25 22 23 24 22 23 22 26 26 27 27 24 24 25 24 23 22 23 25 25
20 20 18 20 21 22 24 22 21 34 44 43 39 37 38 37 35 31 29 25 28 32 31 24 25 23 20 26 24 21 23 23 25 27 29 27 26 25 24 23 22 22 22
18 20 19 21 23 23 24 22 21 21 24 27 38 36 33 32 28 26 26 26 24 23 28 28 24 22 24 24 23 25 27 26 25 25 24 24 25 25 24 22 19 20 20
16 17 18 19 20 22 23 24 23 22 22 22 24 29 28 30 29 27 25 24 21 27 26 27 25 25 26 26 26 26 25 26 24 23 22 21 21 22 22 20 18 19 17
16 15 15 16 18 20 22 21 21 21 22 22 23 21 21 27 27 24 25 26 26 25 26 26 25 25 25 26 26 26 26 24 23 22 20 18 17 16 18 17 16 17 15
14 15 16 17 18 18 19 19 19 20 21 21 23 21 22 26 24 26 26 25 24 25 25 26 25 24 22 22 22 22 23 22 20 19 18 16 15 16 14 13 12 11 8
13 14 16 17 17 18 17 17 17 18 18 19 20 21 21 25 25 25 24 22 22 22 22 22 22 21 21 20 20 20 20 19 18 16 15 14 14 12 11 11 12 10 8
12 13 14 16 16 16 17 17 17 17 18 19 18 19 21 22 22 22 22 21 20 20 19 19 19 20 18 17 16 15 15 16 15 11 11 12 12 11 10 10 8 7 6
13 15 15 15 16 16 17 17 17 17 18 19 19 20 20 19 18 18 18 18 17 17 17 17 16 15 14 13 12 12 13 12 10 10 9 9 10 9 8 8 7 7 6
12 13 14 14 15 16 17 17 17 17 17 17 17 17 17 16 16 16 15 15 15 16 16 15 13 12 11 10 10 10 10 7 6 6 5 4 5 5 5 5 5 3 2
12 12 13 13 14 14 15 15 15 16 16 16 16 15 15 15 14 13 13 12 14 14 14 14 13 11 10 9 8 6 4 5 5 4 4 4 5 5 4 3 3 3 1